<?xml version="1.0" encoding="UTF-8" standalone="no" ?>
<gpx xmlns="http://www.topografix.com/GPX/1/1" xmlns:xsi="http://www.w3.org/2001/XMLSchema-instance" xsi:schemaLocation="http://www.topografix.com/GPX/1/1 http://www.topografix.com/GPX/1/1/gpx.xsd" version="1.1" creator="VisuGPX - https://www.visugpx.com">
  <metadata>
    <name>SSOL VTT 1 Avril</name>
    <desc><![CDATA[Sortie du groupe Gamelle]]></desc>
  </metadata>
  <trk>
    <name><![CDATA[2012-04-01T06:14:34Z]]></name>
    <trkseg>
      <trkpt lat="47.71726" lon="7.39447">
        <ele>247.1960449</ele>
        <time>2012-04-01T06:14:34Z</time>
      </trkpt>
      <trkpt lat="47.71726" lon="7.39447">
        <ele>247.1960449</ele>
        <time>2012-04-01T06:14:35Z</time>
      </trkpt>
      <trkpt lat="47.71726" lon="7.39449">
        <ele>245.2734375</ele>
        <time>2012-04-01T06:14:40Z</time>
      </trkpt>
      <trkpt lat="47.7172" lon="7.39461">
        <ele>247.6767578</ele>
        <time>2012-04-01T06:14:46Z</time>
      </trkpt>
      <trkpt lat="47.71721" lon="7.39465">
        <ele>248.1575928</ele>
        <time>2012-04-01T06:14:47Z</time>
      </trkpt>
      <trkpt lat="47.71725" lon="7.39502">
        <ele>246.7154541</ele>
        <time>2012-04-01T06:14:53Z</time>
      </trkpt>
      <trkpt lat="47.71728" lon="7.39527">
        <ele>243.3508301</ele>
        <time>2012-04-01T06:14:56Z</time>
      </trkpt>
      <trkpt lat="47.71731" lon="7.39556">
        <ele>241.9089355</ele>
        <time>2012-04-01T06:14:59Z</time>
      </trkpt>
      <trkpt lat="47.71722" lon="7.39601">
        <ele>242.3896484</ele>
        <time>2012-04-01T06:15:03Z</time>
      </trkpt>
      <trkpt lat="47.71707" lon="7.39626">
        <ele>243.831543</ele>
        <time>2012-04-01T06:15:06Z</time>
      </trkpt>
      <trkpt lat="47.71706" lon="7.39636">
        <ele>244.7928467</ele>
        <time>2012-04-01T06:15:07Z</time>
      </trkpt>
      <trkpt lat="47.71696" lon="7.39664">
        <ele>245.2734375</ele>
        <time>2012-04-01T06:15:12Z</time>
      </trkpt>
      <trkpt lat="47.7167" lon="7.39686">
        <ele>246.7154541</ele>
        <time>2012-04-01T06:15:17Z</time>
      </trkpt>
      <trkpt lat="47.7166" lon="7.39698">
        <ele>246.2348633</ele>
        <time>2012-04-01T06:15:19Z</time>
      </trkpt>
      <trkpt lat="47.71634" lon="7.39716">
        <ele>245.7541504</ele>
        <time>2012-04-01T06:15:23Z</time>
      </trkpt>
      <trkpt lat="47.71605" lon="7.39728">
        <ele>246.7154541</ele>
        <time>2012-04-01T06:15:27Z</time>
      </trkpt>
      <trkpt lat="47.71582" lon="7.3975">
        <ele>251.5220947</ele>
        <time>2012-04-01T06:15:31Z</time>
      </trkpt>
      <trkpt lat="47.7158" lon="7.3978">
        <ele>253.4447021</ele>
        <time>2012-04-01T06:15:34Z</time>
      </trkpt>
      <trkpt lat="47.71588" lon="7.39808">
        <ele>252.9639893</ele>
        <time>2012-04-01T06:15:37Z</time>
      </trkpt>
      <trkpt lat="47.71598" lon="7.39872">
        <ele>250.0802002</ele>
        <time>2012-04-01T06:15:44Z</time>
      </trkpt>
      <trkpt lat="47.71594" lon="7.39926">
        <ele>249.1187744</ele>
        <time>2012-04-01T06:15:50Z</time>
      </trkpt>
      <trkpt lat="47.71592" lon="7.39991">
        <ele>249.5994873</ele>
        <time>2012-04-01T06:15:57Z</time>
      </trkpt>
      <trkpt lat="47.71588" lon="7.40061">
        <ele>248.6381836</ele>
        <time>2012-04-01T06:16:04Z</time>
      </trkpt>
      <trkpt lat="47.71579" lon="7.40158">
        <ele>247.1960449</ele>
        <time>2012-04-01T06:16:13Z</time>
      </trkpt>
      <trkpt lat="47.71568" lon="7.40238">
        <ele>241.9089355</ele>
        <time>2012-04-01T06:16:20Z</time>
      </trkpt>
      <trkpt lat="47.71551" lon="7.4029">
        <ele>236.1409912</ele>
        <time>2012-04-01T06:16:25Z</time>
      </trkpt>
      <trkpt lat="47.71523" lon="7.40342">
        <ele>237.1022949</ele>
        <time>2012-04-01T06:16:31Z</time>
      </trkpt>
      <trkpt lat="47.71491" lon="7.40383">
        <ele>237.5828857</ele>
        <time>2012-04-01T06:16:37Z</time>
      </trkpt>
      <trkpt lat="47.71444" lon="7.4043">
        <ele>238.0635986</ele>
        <time>2012-04-01T06:16:45Z</time>
      </trkpt>
      <trkpt lat="47.71439" lon="7.40436">
        <ele>239.0249023</ele>
        <time>2012-04-01T06:16:46Z</time>
      </trkpt>
      <trkpt lat="47.7142" lon="7.4046">
        <ele>240.467041</ele>
        <time>2012-04-01T06:16:50Z</time>
      </trkpt>
      <trkpt lat="47.71422" lon="7.40478">
        <ele>241.4282227</ele>
        <time>2012-04-01T06:16:52Z</time>
      </trkpt>
      <trkpt lat="47.71426" lon="7.40486">
        <ele>241.9089355</ele>
        <time>2012-04-01T06:16:53Z</time>
      </trkpt>
      <trkpt lat="47.71461" lon="7.40547">
        <ele>240.9476318</ele>
        <time>2012-04-01T06:17:01Z</time>
      </trkpt>
      <trkpt lat="47.71501" lon="7.40595">
        <ele>239.5054932</ele>
        <time>2012-04-01T06:17:09Z</time>
      </trkpt>
      <trkpt lat="47.71549" lon="7.40655">
        <ele>240.467041</ele>
        <time>2012-04-01T06:17:19Z</time>
      </trkpt>
      <trkpt lat="47.71581" lon="7.40702">
        <ele>239.5054932</ele>
        <time>2012-04-01T06:17:26Z</time>
      </trkpt>
      <trkpt lat="47.716" lon="7.40754">
        <ele>239.0249023</ele>
        <time>2012-04-01T06:17:32Z</time>
      </trkpt>
      <trkpt lat="47.71625" lon="7.40824">
        <ele>239.0249023</ele>
        <time>2012-04-01T06:17:40Z</time>
      </trkpt>
      <trkpt lat="47.71665" lon="7.40901">
        <ele>238.0635986</ele>
        <time>2012-04-01T06:17:50Z</time>
      </trkpt>
      <trkpt lat="47.71701" lon="7.40959">
        <ele>237.1022949</ele>
        <time>2012-04-01T06:17:58Z</time>
      </trkpt>
      <trkpt lat="47.71748" lon="7.41024">
        <ele>237.1022949</ele>
        <time>2012-04-01T06:18:08Z</time>
      </trkpt>
      <trkpt lat="47.71781" lon="7.41052">
        <ele>237.1022949</ele>
        <time>2012-04-01T06:18:14Z</time>
      </trkpt>
      <trkpt lat="47.71835" lon="7.41084">
        <ele>237.1022949</ele>
        <time>2012-04-01T06:18:23Z</time>
      </trkpt>
      <trkpt lat="47.71894" lon="7.4112">
        <ele>237.1022949</ele>
        <time>2012-04-01T06:18:33Z</time>
      </trkpt>
      <trkpt lat="47.71939" lon="7.41161">
        <ele>237.5828857</ele>
        <time>2012-04-01T06:18:41Z</time>
      </trkpt>
      <trkpt lat="47.71977" lon="7.41214">
        <ele>238.0635986</ele>
        <time>2012-04-01T06:18:49Z</time>
      </trkpt>
      <trkpt lat="47.72022" lon="7.41282">
        <ele>238.0635986</ele>
        <time>2012-04-01T06:18:59Z</time>
      </trkpt>
      <trkpt lat="47.72046" lon="7.4132">
        <ele>239.9862061</ele>
        <time>2012-04-01T06:19:05Z</time>
      </trkpt>
      <trkpt lat="47.72076" lon="7.41368">
        <ele>240.9476318</ele>
        <time>2012-04-01T06:19:13Z</time>
      </trkpt>
      <trkpt lat="47.72118" lon="7.41435">
        <ele>240.9476318</ele>
        <time>2012-04-01T06:19:24Z</time>
      </trkpt>
      <trkpt lat="47.72145" lon="7.41463">
        <ele>241.4282227</ele>
        <time>2012-04-01T06:19:30Z</time>
      </trkpt>
      <trkpt lat="47.72187" lon="7.41489">
        <ele>242.3896484</ele>
        <time>2012-04-01T06:19:38Z</time>
      </trkpt>
      <trkpt lat="47.72223" lon="7.41531">
        <ele>242.3896484</ele>
        <time>2012-04-01T06:19:46Z</time>
      </trkpt>
      <trkpt lat="47.7223" lon="7.41544">
        <ele>242.3896484</ele>
        <time>2012-04-01T06:19:48Z</time>
      </trkpt>
      <trkpt lat="47.72249" lon="7.41595">
        <ele>242.3896484</ele>
        <time>2012-04-01T06:19:55Z</time>
      </trkpt>
      <trkpt lat="47.72259" lon="7.4167">
        <ele>242.3896484</ele>
        <time>2012-04-01T06:20:04Z</time>
      </trkpt>
      <trkpt lat="47.72264" lon="7.41722">
        <ele>239.9862061</ele>
        <time>2012-04-01T06:20:11Z</time>
      </trkpt>
      <trkpt lat="47.72264" lon="7.41734">
        <ele>238.0635986</ele>
        <time>2012-04-01T06:20:13Z</time>
      </trkpt>
      <trkpt lat="47.72266" lon="7.4175">
        <ele>238.0635986</ele>
        <time>2012-04-01T06:20:16Z</time>
      </trkpt>
      <trkpt lat="47.72269" lon="7.41782">
        <ele>239.9862061</ele>
        <time>2012-04-01T06:20:23Z</time>
      </trkpt>
      <trkpt lat="47.72278" lon="7.41813">
        <ele>239.5054932</ele>
        <time>2012-04-01T06:20:29Z</time>
      </trkpt>
      <trkpt lat="47.72296" lon="7.41835">
        <ele>239.5054932</ele>
        <time>2012-04-01T06:20:34Z</time>
      </trkpt>
      <trkpt lat="47.72326" lon="7.41886">
        <ele>239.5054932</ele>
        <time>2012-04-01T06:20:43Z</time>
      </trkpt>
      <trkpt lat="47.72338" lon="7.419">
        <ele>239.5054932</ele>
        <time>2012-04-01T06:20:46Z</time>
      </trkpt>
      <trkpt lat="47.72377" lon="7.41919">
        <ele>239.5054932</ele>
        <time>2012-04-01T06:20:54Z</time>
      </trkpt>
      <trkpt lat="47.72419" lon="7.41925">
        <ele>239.9862061</ele>
        <time>2012-04-01T06:21:02Z</time>
      </trkpt>
      <trkpt lat="47.7245" lon="7.41927">
        <ele>240.467041</ele>
        <time>2012-04-01T06:21:08Z</time>
      </trkpt>
      <trkpt lat="47.72477" lon="7.41929">
        <ele>239.0249023</ele>
        <time>2012-04-01T06:21:13Z</time>
      </trkpt>
      <trkpt lat="47.72491" lon="7.41932">
        <ele>238.0635986</ele>
        <time>2012-04-01T06:21:16Z</time>
      </trkpt>
      <trkpt lat="47.72519" lon="7.41935">
        <ele>236.6217041</ele>
        <time>2012-04-01T06:21:22Z</time>
      </trkpt>
      <trkpt lat="47.72534" lon="7.41949">
        <ele>236.1409912</ele>
        <time>2012-04-01T06:21:26Z</time>
      </trkpt>
      <trkpt lat="47.72534" lon="7.41956">
        <ele>236.1409912</ele>
        <time>2012-04-01T06:21:27Z</time>
      </trkpt>
      <trkpt lat="47.72527" lon="7.42023">
        <ele>235.6602783</ele>
        <time>2012-04-01T06:21:36Z</time>
      </trkpt>
      <trkpt lat="47.72526" lon="7.42038">
        <ele>234.6990967</ele>
        <time>2012-04-01T06:21:38Z</time>
      </trkpt>
      <trkpt lat="47.72534" lon="7.42055">
        <ele>236.1409912</ele>
        <time>2012-04-01T06:21:41Z</time>
      </trkpt>
      <trkpt lat="47.72548" lon="7.42061">
        <ele>236.1409912</ele>
        <time>2012-04-01T06:21:44Z</time>
      </trkpt>
      <trkpt lat="47.7259" lon="7.42068">
        <ele>238.0635986</ele>
        <time>2012-04-01T06:21:52Z</time>
      </trkpt>
      <trkpt lat="47.72638" lon="7.42072">
        <ele>238.5443115</ele>
        <time>2012-04-01T06:22:01Z</time>
      </trkpt>
      <trkpt lat="47.72684" lon="7.42079">
        <ele>238.0635986</ele>
        <time>2012-04-01T06:22:10Z</time>
      </trkpt>
      <trkpt lat="47.72723" lon="7.42082">
        <ele>238.0635986</ele>
        <time>2012-04-01T06:22:18Z</time>
      </trkpt>
      <trkpt lat="47.72735" lon="7.42101">
        <ele>238.5443115</ele>
        <time>2012-04-01T06:22:22Z</time>
      </trkpt>
      <trkpt lat="47.72734" lon="7.42108">
        <ele>239.0249023</ele>
        <time>2012-04-01T06:22:23Z</time>
      </trkpt>
      <trkpt lat="47.72728" lon="7.42157">
        <ele>237.1022949</ele>
        <time>2012-04-01T06:22:30Z</time>
      </trkpt>
      <trkpt lat="47.72724" lon="7.42197">
        <ele>236.6217041</ele>
        <time>2012-04-01T06:22:36Z</time>
      </trkpt>
      <trkpt lat="47.72734" lon="7.42215">
        <ele>235.1796875</ele>
        <time>2012-04-01T06:22:41Z</time>
      </trkpt>
      <trkpt lat="47.72739" lon="7.42218">
        <ele>234.6990967</ele>
        <time>2012-04-01T06:22:42Z</time>
      </trkpt>
      <trkpt lat="47.72781" lon="7.42234">
        <ele>236.1409912</ele>
        <time>2012-04-01T06:22:49Z</time>
      </trkpt>
      <trkpt lat="47.72819" lon="7.42246">
        <ele>237.1022949</ele>
        <time>2012-04-01T06:22:56Z</time>
      </trkpt>
      <trkpt lat="47.72828" lon="7.42266">
        <ele>236.6217041</ele>
        <time>2012-04-01T06:23:00Z</time>
      </trkpt>
      <trkpt lat="47.72826" lon="7.42333">
        <ele>238.5443115</ele>
        <time>2012-04-01T06:23:10Z</time>
      </trkpt>
      <trkpt lat="47.72826" lon="7.42345">
        <ele>239.5054932</ele>
        <time>2012-04-01T06:23:12Z</time>
      </trkpt>
      <trkpt lat="47.72823" lon="7.42362">
        <ele>239.5054932</ele>
        <time>2012-04-01T06:23:16Z</time>
      </trkpt>
      <trkpt lat="47.72813" lon="7.42365">
        <ele>239.9862061</ele>
        <time>2012-04-01T06:23:20Z</time>
      </trkpt>
      <trkpt lat="47.72805" lon="7.42361">
        <ele>240.467041</ele>
        <time>2012-04-01T06:23:22Z</time>
      </trkpt>
      <trkpt lat="47.72798" lon="7.42357">
        <ele>240.9476318</ele>
        <time>2012-04-01T06:23:26Z</time>
      </trkpt>
      <trkpt lat="47.72798" lon="7.42358">
        <ele>240.9476318</ele>
        <time>2012-04-01T06:23:31Z</time>
      </trkpt>
      <trkpt lat="47.72797" lon="7.42356">
        <ele>244.3122559</ele>
        <time>2012-04-01T06:23:37Z</time>
      </trkpt>
      <trkpt lat="47.72794" lon="7.42357">
        <ele>244.3122559</ele>
        <time>2012-04-01T06:23:43Z</time>
      </trkpt>
      <trkpt lat="47.72791" lon="7.42363">
        <ele>244.7928467</ele>
        <time>2012-04-01T06:23:49Z</time>
      </trkpt>
      <trkpt lat="47.72791" lon="7.42364">
        <ele>246.7154541</ele>
        <time>2012-04-01T06:23:55Z</time>
      </trkpt>
      <trkpt lat="47.72789" lon="7.42364">
        <ele>245.7541504</ele>
        <time>2012-04-01T06:24:00Z</time>
      </trkpt>
      <trkpt lat="47.72789" lon="7.42363">
        <ele>246.2348633</ele>
        <time>2012-04-01T06:24:08Z</time>
      </trkpt>
      <trkpt lat="47.72789" lon="7.42362">
        <ele>244.3122559</ele>
        <time>2012-04-01T06:24:16Z</time>
      </trkpt>
      <trkpt lat="47.72789" lon="7.42363">
        <ele>245.2734375</ele>
        <time>2012-04-01T06:24:23Z</time>
      </trkpt>
      <trkpt lat="47.72788" lon="7.42363">
        <ele>242.3896484</ele>
        <time>2012-04-01T06:24:34Z</time>
      </trkpt>
      <trkpt lat="47.72788" lon="7.42363">
        <ele>250.560791</ele>
        <time>2012-04-01T06:24:48Z</time>
      </trkpt>
      <trkpt lat="47.72788" lon="7.42364">
        <ele>249.5994873</ele>
        <time>2012-04-01T06:24:57Z</time>
      </trkpt>
      <trkpt lat="47.72788" lon="7.42366">
        <ele>248.1575928</ele>
        <time>2012-04-01T06:25:04Z</time>
      </trkpt>
      <trkpt lat="47.72787" lon="7.4237">
        <ele>242.8702393</ele>
        <time>2012-04-01T06:25:16Z</time>
      </trkpt>
      <trkpt lat="47.72786" lon="7.42371">
        <ele>241.9089355</ele>
        <time>2012-04-01T06:25:24Z</time>
      </trkpt>
      <trkpt lat="47.72788" lon="7.42372">
        <ele>243.3508301</ele>
        <time>2012-04-01T06:25:36Z</time>
      </trkpt>
      <trkpt lat="47.72789" lon="7.42372">
        <ele>244.3122559</ele>
        <time>2012-04-01T06:25:47Z</time>
      </trkpt>
      <trkpt lat="47.7279" lon="7.42374">
        <ele>246.2348633</ele>
        <time>2012-04-01T06:25:59Z</time>
      </trkpt>
      <trkpt lat="47.7279" lon="7.42373">
        <ele>246.7154541</ele>
        <time>2012-04-01T06:26:07Z</time>
      </trkpt>
      <trkpt lat="47.72791" lon="7.42373">
        <ele>246.7154541</ele>
        <time>2012-04-01T06:26:10Z</time>
      </trkpt>
      <trkpt lat="47.72791" lon="7.42373">
        <ele>245.7541504</ele>
        <time>2012-04-01T06:26:19Z</time>
      </trkpt>
      <trkpt lat="47.72792" lon="7.42372">
        <ele>245.7541504</ele>
        <time>2012-04-01T06:26:23Z</time>
      </trkpt>
      <trkpt lat="47.72792" lon="7.42372">
        <ele>245.2734375</ele>
        <time>2012-04-01T06:26:24Z</time>
      </trkpt>
      <trkpt lat="47.72792" lon="7.42371">
        <ele>245.2734375</ele>
        <time>2012-04-01T06:26:27Z</time>
      </trkpt>
      <trkpt lat="47.72791" lon="7.42371">
        <ele>245.7541504</ele>
        <time>2012-04-01T06:26:40Z</time>
      </trkpt>
      <trkpt lat="47.7279" lon="7.42372">
        <ele>245.7541504</ele>
        <time>2012-04-01T06:26:52Z</time>
      </trkpt>
      <trkpt lat="47.72791" lon="7.42375">
        <ele>245.2734375</ele>
        <time>2012-04-01T06:27:00Z</time>
      </trkpt>
      <trkpt lat="47.7279" lon="7.4237">
        <ele>243.3508301</ele>
        <time>2012-04-01T06:27:22Z</time>
      </trkpt>
      <trkpt lat="47.72789" lon="7.42369">
        <ele>239.5054932</ele>
        <time>2012-04-01T06:27:38Z</time>
      </trkpt>
      <trkpt lat="47.72789" lon="7.4237">
        <ele>240.467041</ele>
        <time>2012-04-01T06:27:47Z</time>
      </trkpt>
      <trkpt lat="47.72788" lon="7.42372">
        <ele>242.3896484</ele>
        <time>2012-04-01T06:28:01Z</time>
      </trkpt>
      <trkpt lat="47.72788" lon="7.42374">
        <ele>240.467041</ele>
        <time>2012-04-01T06:28:10Z</time>
      </trkpt>
      <trkpt lat="47.72786" lon="7.42377">
        <ele>239.0249023</ele>
        <time>2012-04-01T06:28:25Z</time>
      </trkpt>
      <trkpt lat="47.72786" lon="7.42376">
        <ele>238.0635986</ele>
        <time>2012-04-01T06:28:48Z</time>
      </trkpt>
      <trkpt lat="47.72784" lon="7.42378">
        <ele>239.5054932</ele>
        <time>2012-04-01T06:29:07Z</time>
      </trkpt>
      <trkpt lat="47.72785" lon="7.42377">
        <ele>239.0249023</ele>
        <time>2012-04-01T06:29:17Z</time>
      </trkpt>
      <trkpt lat="47.72787" lon="7.42375">
        <ele>237.1022949</ele>
        <time>2012-04-01T06:29:26Z</time>
      </trkpt>
      <trkpt lat="47.7279" lon="7.42374">
        <ele>238.0635986</ele>
        <time>2012-04-01T06:29:39Z</time>
      </trkpt>
      <trkpt lat="47.72793" lon="7.42371">
        <ele>237.1022949</ele>
        <time>2012-04-01T06:30:01Z</time>
      </trkpt>
      <trkpt lat="47.72793" lon="7.4237">
        <ele>238.0635986</ele>
        <time>2012-04-01T06:30:13Z</time>
      </trkpt>
      <trkpt lat="47.72791" lon="7.42368">
        <ele>238.5443115</ele>
        <time>2012-04-01T06:30:30Z</time>
      </trkpt>
      <trkpt lat="47.7279" lon="7.42365">
        <ele>239.5054932</ele>
        <time>2012-04-01T06:30:39Z</time>
      </trkpt>
      <trkpt lat="47.7279" lon="7.42367">
        <ele>237.5828857</ele>
        <time>2012-04-01T06:30:47Z</time>
      </trkpt>
      <trkpt lat="47.72789" lon="7.42367">
        <ele>235.6602783</ele>
        <time>2012-04-01T06:30:56Z</time>
      </trkpt>
      <trkpt lat="47.72787" lon="7.42365">
        <ele>237.1022949</ele>
        <time>2012-04-01T06:30:58Z</time>
      </trkpt>
      <trkpt lat="47.72783" lon="7.42361">
        <ele>237.5828857</ele>
        <time>2012-04-01T06:31:00Z</time>
      </trkpt>
      <trkpt lat="47.72775" lon="7.42359">
        <ele>240.467041</ele>
        <time>2012-04-01T06:31:05Z</time>
      </trkpt>
      <trkpt lat="47.72774" lon="7.42361">
        <ele>244.3122559</ele>
        <time>2012-04-01T06:31:09Z</time>
      </trkpt>
      <trkpt lat="47.72782" lon="7.42366">
        <ele>244.3122559</ele>
        <time>2012-04-01T06:31:15Z</time>
      </trkpt>
      <trkpt lat="47.72785" lon="7.42367">
        <ele>240.467041</ele>
        <time>2012-04-01T06:31:20Z</time>
      </trkpt>
      <trkpt lat="47.72786" lon="7.42368">
        <ele>237.1022949</ele>
        <time>2012-04-01T06:31:28Z</time>
      </trkpt>
      <trkpt lat="47.72788" lon="7.42369">
        <ele>235.6602783</ele>
        <time>2012-04-01T06:31:35Z</time>
      </trkpt>
      <trkpt lat="47.72789" lon="7.42371">
        <ele>232.7764893</ele>
        <time>2012-04-01T06:31:45Z</time>
      </trkpt>
      <trkpt lat="47.72789" lon="7.42372">
        <ele>232.7764893</ele>
        <time>2012-04-01T06:31:56Z</time>
      </trkpt>
      <trkpt lat="47.72789" lon="7.42371">
        <ele>232.7764893</ele>
        <time>2012-04-01T06:32:04Z</time>
      </trkpt>
      <trkpt lat="47.72788" lon="7.42369">
        <ele>235.6602783</ele>
        <time>2012-04-01T06:32:15Z</time>
      </trkpt>
      <trkpt lat="47.72789" lon="7.42369">
        <ele>239.5054932</ele>
        <time>2012-04-01T06:32:28Z</time>
      </trkpt>
      <trkpt lat="47.72789" lon="7.42371">
        <ele>239.5054932</ele>
        <time>2012-04-01T06:32:35Z</time>
      </trkpt>
      <trkpt lat="47.72789" lon="7.42371">
        <ele>238.0635986</ele>
        <time>2012-04-01T06:32:38Z</time>
      </trkpt>
      <trkpt lat="47.72788" lon="7.4237">
        <ele>236.1409912</ele>
        <time>2012-04-01T06:32:44Z</time>
      </trkpt>
      <trkpt lat="47.72788" lon="7.42371">
        <ele>236.1409912</ele>
        <time>2012-04-01T06:32:45Z</time>
      </trkpt>
      <trkpt lat="47.7279" lon="7.42372">
        <ele>236.1409912</ele>
        <time>2012-04-01T06:32:56Z</time>
      </trkpt>
      <trkpt lat="47.72792" lon="7.42372">
        <ele>235.1796875</ele>
        <time>2012-04-01T06:33:10Z</time>
      </trkpt>
      <trkpt lat="47.72791" lon="7.42369">
        <ele>231.8149414</ele>
        <time>2012-04-01T06:33:19Z</time>
      </trkpt>
      <trkpt lat="47.7279" lon="7.42372">
        <ele>228.4504395</ele>
        <time>2012-04-01T06:33:37Z</time>
      </trkpt>
      <trkpt lat="47.72789" lon="7.42371">
        <ele>233.2570801</ele>
        <time>2012-04-01T06:33:48Z</time>
      </trkpt>
      <trkpt lat="47.7279" lon="7.42374">
        <ele>238.5443115</ele>
        <time>2012-04-01T06:34:02Z</time>
      </trkpt>
      <trkpt lat="47.72791" lon="7.42374">
        <ele>243.831543</ele>
        <time>2012-04-01T06:34:11Z</time>
      </trkpt>
      <trkpt lat="47.7279" lon="7.42371">
        <ele>241.4282227</ele>
        <time>2012-04-01T06:34:46Z</time>
      </trkpt>
      <trkpt lat="47.72789" lon="7.42369">
        <ele>242.3896484</ele>
        <time>2012-04-01T06:34:51Z</time>
      </trkpt>
      <trkpt lat="47.72789" lon="7.42363">
        <ele>240.9476318</ele>
        <time>2012-04-01T06:35:10Z</time>
      </trkpt>
      <trkpt lat="47.7279" lon="7.42364">
        <ele>239.0249023</ele>
        <time>2012-04-01T06:35:21Z</time>
      </trkpt>
      <trkpt lat="47.7279" lon="7.42364">
        <ele>238.5443115</ele>
        <time>2012-04-01T06:35:34Z</time>
      </trkpt>
      <trkpt lat="47.7279" lon="7.42364">
        <ele>239.9862061</ele>
        <time>2012-04-01T06:35:39Z</time>
      </trkpt>
      <trkpt lat="47.72791" lon="7.42366">
        <ele>240.467041</ele>
        <time>2012-04-01T06:35:46Z</time>
      </trkpt>
      <trkpt lat="47.7279" lon="7.42363">
        <ele>240.9476318</ele>
        <time>2012-04-01T06:36:06Z</time>
      </trkpt>
      <trkpt lat="47.7279" lon="7.42367">
        <ele>239.0249023</ele>
        <time>2012-04-01T06:36:19Z</time>
      </trkpt>
      <trkpt lat="47.72792" lon="7.42371">
        <ele>237.5828857</ele>
        <time>2012-04-01T06:36:34Z</time>
      </trkpt>
      <trkpt lat="47.72792" lon="7.42371">
        <ele>237.5828857</ele>
        <time>2012-04-01T06:36:38Z</time>
      </trkpt>
      <trkpt lat="47.72793" lon="7.42375">
        <ele>241.9089355</ele>
        <time>2012-04-01T06:36:49Z</time>
      </trkpt>
      <trkpt lat="47.72793" lon="7.42373">
        <ele>242.8702393</ele>
        <time>2012-04-01T06:36:56Z</time>
      </trkpt>
      <trkpt lat="47.72795" lon="7.42373">
        <ele>246.2348633</ele>
        <time>2012-04-01T06:37:03Z</time>
      </trkpt>
      <trkpt lat="47.72798" lon="7.42376">
        <ele>246.2348633</ele>
        <time>2012-04-01T06:37:08Z</time>
      </trkpt>
      <trkpt lat="47.72798" lon="7.4238">
        <ele>245.7541504</ele>
        <time>2012-04-01T06:37:34Z</time>
      </trkpt>
      <trkpt lat="47.72799" lon="7.4238">
        <ele>245.2734375</ele>
        <time>2012-04-01T06:37:35Z</time>
      </trkpt>
      <trkpt lat="47.72804" lon="7.42371">
        <ele>244.3122559</ele>
        <time>2012-04-01T06:37:42Z</time>
      </trkpt>
      <trkpt lat="47.72799" lon="7.42369">
        <ele>244.3122559</ele>
        <time>2012-04-01T06:37:46Z</time>
      </trkpt>
      <trkpt lat="47.72801" lon="7.42373">
        <ele>244.7928467</ele>
        <time>2012-04-01T06:37:50Z</time>
      </trkpt>
      <trkpt lat="47.7281" lon="7.42369">
        <ele>243.3508301</ele>
        <time>2012-04-01T06:37:54Z</time>
      </trkpt>
      <trkpt lat="47.72816" lon="7.42369">
        <ele>242.8702393</ele>
        <time>2012-04-01T06:37:56Z</time>
      </trkpt>
      <trkpt lat="47.72822" lon="7.42371">
        <ele>242.8702393</ele>
        <time>2012-04-01T06:38:00Z</time>
      </trkpt>
      <trkpt lat="47.72823" lon="7.42371">
        <ele>242.8702393</ele>
        <time>2012-04-01T06:38:01Z</time>
      </trkpt>
      <trkpt lat="47.72827" lon="7.42367">
        <ele>243.3508301</ele>
        <time>2012-04-01T06:38:04Z</time>
      </trkpt>
      <trkpt lat="47.72828" lon="7.42355">
        <ele>243.3508301</ele>
        <time>2012-04-01T06:38:06Z</time>
      </trkpt>
      <trkpt lat="47.7283" lon="7.42324">
        <ele>242.3896484</ele>
        <time>2012-04-01T06:38:10Z</time>
      </trkpt>
      <trkpt lat="47.72832" lon="7.42286">
        <ele>241.4282227</ele>
        <time>2012-04-01T06:38:15Z</time>
      </trkpt>
      <trkpt lat="47.72833" lon="7.42244">
        <ele>241.4282227</ele>
        <time>2012-04-01T06:38:22Z</time>
      </trkpt>
      <trkpt lat="47.72834" lon="7.42206">
        <ele>240.9476318</ele>
        <time>2012-04-01T06:38:28Z</time>
      </trkpt>
      <trkpt lat="47.72837" lon="7.42153">
        <ele>238.5443115</ele>
        <time>2012-04-01T06:38:36Z</time>
      </trkpt>
      <trkpt lat="47.72838" lon="7.42146">
        <ele>239.0249023</ele>
        <time>2012-04-01T06:38:37Z</time>
      </trkpt>
      <trkpt lat="47.72843" lon="7.42088">
        <ele>237.1022949</ele>
        <time>2012-04-01T06:38:44Z</time>
      </trkpt>
      <trkpt lat="47.72845" lon="7.4208">
        <ele>236.6217041</ele>
        <time>2012-04-01T06:38:45Z</time>
      </trkpt>
      <trkpt lat="47.72853" lon="7.42023">
        <ele>234.6990967</ele>
        <time>2012-04-01T06:38:53Z</time>
      </trkpt>
      <trkpt lat="47.72862" lon="7.41958">
        <ele>233.7376709</ele>
        <time>2012-04-01T06:39:02Z</time>
      </trkpt>
      <trkpt lat="47.72864" lon="7.41907">
        <ele>234.2183838</ele>
        <time>2012-04-01T06:39:09Z</time>
      </trkpt>
      <trkpt lat="47.72865" lon="7.41892">
        <ele>234.2183838</ele>
        <time>2012-04-01T06:39:11Z</time>
      </trkpt>
      <trkpt lat="47.72869" lon="7.4187">
        <ele>233.7376709</ele>
        <time>2012-04-01T06:39:14Z</time>
      </trkpt>
      <trkpt lat="47.72876" lon="7.4182">
        <ele>235.1796875</ele>
        <time>2012-04-01T06:39:21Z</time>
      </trkpt>
      <trkpt lat="47.72877" lon="7.41805">
        <ele>235.6602783</ele>
        <time>2012-04-01T06:39:23Z</time>
      </trkpt>
      <trkpt lat="47.72879" lon="7.41766">
        <ele>235.6602783</ele>
        <time>2012-04-01T06:39:29Z</time>
      </trkpt>
      <trkpt lat="47.7288" lon="7.41745">
        <ele>235.6602783</ele>
        <time>2012-04-01T06:39:32Z</time>
      </trkpt>
      <trkpt lat="47.72882" lon="7.41723">
        <ele>234.6990967</ele>
        <time>2012-04-01T06:39:35Z</time>
      </trkpt>
      <trkpt lat="47.72882" lon="7.41696">
        <ele>233.2570801</ele>
        <time>2012-04-01T06:39:39Z</time>
      </trkpt>
      <trkpt lat="47.72888" lon="7.41666">
        <ele>231.8149414</ele>
        <time>2012-04-01T06:39:44Z</time>
      </trkpt>
      <trkpt lat="47.72903" lon="7.41661">
        <ele>232.7764893</ele>
        <time>2012-04-01T06:39:47Z</time>
      </trkpt>
      <trkpt lat="47.72927" lon="7.41642">
        <ele>236.1409912</ele>
        <time>2012-04-01T06:39:53Z</time>
      </trkpt>
      <trkpt lat="47.72928" lon="7.41621">
        <ele>234.6990967</ele>
        <time>2012-04-01T06:39:56Z</time>
      </trkpt>
      <trkpt lat="47.72925" lon="7.41599">
        <ele>233.7376709</ele>
        <time>2012-04-01T06:39:59Z</time>
      </trkpt>
      <trkpt lat="47.7293" lon="7.41578">
        <ele>232.7764893</ele>
        <time>2012-04-01T06:40:02Z</time>
      </trkpt>
      <trkpt lat="47.72933" lon="7.41566">
        <ele>232.7764893</ele>
        <time>2012-04-01T06:40:04Z</time>
      </trkpt>
      <trkpt lat="47.72943" lon="7.4153">
        <ele>231.8149414</ele>
        <time>2012-04-01T06:40:10Z</time>
      </trkpt>
      <trkpt lat="47.72947" lon="7.41511">
        <ele>231.3343506</ele>
        <time>2012-04-01T06:40:13Z</time>
      </trkpt>
      <trkpt lat="47.7296" lon="7.41444">
        <ele>231.3343506</ele>
        <time>2012-04-01T06:40:24Z</time>
      </trkpt>
      <trkpt lat="47.72966" lon="7.41402">
        <ele>231.8149414</ele>
        <time>2012-04-01T06:40:30Z</time>
      </trkpt>
      <trkpt lat="47.72964" lon="7.41337">
        <ele>231.3343506</ele>
        <time>2012-04-01T06:40:39Z</time>
      </trkpt>
      <trkpt lat="47.72962" lon="7.41289">
        <ele>232.2957764</ele>
        <time>2012-04-01T06:40:46Z</time>
      </trkpt>
      <trkpt lat="47.72961" lon="7.41244">
        <ele>232.2957764</ele>
        <time>2012-04-01T06:40:53Z</time>
      </trkpt>
      <trkpt lat="47.72961" lon="7.41219">
        <ele>233.2570801</ele>
        <time>2012-04-01T06:40:57Z</time>
      </trkpt>
      <trkpt lat="47.72953" lon="7.41175">
        <ele>234.6990967</ele>
        <time>2012-04-01T06:41:05Z</time>
      </trkpt>
      <trkpt lat="47.72945" lon="7.41133">
        <ele>235.6602783</ele>
        <time>2012-04-01T06:41:13Z</time>
      </trkpt>
      <trkpt lat="47.72938" lon="7.41112">
        <ele>236.6217041</ele>
        <time>2012-04-01T06:41:18Z</time>
      </trkpt>
      <trkpt lat="47.72928" lon="7.41071">
        <ele>238.5443115</ele>
        <time>2012-04-01T06:41:26Z</time>
      </trkpt>
      <trkpt lat="47.72925" lon="7.41029">
        <ele>241.9089355</ele>
        <time>2012-04-01T06:41:33Z</time>
      </trkpt>
      <trkpt lat="47.72925" lon="7.41017">
        <ele>243.831543</ele>
        <time>2012-04-01T06:41:35Z</time>
      </trkpt>
      <trkpt lat="47.72935" lon="7.41002">
        <ele>246.2348633</ele>
        <time>2012-04-01T06:41:39Z</time>
      </trkpt>
      <trkpt lat="47.72938" lon="7.41001">
        <ele>246.7154541</ele>
        <time>2012-04-01T06:41:40Z</time>
      </trkpt>
      <trkpt lat="47.7296" lon="7.41">
        <ele>252.0028076</ele>
        <time>2012-04-01T06:41:46Z</time>
      </trkpt>
      <trkpt lat="47.72982" lon="7.40999">
        <ele>257.770752</ele>
        <time>2012-04-01T06:41:52Z</time>
      </trkpt>
      <trkpt lat="47.73001" lon="7.41002">
        <ele>264.0192871</ele>
        <time>2012-04-01T06:41:58Z</time>
      </trkpt>
      <trkpt lat="47.73009" lon="7.41004">
        <ele>266.4224854</ele>
        <time>2012-04-01T06:42:03Z</time>
      </trkpt>
      <trkpt lat="47.73029" lon="7.41007">
        <ele>268.3450928</ele>
        <time>2012-04-01T06:42:10Z</time>
      </trkpt>
      <trkpt lat="47.73047" lon="7.41005">
        <ele>269.7871094</ele>
        <time>2012-04-01T06:42:16Z</time>
      </trkpt>
      <trkpt lat="47.73065" lon="7.40998">
        <ele>269.7871094</ele>
        <time>2012-04-01T06:42:22Z</time>
      </trkpt>
      <trkpt lat="47.73084" lon="7.40985">
        <ele>270.2677002</ele>
        <time>2012-04-01T06:42:29Z</time>
      </trkpt>
      <trkpt lat="47.7311" lon="7.40971">
        <ele>270.2677002</ele>
        <time>2012-04-01T06:42:38Z</time>
      </trkpt>
      <trkpt lat="47.73137" lon="7.40959">
        <ele>271.229126</ele>
        <time>2012-04-01T06:42:47Z</time>
      </trkpt>
      <trkpt lat="47.73158" lon="7.40952">
        <ele>271.7097168</ele>
        <time>2012-04-01T06:42:54Z</time>
      </trkpt>
      <trkpt lat="47.73174" lon="7.40949">
        <ele>270.7484131</ele>
        <time>2012-04-01T06:43:00Z</time>
      </trkpt>
      <trkpt lat="47.73198" lon="7.40943">
        <ele>271.229126</ele>
        <time>2012-04-01T06:43:08Z</time>
      </trkpt>
      <trkpt lat="47.73215" lon="7.40942">
        <ele>271.229126</ele>
        <time>2012-04-01T06:43:14Z</time>
      </trkpt>
      <trkpt lat="47.73228" lon="7.40928">
        <ele>271.229126</ele>
        <time>2012-04-01T06:43:19Z</time>
      </trkpt>
      <trkpt lat="47.73248" lon="7.40905">
        <ele>274.1130371</ele>
        <time>2012-04-01T06:43:27Z</time>
      </trkpt>
      <trkpt lat="47.73265" lon="7.40891">
        <ele>278.4389648</ele>
        <time>2012-04-01T06:43:33Z</time>
      </trkpt>
      <trkpt lat="47.73283" lon="7.40885">
        <ele>281.322998</ele>
        <time>2012-04-01T06:43:39Z</time>
      </trkpt>
      <trkpt lat="47.73302" lon="7.40887">
        <ele>284.2069092</ele>
        <time>2012-04-01T06:43:45Z</time>
      </trkpt>
      <trkpt lat="47.73324" lon="7.40892">
        <ele>287.5714111</ele>
        <time>2012-04-01T06:43:52Z</time>
      </trkpt>
      <trkpt lat="47.73347" lon="7.40892">
        <ele>290.4555664</ele>
        <time>2012-04-01T06:43:59Z</time>
      </trkpt>
      <trkpt lat="47.73373" lon="7.40892">
        <ele>292.8587646</ele>
        <time>2012-04-01T06:44:08Z</time>
      </trkpt>
      <trkpt lat="47.73385" lon="7.40894">
        <ele>291.8974609</ele>
        <time>2012-04-01T06:44:15Z</time>
      </trkpt>
      <trkpt lat="47.73395" lon="7.40898">
        <ele>289.0135498</ele>
        <time>2012-04-01T06:44:22Z</time>
      </trkpt>
      <trkpt lat="47.73402" lon="7.40901">
        <ele>287.0908203</ele>
        <time>2012-04-01T06:44:28Z</time>
      </trkpt>
      <trkpt lat="47.73404" lon="7.40901">
        <ele>287.5714111</ele>
        <time>2012-04-01T06:44:36Z</time>
      </trkpt>
      <trkpt lat="47.73405" lon="7.409">
        <ele>289.0135498</ele>
        <time>2012-04-01T06:44:46Z</time>
      </trkpt>
      <trkpt lat="47.73406" lon="7.409">
        <ele>287.5714111</ele>
        <time>2012-04-01T06:44:55Z</time>
      </trkpt>
      <trkpt lat="47.7342" lon="7.40909">
        <ele>285.6488037</ele>
        <time>2012-04-01T06:45:01Z</time>
      </trkpt>
      <trkpt lat="47.73441" lon="7.40935">
        <ele>285.6488037</ele>
        <time>2012-04-01T06:45:09Z</time>
      </trkpt>
      <trkpt lat="47.73464" lon="7.40967">
        <ele>288.532959</ele>
        <time>2012-04-01T06:45:17Z</time>
      </trkpt>
      <trkpt lat="47.73472" lon="7.40973">
        <ele>289.9748535</ele>
        <time>2012-04-01T06:45:19Z</time>
      </trkpt>
      <trkpt lat="47.73501" lon="7.40993">
        <ele>295.2619629</ele>
        <time>2012-04-01T06:45:27Z</time>
      </trkpt>
      <trkpt lat="47.73523" lon="7.41014">
        <ele>298.626709</ele>
        <time>2012-04-01T06:45:35Z</time>
      </trkpt>
      <trkpt lat="47.73536" lon="7.41024">
        <ele>298.626709</ele>
        <time>2012-04-01T06:45:41Z</time>
      </trkpt>
      <trkpt lat="47.73557" lon="7.41036">
        <ele>300.0687256</ele>
        <time>2012-04-01T06:45:49Z</time>
      </trkpt>
      <trkpt lat="47.73583" lon="7.41043">
        <ele>297.1846924</ele>
        <time>2012-04-01T06:45:57Z</time>
      </trkpt>
      <trkpt lat="47.73606" lon="7.41052">
        <ele>293.8200684</ele>
        <time>2012-04-01T06:46:03Z</time>
      </trkpt>
      <trkpt lat="47.73622" lon="7.4107">
        <ele>293.8200684</ele>
        <time>2012-04-01T06:46:08Z</time>
      </trkpt>
      <trkpt lat="47.73625" lon="7.41075">
        <ele>294.3007812</ele>
        <time>2012-04-01T06:46:09Z</time>
      </trkpt>
      <trkpt lat="47.73655" lon="7.4111">
        <ele>295.7426758</ele>
        <time>2012-04-01T06:46:17Z</time>
      </trkpt>
      <trkpt lat="47.73667" lon="7.41126">
        <ele>295.2619629</ele>
        <time>2012-04-01T06:46:20Z</time>
      </trkpt>
      <trkpt lat="47.73687" lon="7.41164">
        <ele>291.8974609</ele>
        <time>2012-04-01T06:46:27Z</time>
      </trkpt>
      <trkpt lat="47.73706" lon="7.41204">
        <ele>291.416748</ele>
        <time>2012-04-01T06:46:33Z</time>
      </trkpt>
      <trkpt lat="47.73711" lon="7.4123">
        <ele>290.9361572</ele>
        <time>2012-04-01T06:46:37Z</time>
      </trkpt>
      <trkpt lat="47.73715" lon="7.41254">
        <ele>293.3393555</ele>
        <time>2012-04-01T06:46:41Z</time>
      </trkpt>
      <trkpt lat="47.73724" lon="7.41267">
        <ele>296.2235107</ele>
        <time>2012-04-01T06:46:45Z</time>
      </trkpt>
      <trkpt lat="47.73733" lon="7.41274">
        <ele>299.1072998</ele>
        <time>2012-04-01T06:46:51Z</time>
      </trkpt>
      <trkpt lat="47.73742" lon="7.41285">
        <ele>299.1072998</ele>
        <time>2012-04-01T06:46:55Z</time>
      </trkpt>
      <trkpt lat="47.73749" lon="7.41283">
        <ele>299.1072998</ele>
        <time>2012-04-01T06:47:00Z</time>
      </trkpt>
      <trkpt lat="47.73753" lon="7.41275">
        <ele>297.1846924</ele>
        <time>2012-04-01T06:47:03Z</time>
      </trkpt>
      <trkpt lat="47.73759" lon="7.41279">
        <ele>294.7813721</ele>
        <time>2012-04-01T06:47:07Z</time>
      </trkpt>
      <trkpt lat="47.7376" lon="7.4128">
        <ele>294.3007812</ele>
        <time>2012-04-01T06:47:08Z</time>
      </trkpt>
      <trkpt lat="47.73765" lon="7.41289">
        <ele>290.9361572</ele>
        <time>2012-04-01T06:47:13Z</time>
      </trkpt>
      <trkpt lat="47.73776" lon="7.41298">
        <ele>288.0522461</ele>
        <time>2012-04-01T06:47:18Z</time>
      </trkpt>
      <trkpt lat="47.73797" lon="7.41324">
        <ele>284.6876221</ele>
        <time>2012-04-01T06:47:23Z</time>
      </trkpt>
      <trkpt lat="47.73802" lon="7.41329">
        <ele>284.2069092</ele>
        <time>2012-04-01T06:47:25Z</time>
      </trkpt>
      <trkpt lat="47.73811" lon="7.41339">
        <ele>284.2069092</ele>
        <time>2012-04-01T06:47:28Z</time>
      </trkpt>
      <trkpt lat="47.7383" lon="7.41364">
        <ele>281.322998</ele>
        <time>2012-04-01T06:47:33Z</time>
      </trkpt>
      <trkpt lat="47.73844" lon="7.41379">
        <ele>279.4002686</ele>
        <time>2012-04-01T06:47:37Z</time>
      </trkpt>
      <trkpt lat="47.73858" lon="7.41388">
        <ele>278.9196777</ele>
        <time>2012-04-01T06:47:42Z</time>
      </trkpt>
      <trkpt lat="47.73864" lon="7.41385">
        <ele>276.9970703</ele>
        <time>2012-04-01T06:47:44Z</time>
      </trkpt>
      <trkpt lat="47.73878" lon="7.41382">
        <ele>275.5550537</ele>
        <time>2012-04-01T06:47:47Z</time>
      </trkpt>
      <trkpt lat="47.73894" lon="7.41373">
        <ele>272.1904297</ele>
        <time>2012-04-01T06:47:51Z</time>
      </trkpt>
      <trkpt lat="47.739" lon="7.41362">
        <ele>269.7871094</ele>
        <time>2012-04-01T06:47:56Z</time>
      </trkpt>
      <trkpt lat="47.73908" lon="7.41356">
        <ele>268.3450928</ele>
        <time>2012-04-01T06:47:59Z</time>
      </trkpt>
      <trkpt lat="47.73912" lon="7.41348">
        <ele>266.4224854</ele>
        <time>2012-04-01T06:48:02Z</time>
      </trkpt>
      <trkpt lat="47.73912" lon="7.4134">
        <ele>264.4998779</ele>
        <time>2012-04-01T06:48:07Z</time>
      </trkpt>
      <trkpt lat="47.73915" lon="7.41336">
        <ele>267.3839111</ele>
        <time>2012-04-01T06:48:17Z</time>
      </trkpt>
      <trkpt lat="47.73916" lon="7.41336">
        <ele>270.7484131</ele>
        <time>2012-04-01T06:48:23Z</time>
      </trkpt>
      <trkpt lat="47.73918" lon="7.41334">
        <ele>273.6324463</ele>
        <time>2012-04-01T06:48:28Z</time>
      </trkpt>
      <trkpt lat="47.7392" lon="7.41333">
        <ele>277.958252</ele>
        <time>2012-04-01T06:48:44Z</time>
      </trkpt>
      <trkpt lat="47.73919" lon="7.41328">
        <ele>279.4002686</ele>
        <time>2012-04-01T06:48:47Z</time>
      </trkpt>
      <trkpt lat="47.73905" lon="7.41319">
        <ele>277.4776611</ele>
        <time>2012-04-01T06:48:54Z</time>
      </trkpt>
      <trkpt lat="47.73899" lon="7.41309">
        <ele>276.5163574</ele>
        <time>2012-04-01T06:48:58Z</time>
      </trkpt>
      <trkpt lat="47.73896" lon="7.41304">
        <ele>275.5550537</ele>
        <time>2012-04-01T06:49:00Z</time>
      </trkpt>
      <trkpt lat="47.73886" lon="7.4129">
        <ele>272.1904297</ele>
        <time>2012-04-01T06:49:07Z</time>
      </trkpt>
      <trkpt lat="47.73876" lon="7.41276">
        <ele>272.1904297</ele>
        <time>2012-04-01T06:49:13Z</time>
      </trkpt>
      <trkpt lat="47.7387" lon="7.41269">
        <ele>273.1518555</ele>
        <time>2012-04-01T06:49:17Z</time>
      </trkpt>
      <trkpt lat="47.73866" lon="7.41264">
        <ele>274.1130371</ele>
        <time>2012-04-01T06:49:19Z</time>
      </trkpt>
      <trkpt lat="47.73853" lon="7.41246">
        <ele>276.0356445</ele>
        <time>2012-04-01T06:49:27Z</time>
      </trkpt>
      <trkpt lat="47.73843" lon="7.41228">
        <ele>277.4776611</ele>
        <time>2012-04-01T06:49:34Z</time>
      </trkpt>
      <trkpt lat="47.73834" lon="7.41211">
        <ele>278.9196777</ele>
        <time>2012-04-01T06:49:41Z</time>
      </trkpt>
      <trkpt lat="47.73833" lon="7.41201">
        <ele>279.8808594</ele>
        <time>2012-04-01T06:49:45Z</time>
      </trkpt>
      <trkpt lat="47.73848" lon="7.41183">
        <ele>280.3616943</ele>
        <time>2012-04-01T06:49:52Z</time>
      </trkpt>
      <trkpt lat="47.73873" lon="7.41157">
        <ele>280.8424072</ele>
        <time>2012-04-01T06:50:03Z</time>
      </trkpt>
      <trkpt lat="47.73889" lon="7.41143">
        <ele>281.8035889</ele>
        <time>2012-04-01T06:50:10Z</time>
      </trkpt>
      <trkpt lat="47.73905" lon="7.4113">
        <ele>281.8035889</ele>
        <time>2012-04-01T06:50:17Z</time>
      </trkpt>
      <trkpt lat="47.73917" lon="7.41121">
        <ele>281.8035889</ele>
        <time>2012-04-01T06:50:24Z</time>
      </trkpt>
      <trkpt lat="47.73929" lon="7.41114">
        <ele>281.8035889</ele>
        <time>2012-04-01T06:50:31Z</time>
      </trkpt>
      <trkpt lat="47.73946" lon="7.41103">
        <ele>280.8424072</ele>
        <time>2012-04-01T06:50:39Z</time>
      </trkpt>
      <trkpt lat="47.73957" lon="7.41095">
        <ele>280.8424072</ele>
        <time>2012-04-01T06:50:45Z</time>
      </trkpt>
      <trkpt lat="47.73969" lon="7.41087">
        <ele>279.4002686</ele>
        <time>2012-04-01T06:50:51Z</time>
      </trkpt>
      <trkpt lat="47.7398" lon="7.4108">
        <ele>278.4389648</ele>
        <time>2012-04-01T06:50:58Z</time>
      </trkpt>
      <trkpt lat="47.73993" lon="7.41073">
        <ele>276.9970703</ele>
        <time>2012-04-01T06:51:04Z</time>
      </trkpt>
      <trkpt lat="47.7401" lon="7.41063">
        <ele>275.5550537</ele>
        <time>2012-04-01T06:51:08Z</time>
      </trkpt>
      <trkpt lat="47.74012" lon="7.41062">
        <ele>275.5550537</ele>
        <time>2012-04-01T06:51:09Z</time>
      </trkpt>
      <trkpt lat="47.74019" lon="7.41067">
        <ele>275.0744629</ele>
        <time>2012-04-01T06:51:13Z</time>
      </trkpt>
      <trkpt lat="47.74024" lon="7.41089">
        <ele>277.4776611</ele>
        <time>2012-04-01T06:51:19Z</time>
      </trkpt>
      <trkpt lat="47.74032" lon="7.41121">
        <ele>278.9196777</ele>
        <time>2012-04-01T06:51:25Z</time>
      </trkpt>
      <trkpt lat="47.74045" lon="7.41175">
        <ele>278.9196777</ele>
        <time>2012-04-01T06:51:33Z</time>
      </trkpt>
      <trkpt lat="47.74054" lon="7.4122">
        <ele>277.4776611</ele>
        <time>2012-04-01T06:51:39Z</time>
      </trkpt>
      <trkpt lat="47.74064" lon="7.41233">
        <ele>277.4776611</ele>
        <time>2012-04-01T06:51:43Z</time>
      </trkpt>
      <trkpt lat="47.74077" lon="7.41225">
        <ele>276.5163574</ele>
        <time>2012-04-01T06:51:46Z</time>
      </trkpt>
      <trkpt lat="47.74082" lon="7.41222">
        <ele>275.0744629</ele>
        <time>2012-04-01T06:51:47Z</time>
      </trkpt>
      <trkpt lat="47.741" lon="7.41208">
        <ele>270.7484131</ele>
        <time>2012-04-01T06:51:50Z</time>
      </trkpt>
      <trkpt lat="47.74144" lon="7.41188">
        <ele>264.9805908</ele>
        <time>2012-04-01T06:51:56Z</time>
      </trkpt>
      <trkpt lat="47.74179" lon="7.41178">
        <ele>261.1352539</ele>
        <time>2012-04-01T06:52:00Z</time>
      </trkpt>
      <trkpt lat="47.74211" lon="7.41171">
        <ele>257.770752</ele>
        <time>2012-04-01T06:52:04Z</time>
      </trkpt>
      <trkpt lat="47.74225" lon="7.41166">
        <ele>255.8480225</ele>
        <time>2012-04-01T06:52:06Z</time>
      </trkpt>
      <trkpt lat="47.74253" lon="7.41158">
        <ele>252.9639893</ele>
        <time>2012-04-01T06:52:11Z</time>
      </trkpt>
      <trkpt lat="47.74261" lon="7.41142">
        <ele>254.8865967</ele>
        <time>2012-04-01T06:52:13Z</time>
      </trkpt>
      <trkpt lat="47.7428" lon="7.41089">
        <ele>252.4833984</ele>
        <time>2012-04-01T06:52:19Z</time>
      </trkpt>
      <trkpt lat="47.74287" lon="7.41064">
        <ele>252.4833984</ele>
        <time>2012-04-01T06:52:22Z</time>
      </trkpt>
      <trkpt lat="47.74299" lon="7.41021">
        <ele>253.925415</ele>
        <time>2012-04-01T06:52:28Z</time>
      </trkpt>
      <trkpt lat="47.74306" lon="7.40989">
        <ele>254.4060059</ele>
        <time>2012-04-01T06:52:33Z</time>
      </trkpt>
      <trkpt lat="47.74311" lon="7.40967">
        <ele>252.9639893</ele>
        <time>2012-04-01T06:52:37Z</time>
      </trkpt>
      <trkpt lat="47.74318" lon="7.40937">
        <ele>251.5220947</ele>
        <time>2012-04-01T06:52:42Z</time>
      </trkpt>
      <trkpt lat="47.74327" lon="7.40901">
        <ele>246.7154541</ele>
        <time>2012-04-01T06:52:47Z</time>
      </trkpt>
      <trkpt lat="47.74342" lon="7.4085">
        <ele>243.831543</ele>
        <time>2012-04-01T06:52:53Z</time>
      </trkpt>
      <trkpt lat="47.74361" lon="7.4079">
        <ele>240.467041</ele>
        <time>2012-04-01T06:52:59Z</time>
      </trkpt>
      <trkpt lat="47.74379" lon="7.40733">
        <ele>238.5443115</ele>
        <time>2012-04-01T06:53:04Z</time>
      </trkpt>
      <trkpt lat="47.74382" lon="7.40703">
        <ele>236.6217041</ele>
        <time>2012-04-01T06:53:07Z</time>
      </trkpt>
      <trkpt lat="47.74375" lon="7.40686">
        <ele>238.0635986</ele>
        <time>2012-04-01T06:53:11Z</time>
      </trkpt>
      <trkpt lat="47.74375" lon="7.40676">
        <ele>237.5828857</ele>
        <time>2012-04-01T06:53:14Z</time>
      </trkpt>
      <trkpt lat="47.74375" lon="7.40663">
        <ele>238.0635986</ele>
        <time>2012-04-01T06:53:17Z</time>
      </trkpt>
      <trkpt lat="47.74374" lon="7.40628">
        <ele>238.5443115</ele>
        <time>2012-04-01T06:53:24Z</time>
      </trkpt>
      <trkpt lat="47.74371" lon="7.40614">
        <ele>237.1022949</ele>
        <time>2012-04-01T06:53:28Z</time>
      </trkpt>
      <trkpt lat="47.74368" lon="7.40584">
        <ele>239.0249023</ele>
        <time>2012-04-01T06:53:35Z</time>
      </trkpt>
      <trkpt lat="47.74365" lon="7.40567">
        <ele>241.4282227</ele>
        <time>2012-04-01T06:53:39Z</time>
      </trkpt>
      <trkpt lat="47.74364" lon="7.4056">
        <ele>242.3896484</ele>
        <time>2012-04-01T06:53:41Z</time>
      </trkpt>
      <trkpt lat="47.7436" lon="7.40546">
        <ele>244.7928467</ele>
        <time>2012-04-01T06:53:46Z</time>
      </trkpt>
      <trkpt lat="47.74356" lon="7.40529">
        <ele>246.7154541</ele>
        <time>2012-04-01T06:53:51Z</time>
      </trkpt>
      <trkpt lat="47.74342" lon="7.40525">
        <ele>252.9639893</ele>
        <time>2012-04-01T06:53:56Z</time>
      </trkpt>
      <trkpt lat="47.74326" lon="7.40522">
        <ele>254.8865967</ele>
        <time>2012-04-01T06:54:02Z</time>
      </trkpt>
      <trkpt lat="47.74314" lon="7.40517">
        <ele>255.3673096</ele>
        <time>2012-04-01T06:54:07Z</time>
      </trkpt>
      <trkpt lat="47.74299" lon="7.40512">
        <ele>255.8480225</ele>
        <time>2012-04-01T06:54:13Z</time>
      </trkpt>
      <trkpt lat="47.74289" lon="7.4051">
        <ele>255.8480225</ele>
        <time>2012-04-01T06:54:18Z</time>
      </trkpt>
      <trkpt lat="47.7428" lon="7.40507">
        <ele>256.3287354</ele>
        <time>2012-04-01T06:54:22Z</time>
      </trkpt>
      <trkpt lat="47.7426" lon="7.40501">
        <ele>256.8093262</ele>
        <time>2012-04-01T06:54:30Z</time>
      </trkpt>
      <trkpt lat="47.74252" lon="7.40492">
        <ele>255.8480225</ele>
        <time>2012-04-01T06:54:35Z</time>
      </trkpt>
      <trkpt lat="47.74254" lon="7.40478">
        <ele>256.3287354</ele>
        <time>2012-04-01T06:54:40Z</time>
      </trkpt>
      <trkpt lat="47.74261" lon="7.40471">
        <ele>257.2900391</ele>
        <time>2012-04-01T06:54:43Z</time>
      </trkpt>
      <trkpt lat="47.74275" lon="7.40467">
        <ele>257.770752</ele>
        <time>2012-04-01T06:54:48Z</time>
      </trkpt>
      <trkpt lat="47.7428" lon="7.40464">
        <ele>258.2513428</ele>
        <time>2012-04-01T06:54:50Z</time>
      </trkpt>
      <trkpt lat="47.74283" lon="7.40451">
        <ele>260.654541</ele>
        <time>2012-04-01T06:54:54Z</time>
      </trkpt>
      <trkpt lat="47.74276" lon="7.40428">
        <ele>260.1739502</ele>
        <time>2012-04-01T06:55:01Z</time>
      </trkpt>
      <trkpt lat="47.74274" lon="7.40404">
        <ele>261.6159668</ele>
        <time>2012-04-01T06:55:07Z</time>
      </trkpt>
      <trkpt lat="47.74274" lon="7.40387">
        <ele>260.1739502</ele>
        <time>2012-04-01T06:55:11Z</time>
      </trkpt>
      <trkpt lat="47.74273" lon="7.40362">
        <ele>257.770752</ele>
        <time>2012-04-01T06:55:19Z</time>
      </trkpt>
      <trkpt lat="47.7427" lon="7.40343">
        <ele>257.2900391</ele>
        <time>2012-04-01T06:55:25Z</time>
      </trkpt>
      <trkpt lat="47.74269" lon="7.40338">
        <ele>257.770752</ele>
        <time>2012-04-01T06:55:26Z</time>
      </trkpt>
      <trkpt lat="47.74266" lon="7.40323">
        <ele>257.2900391</ele>
        <time>2012-04-01T06:55:30Z</time>
      </trkpt>
      <trkpt lat="47.74262" lon="7.40304">
        <ele>258.2513428</ele>
        <time>2012-04-01T06:55:35Z</time>
      </trkpt>
      <trkpt lat="47.7426" lon="7.40294">
        <ele>259.6933594</ele>
        <time>2012-04-01T06:55:37Z</time>
      </trkpt>
      <trkpt lat="47.74251" lon="7.40256">
        <ele>260.1739502</ele>
        <time>2012-04-01T06:55:45Z</time>
      </trkpt>
      <trkpt lat="47.74249" lon="7.40251">
        <ele>261.1352539</ele>
        <time>2012-04-01T06:55:46Z</time>
      </trkpt>
      <trkpt lat="47.74238" lon="7.40249">
        <ele>263.5385742</ele>
        <time>2012-04-01T06:55:50Z</time>
      </trkpt>
      <trkpt lat="47.74209" lon="7.40261">
        <ele>269.3065186</ele>
        <time>2012-04-01T06:55:58Z</time>
      </trkpt>
      <trkpt lat="47.74179" lon="7.40276">
        <ele>271.7097168</ele>
        <time>2012-04-01T06:56:07Z</time>
      </trkpt>
      <trkpt lat="47.74173" lon="7.40278">
        <ele>271.7097168</ele>
        <time>2012-04-01T06:56:09Z</time>
      </trkpt>
      <trkpt lat="47.74166" lon="7.40268">
        <ele>271.7097168</ele>
        <time>2012-04-01T06:56:13Z</time>
      </trkpt>
      <trkpt lat="47.74163" lon="7.40257">
        <ele>271.229126</ele>
        <time>2012-04-01T06:56:19Z</time>
      </trkpt>
      <trkpt lat="47.74159" lon="7.40245">
        <ele>269.3065186</ele>
        <time>2012-04-01T06:56:26Z</time>
      </trkpt>
      <trkpt lat="47.74156" lon="7.40223">
        <ele>268.8258057</ele>
        <time>2012-04-01T06:56:31Z</time>
      </trkpt>
      <trkpt lat="47.7415" lon="7.40191">
        <ele>267.3839111</ele>
        <time>2012-04-01T06:56:36Z</time>
      </trkpt>
      <trkpt lat="47.74139" lon="7.40133">
        <ele>266.4224854</ele>
        <time>2012-04-01T06:56:44Z</time>
      </trkpt>
      <trkpt lat="47.74133" lon="7.40103">
        <ele>265.4613037</ele>
        <time>2012-04-01T06:56:48Z</time>
      </trkpt>
      <trkpt lat="47.74116" lon="7.40094">
        <ele>266.9031982</ele>
        <time>2012-04-01T06:56:53Z</time>
      </trkpt>
      <trkpt lat="47.74111" lon="7.40098">
        <ele>267.864502</ele>
        <time>2012-04-01T06:56:54Z</time>
      </trkpt>
      <trkpt lat="47.74079" lon="7.40124">
        <ele>271.7097168</ele>
        <time>2012-04-01T06:57:01Z</time>
      </trkpt>
      <trkpt lat="47.74064" lon="7.40136">
        <ele>271.7097168</ele>
        <time>2012-04-01T06:57:05Z</time>
      </trkpt>
      <trkpt lat="47.74049" lon="7.40133">
        <ele>269.7871094</ele>
        <time>2012-04-01T06:57:09Z</time>
      </trkpt>
      <trkpt lat="47.74047" lon="7.40127">
        <ele>269.3065186</ele>
        <time>2012-04-01T06:57:10Z</time>
      </trkpt>
      <trkpt lat="47.7403" lon="7.40089">
        <ele>267.864502</ele>
        <time>2012-04-01T06:57:18Z</time>
      </trkpt>
      <trkpt lat="47.74025" lon="7.40081">
        <ele>267.864502</ele>
        <time>2012-04-01T06:57:20Z</time>
      </trkpt>
      <trkpt lat="47.74014" lon="7.40086">
        <ele>268.8258057</ele>
        <time>2012-04-01T06:57:24Z</time>
      </trkpt>
      <trkpt lat="47.74001" lon="7.401">
        <ele>269.3065186</ele>
        <time>2012-04-01T06:57:28Z</time>
      </trkpt>
      <trkpt lat="47.73982" lon="7.40104">
        <ele>268.3450928</ele>
        <time>2012-04-01T06:57:32Z</time>
      </trkpt>
      <trkpt lat="47.73972" lon="7.40101">
        <ele>268.3450928</ele>
        <time>2012-04-01T06:57:34Z</time>
      </trkpt>
      <trkpt lat="47.73937" lon="7.40077">
        <ele>268.3450928</ele>
        <time>2012-04-01T06:57:42Z</time>
      </trkpt>
      <trkpt lat="47.73909" lon="7.40048">
        <ele>267.864502</ele>
        <time>2012-04-01T06:57:49Z</time>
      </trkpt>
      <trkpt lat="47.73885" lon="7.40018">
        <ele>266.9031982</ele>
        <time>2012-04-01T06:57:55Z</time>
      </trkpt>
      <trkpt lat="47.73857" lon="7.39971">
        <ele>267.3839111</ele>
        <time>2012-04-01T06:58:03Z</time>
      </trkpt>
      <trkpt lat="47.73829" lon="7.39925">
        <ele>268.3450928</ele>
        <time>2012-04-01T06:58:11Z</time>
      </trkpt>
      <trkpt lat="47.73812" lon="7.39897">
        <ele>270.2677002</ele>
        <time>2012-04-01T06:58:16Z</time>
      </trkpt>
      <trkpt lat="47.73805" lon="7.39887">
        <ele>270.7484131</ele>
        <time>2012-04-01T06:58:18Z</time>
      </trkpt>
      <trkpt lat="47.73779" lon="7.39857">
        <ele>271.229126</ele>
        <time>2012-04-01T06:58:25Z</time>
      </trkpt>
      <trkpt lat="47.73749" lon="7.39827">
        <ele>272.1904297</ele>
        <time>2012-04-01T06:58:32Z</time>
      </trkpt>
      <trkpt lat="47.73744" lon="7.39823">
        <ele>272.1904297</ele>
        <time>2012-04-01T06:58:33Z</time>
      </trkpt>
      <trkpt lat="47.73733" lon="7.39798">
        <ele>271.229126</ele>
        <time>2012-04-01T06:58:38Z</time>
      </trkpt>
      <trkpt lat="47.7372" lon="7.39754">
        <ele>270.2677002</ele>
        <time>2012-04-01T06:58:46Z</time>
      </trkpt>
      <trkpt lat="47.73715" lon="7.39732">
        <ele>269.7871094</ele>
        <time>2012-04-01T06:58:51Z</time>
      </trkpt>
      <trkpt lat="47.73721" lon="7.39718">
        <ele>269.7871094</ele>
        <time>2012-04-01T06:58:55Z</time>
      </trkpt>
      <trkpt lat="47.73732" lon="7.39704">
        <ele>270.2677002</ele>
        <time>2012-04-01T06:59:01Z</time>
      </trkpt>
      <trkpt lat="47.73747" lon="7.3969">
        <ele>269.7871094</ele>
        <time>2012-04-01T06:59:08Z</time>
      </trkpt>
      <trkpt lat="47.73759" lon="7.39682">
        <ele>270.2677002</ele>
        <time>2012-04-01T06:59:14Z</time>
      </trkpt>
      <trkpt lat="47.7377" lon="7.39674">
        <ele>270.7484131</ele>
        <time>2012-04-01T06:59:21Z</time>
      </trkpt>
      <trkpt lat="47.73783" lon="7.39664">
        <ele>269.7871094</ele>
        <time>2012-04-01T06:59:27Z</time>
      </trkpt>
      <trkpt lat="47.73793" lon="7.39649">
        <ele>268.3450928</ele>
        <time>2012-04-01T06:59:32Z</time>
      </trkpt>
      <trkpt lat="47.738" lon="7.3964">
        <ele>268.8258057</ele>
        <time>2012-04-01T06:59:35Z</time>
      </trkpt>
      <trkpt lat="47.73794" lon="7.39629">
        <ele>269.7871094</ele>
        <time>2012-04-01T06:59:39Z</time>
      </trkpt>
      <trkpt lat="47.73789" lon="7.39613">
        <ele>268.3450928</ele>
        <time>2012-04-01T06:59:43Z</time>
      </trkpt>
      <trkpt lat="47.73793" lon="7.39603">
        <ele>267.3839111</ele>
        <time>2012-04-01T06:59:45Z</time>
      </trkpt>
      <trkpt lat="47.7381" lon="7.39565">
        <ele>264.4998779</ele>
        <time>2012-04-01T06:59:50Z</time>
      </trkpt>
      <trkpt lat="47.73806" lon="7.39528">
        <ele>265.9418945</ele>
        <time>2012-04-01T06:59:54Z</time>
      </trkpt>
      <trkpt lat="47.7379" lon="7.39513">
        <ele>262.5771484</ele>
        <time>2012-04-01T06:59:57Z</time>
      </trkpt>
      <trkpt lat="47.7378" lon="7.39504">
        <ele>260.1739502</ele>
        <time>2012-04-01T06:59:59Z</time>
      </trkpt>
      <trkpt lat="47.73752" lon="7.39493">
        <ele>260.1739502</ele>
        <time>2012-04-01T07:00:04Z</time>
      </trkpt>
      <trkpt lat="47.73728" lon="7.39472">
        <ele>261.6159668</ele>
        <time>2012-04-01T07:00:10Z</time>
      </trkpt>
      <trkpt lat="47.7372" lon="7.39467">
        <ele>262.0965576</ele>
        <time>2012-04-01T07:00:12Z</time>
      </trkpt>
      <trkpt lat="47.73705" lon="7.39456">
        <ele>263.0578613</ele>
        <time>2012-04-01T07:00:16Z</time>
      </trkpt>
      <trkpt lat="47.73677" lon="7.39432">
        <ele>260.1739502</ele>
        <time>2012-04-01T07:00:25Z</time>
      </trkpt>
      <trkpt lat="47.73658" lon="7.39419">
        <ele>258.7319336</ele>
        <time>2012-04-01T07:00:31Z</time>
      </trkpt>
      <trkpt lat="47.73647" lon="7.394">
        <ele>258.7319336</ele>
        <time>2012-04-01T07:00:36Z</time>
      </trkpt>
      <trkpt lat="47.7365" lon="7.3938">
        <ele>258.2513428</ele>
        <time>2012-04-01T07:00:40Z</time>
      </trkpt>
      <trkpt lat="47.73666" lon="7.39352">
        <ele>256.3287354</ele>
        <time>2012-04-01T07:00:47Z</time>
      </trkpt>
      <trkpt lat="47.73685" lon="7.39322">
        <ele>253.4447021</ele>
        <time>2012-04-01T07:00:54Z</time>
      </trkpt>
      <trkpt lat="47.73711" lon="7.3929">
        <ele>251.0413818</ele>
        <time>2012-04-01T07:01:02Z</time>
      </trkpt>
      <trkpt lat="47.73738" lon="7.39262">
        <ele>249.1187744</ele>
        <time>2012-04-01T07:01:10Z</time>
      </trkpt>
      <trkpt lat="47.73751" lon="7.3924">
        <ele>248.6381836</ele>
        <time>2012-04-01T07:01:14Z</time>
      </trkpt>
      <trkpt lat="47.73768" lon="7.3918">
        <ele>249.5994873</ele>
        <time>2012-04-01T07:01:21Z</time>
      </trkpt>
      <trkpt lat="47.73788" lon="7.39146">
        <ele>248.6381836</ele>
        <time>2012-04-01T07:01:26Z</time>
      </trkpt>
      <trkpt lat="47.73792" lon="7.39142">
        <ele>248.6381836</ele>
        <time>2012-04-01T07:01:27Z</time>
      </trkpt>
      <trkpt lat="47.73811" lon="7.39135">
        <ele>247.6767578</ele>
        <time>2012-04-01T07:01:31Z</time>
      </trkpt>
      <trkpt lat="47.73832" lon="7.39145">
        <ele>247.6767578</ele>
        <time>2012-04-01T07:01:36Z</time>
      </trkpt>
      <trkpt lat="47.73848" lon="7.39159">
        <ele>249.1187744</ele>
        <time>2012-04-01T07:01:40Z</time>
      </trkpt>
      <trkpt lat="47.73869" lon="7.39172">
        <ele>250.0802002</ele>
        <time>2012-04-01T07:01:45Z</time>
      </trkpt>
      <trkpt lat="47.73883" lon="7.39184">
        <ele>252.9639893</ele>
        <time>2012-04-01T07:01:49Z</time>
      </trkpt>
      <trkpt lat="47.73888" lon="7.39171">
        <ele>255.8480225</ele>
        <time>2012-04-01T07:01:52Z</time>
      </trkpt>
      <trkpt lat="47.73884" lon="7.39159">
        <ele>254.8865967</ele>
        <time>2012-04-01T07:01:54Z</time>
      </trkpt>
      <trkpt lat="47.73879" lon="7.39147">
        <ele>253.925415</ele>
        <time>2012-04-01T07:01:56Z</time>
      </trkpt>
      <trkpt lat="47.73883" lon="7.39125">
        <ele>252.4833984</ele>
        <time>2012-04-01T07:02:00Z</time>
      </trkpt>
      <trkpt lat="47.73891" lon="7.39117">
        <ele>252.0028076</ele>
        <time>2012-04-01T07:02:02Z</time>
      </trkpt>
      <trkpt lat="47.73909" lon="7.39096">
        <ele>252.4833984</ele>
        <time>2012-04-01T07:02:07Z</time>
      </trkpt>
      <trkpt lat="47.7392" lon="7.39086">
        <ele>252.0028076</ele>
        <time>2012-04-01T07:02:10Z</time>
      </trkpt>
      <trkpt lat="47.73923" lon="7.39083">
        <ele>252.4833984</ele>
        <time>2012-04-01T07:02:11Z</time>
      </trkpt>
      <trkpt lat="47.73934" lon="7.39074">
        <ele>253.4447021</ele>
        <time>2012-04-01T07:02:14Z</time>
      </trkpt>
      <trkpt lat="47.7394" lon="7.3906">
        <ele>257.2900391</ele>
        <time>2012-04-01T07:02:19Z</time>
      </trkpt>
      <trkpt lat="47.73937" lon="7.39053">
        <ele>257.770752</ele>
        <time>2012-04-01T07:02:21Z</time>
      </trkpt>
      <trkpt lat="47.73921" lon="7.39025">
        <ele>257.770752</ele>
        <time>2012-04-01T07:02:30Z</time>
      </trkpt>
      <trkpt lat="47.73913" lon="7.39008">
        <ele>257.770752</ele>
        <time>2012-04-01T07:02:35Z</time>
      </trkpt>
      <trkpt lat="47.73903" lon="7.38988">
        <ele>256.3287354</ele>
        <time>2012-04-01T07:02:40Z</time>
      </trkpt>
      <trkpt lat="47.7389" lon="7.38958">
        <ele>254.4060059</ele>
        <time>2012-04-01T07:02:46Z</time>
      </trkpt>
      <trkpt lat="47.73875" lon="7.38926">
        <ele>254.4060059</ele>
        <time>2012-04-01T07:02:52Z</time>
      </trkpt>
      <trkpt lat="47.73869" lon="7.38917">
        <ele>254.8865967</ele>
        <time>2012-04-01T07:02:54Z</time>
      </trkpt>
      <trkpt lat="47.73849" lon="7.38876">
        <ele>255.8480225</ele>
        <time>2012-04-01T07:03:02Z</time>
      </trkpt>
      <trkpt lat="47.73843" lon="7.38861">
        <ele>255.8480225</ele>
        <time>2012-04-01T07:03:05Z</time>
      </trkpt>
      <trkpt lat="47.73828" lon="7.38829">
        <ele>260.1739502</ele>
        <time>2012-04-01T07:03:12Z</time>
      </trkpt>
      <trkpt lat="47.73819" lon="7.38804">
        <ele>264.9805908</ele>
        <time>2012-04-01T07:03:18Z</time>
      </trkpt>
      <trkpt lat="47.73811" lon="7.38781">
        <ele>266.9031982</ele>
        <time>2012-04-01T07:03:23Z</time>
      </trkpt>
      <trkpt lat="47.73801" lon="7.38761">
        <ele>266.9031982</ele>
        <time>2012-04-01T07:03:27Z</time>
      </trkpt>
      <trkpt lat="47.73789" lon="7.3875">
        <ele>266.4224854</ele>
        <time>2012-04-01T07:03:31Z</time>
      </trkpt>
      <trkpt lat="47.73781" lon="7.3873">
        <ele>267.864502</ele>
        <time>2012-04-01T07:03:35Z</time>
      </trkpt>
      <trkpt lat="47.73771" lon="7.38708">
        <ele>267.3839111</ele>
        <time>2012-04-01T07:03:40Z</time>
      </trkpt>
      <trkpt lat="47.73763" lon="7.3869">
        <ele>264.4998779</ele>
        <time>2012-04-01T07:03:45Z</time>
      </trkpt>
      <trkpt lat="47.73752" lon="7.38668">
        <ele>271.229126</ele>
        <time>2012-04-01T07:03:49Z</time>
      </trkpt>
      <trkpt lat="47.73739" lon="7.38641">
        <ele>277.4776611</ele>
        <time>2012-04-01T07:03:55Z</time>
      </trkpt>
      <trkpt lat="47.73735" lon="7.38631">
        <ele>279.8808594</ele>
        <time>2012-04-01T07:03:57Z</time>
      </trkpt>
      <trkpt lat="47.73725" lon="7.38597">
        <ele>280.3616943</ele>
        <time>2012-04-01T07:04:04Z</time>
      </trkpt>
      <trkpt lat="47.73717" lon="7.38571">
        <ele>281.322998</ele>
        <time>2012-04-01T07:04:09Z</time>
      </trkpt>
      <trkpt lat="47.73711" lon="7.38545">
        <ele>282.7650146</ele>
        <time>2012-04-01T07:04:14Z</time>
      </trkpt>
      <trkpt lat="47.73701" lon="7.38514">
        <ele>284.2069092</ele>
        <time>2012-04-01T07:04:20Z</time>
      </trkpt>
      <trkpt lat="47.73693" lon="7.38485">
        <ele>281.322998</ele>
        <time>2012-04-01T07:04:26Z</time>
      </trkpt>
      <trkpt lat="47.73682" lon="7.38446">
        <ele>281.8035889</ele>
        <time>2012-04-01T07:04:33Z</time>
      </trkpt>
      <trkpt lat="47.73668" lon="7.38409">
        <ele>280.8424072</ele>
        <time>2012-04-01T07:04:40Z</time>
      </trkpt>
      <trkpt lat="47.7365" lon="7.38366">
        <ele>281.8035889</ele>
        <time>2012-04-01T07:04:48Z</time>
      </trkpt>
      <trkpt lat="47.73642" lon="7.3835">
        <ele>283.2456055</ele>
        <time>2012-04-01T07:04:51Z</time>
      </trkpt>
      <trkpt lat="47.73622" lon="7.38311">
        <ele>284.2069092</ele>
        <time>2012-04-01T07:04:59Z</time>
      </trkpt>
      <trkpt lat="47.73619" lon="7.38306">
        <ele>284.2069092</ele>
        <time>2012-04-01T07:05:00Z</time>
      </trkpt>
      <trkpt lat="47.73606" lon="7.38273">
        <ele>286.6102295</ele>
        <time>2012-04-01T07:05:07Z</time>
      </trkpt>
      <trkpt lat="47.73594" lon="7.38244">
        <ele>290.4555664</ele>
        <time>2012-04-01T07:05:13Z</time>
      </trkpt>
      <trkpt lat="47.73584" lon="7.38219">
        <ele>291.416748</ele>
        <time>2012-04-01T07:05:18Z</time>
      </trkpt>
      <trkpt lat="47.73569" lon="7.38178">
        <ele>294.7813721</ele>
        <time>2012-04-01T07:05:25Z</time>
      </trkpt>
      <trkpt lat="47.73567" lon="7.38172">
        <ele>295.7426758</ele>
        <time>2012-04-01T07:05:26Z</time>
      </trkpt>
      <trkpt lat="47.73554" lon="7.38133">
        <ele>299.5880127</ele>
        <time>2012-04-01T07:05:32Z</time>
      </trkpt>
      <trkpt lat="47.7354" lon="7.38092">
        <ele>303.9139404</ele>
        <time>2012-04-01T07:05:39Z</time>
      </trkpt>
      <trkpt lat="47.73531" lon="7.3807">
        <ele>304.3946533</ele>
        <time>2012-04-01T07:05:45Z</time>
      </trkpt>
      <trkpt lat="47.73527" lon="7.38051">
        <ele>303.9139404</ele>
        <time>2012-04-01T07:05:50Z</time>
      </trkpt>
      <trkpt lat="47.73533" lon="7.38039">
        <ele>301.991333</ele>
        <time>2012-04-01T07:05:57Z</time>
      </trkpt>
      <trkpt lat="47.73535" lon="7.38037">
        <ele>301.0299072</ele>
        <time>2012-04-01T07:05:59Z</time>
      </trkpt>
      <trkpt lat="47.7354" lon="7.38032">
        <ele>298.1461182</ele>
        <time>2012-04-01T07:06:06Z</time>
      </trkpt>
      <trkpt lat="47.7354" lon="7.38033">
        <ele>296.2235107</ele>
        <time>2012-04-01T07:06:16Z</time>
      </trkpt>
      <trkpt lat="47.73539" lon="7.38034">
        <ele>294.7813721</ele>
        <time>2012-04-01T07:06:33Z</time>
      </trkpt>
      <trkpt lat="47.7354" lon="7.38034">
        <ele>295.7426758</ele>
        <time>2012-04-01T07:06:40Z</time>
      </trkpt>
      <trkpt lat="47.7354" lon="7.38034">
        <ele>294.7813721</ele>
        <time>2012-04-01T07:06:50Z</time>
      </trkpt>
      <trkpt lat="47.7354" lon="7.38034">
        <ele>294.3007812</ele>
        <time>2012-04-01T07:06:59Z</time>
      </trkpt>
      <trkpt lat="47.7354" lon="7.38035">
        <ele>297.6654053</ele>
        <time>2012-04-01T07:07:04Z</time>
      </trkpt>
      <trkpt lat="47.73539" lon="7.38035">
        <ele>299.5880127</ele>
        <time>2012-04-01T07:07:06Z</time>
      </trkpt>
      <trkpt lat="47.7354" lon="7.38038">
        <ele>309.6818848</ele>
        <time>2012-04-01T07:07:26Z</time>
      </trkpt>
      <trkpt lat="47.73541" lon="7.3804">
        <ele>309.2011719</ele>
        <time>2012-04-01T07:07:45Z</time>
      </trkpt>
      <trkpt lat="47.73541" lon="7.3804">
        <ele>308.720459</ele>
        <time>2012-04-01T07:07:49Z</time>
      </trkpt>
      <trkpt lat="47.73541" lon="7.38042">
        <ele>301.991333</ele>
        <time>2012-04-01T07:08:19Z</time>
      </trkpt>
      <trkpt lat="47.73541" lon="7.38041">
        <ele>299.1072998</ele>
        <time>2012-04-01T07:08:28Z</time>
      </trkpt>
      <trkpt lat="47.7354" lon="7.3804">
        <ele>298.626709</ele>
        <time>2012-04-01T07:08:33Z</time>
      </trkpt>
      <trkpt lat="47.73542" lon="7.38037">
        <ele>298.1461182</ele>
        <time>2012-04-01T07:08:40Z</time>
      </trkpt>
      <trkpt lat="47.73551" lon="7.38027">
        <ele>297.6654053</ele>
        <time>2012-04-01T07:08:45Z</time>
      </trkpt>
      <trkpt lat="47.73572" lon="7.38007">
        <ele>296.7041016</ele>
        <time>2012-04-01T07:08:51Z</time>
      </trkpt>
      <trkpt lat="47.73593" lon="7.37977">
        <ele>296.2235107</ele>
        <time>2012-04-01T07:08:57Z</time>
      </trkpt>
      <trkpt lat="47.7361" lon="7.37935">
        <ele>296.2235107</ele>
        <time>2012-04-01T07:09:04Z</time>
      </trkpt>
      <trkpt lat="47.73627" lon="7.37883">
        <ele>295.7426758</ele>
        <time>2012-04-01T07:09:12Z</time>
      </trkpt>
      <trkpt lat="47.73637" lon="7.3785">
        <ele>294.3007812</ele>
        <time>2012-04-01T07:09:16Z</time>
      </trkpt>
      <trkpt lat="47.73634" lon="7.37824">
        <ele>293.3393555</ele>
        <time>2012-04-01T07:09:20Z</time>
      </trkpt>
      <trkpt lat="47.73612" lon="7.37775">
        <ele>288.532959</ele>
        <time>2012-04-01T07:09:27Z</time>
      </trkpt>
      <trkpt lat="47.73587" lon="7.37712">
        <ele>285.6488037</ele>
        <time>2012-04-01T07:09:35Z</time>
      </trkpt>
      <trkpt lat="47.73567" lon="7.37651">
        <ele>283.7261963</ele>
        <time>2012-04-01T07:09:42Z</time>
      </trkpt>
      <trkpt lat="47.73553" lon="7.37621">
        <ele>282.2843018</ele>
        <time>2012-04-01T07:09:46Z</time>
      </trkpt>
      <trkpt lat="47.73548" lon="7.37603">
        <ele>281.8035889</ele>
        <time>2012-04-01T07:09:48Z</time>
      </trkpt>
      <trkpt lat="47.73542" lon="7.3757">
        <ele>281.8035889</ele>
        <time>2012-04-01T07:09:52Z</time>
      </trkpt>
      <trkpt lat="47.73529" lon="7.37555">
        <ele>282.2843018</ele>
        <time>2012-04-01T07:09:56Z</time>
      </trkpt>
      <trkpt lat="47.73525" lon="7.37558">
        <ele>283.2456055</ele>
        <time>2012-04-01T07:09:57Z</time>
      </trkpt>
      <trkpt lat="47.73492" lon="7.37575">
        <ele>286.1295166</ele>
        <time>2012-04-01T07:10:04Z</time>
      </trkpt>
      <trkpt lat="47.73488" lon="7.37577">
        <ele>286.6102295</ele>
        <time>2012-04-01T07:10:05Z</time>
      </trkpt>
      <trkpt lat="47.73474" lon="7.37569">
        <ele>287.0908203</ele>
        <time>2012-04-01T07:10:09Z</time>
      </trkpt>
      <trkpt lat="47.73471" lon="7.37557">
        <ele>287.0908203</ele>
        <time>2012-04-01T07:10:11Z</time>
      </trkpt>
      <trkpt lat="47.73464" lon="7.37512">
        <ele>287.5714111</ele>
        <time>2012-04-01T07:10:19Z</time>
      </trkpt>
      <trkpt lat="47.73459" lon="7.37482">
        <ele>286.6102295</ele>
        <time>2012-04-01T07:10:25Z</time>
      </trkpt>
      <trkpt lat="47.73454" lon="7.37443">
        <ele>285.6488037</ele>
        <time>2012-04-01T07:10:31Z</time>
      </trkpt>
      <trkpt lat="47.73447" lon="7.37408">
        <ele>286.6102295</ele>
        <time>2012-04-01T07:10:37Z</time>
      </trkpt>
      <trkpt lat="47.73443" lon="7.37391">
        <ele>287.5714111</ele>
        <time>2012-04-01T07:10:40Z</time>
      </trkpt>
      <trkpt lat="47.73436" lon="7.37353">
        <ele>288.532959</ele>
        <time>2012-04-01T07:10:46Z</time>
      </trkpt>
      <trkpt lat="47.73433" lon="7.37327">
        <ele>289.4941406</ele>
        <time>2012-04-01T07:10:50Z</time>
      </trkpt>
      <trkpt lat="47.73433" lon="7.37296">
        <ele>291.8974609</ele>
        <time>2012-04-01T07:10:56Z</time>
      </trkpt>
      <trkpt lat="47.73428" lon="7.37298">
        <ele>293.8200684</ele>
        <time>2012-04-01T07:10:58Z</time>
      </trkpt>
      <trkpt lat="47.73408" lon="7.37309">
        <ele>296.2235107</ele>
        <time>2012-04-01T07:11:04Z</time>
      </trkpt>
      <trkpt lat="47.7339" lon="7.37315">
        <ele>295.7426758</ele>
        <time>2012-04-01T07:11:10Z</time>
      </trkpt>
      <trkpt lat="47.73371" lon="7.3732">
        <ele>297.1846924</ele>
        <time>2012-04-01T07:11:16Z</time>
      </trkpt>
      <trkpt lat="47.73356" lon="7.37318">
        <ele>295.7426758</ele>
        <time>2012-04-01T07:11:21Z</time>
      </trkpt>
      <trkpt lat="47.73333" lon="7.373">
        <ele>297.1846924</ele>
        <time>2012-04-01T07:11:29Z</time>
      </trkpt>
      <trkpt lat="47.73316" lon="7.37291">
        <ele>301.5106201</ele>
        <time>2012-04-01T07:11:36Z</time>
      </trkpt>
      <trkpt lat="47.7331" lon="7.37289">
        <ele>302.9525146</ele>
        <time>2012-04-01T07:11:39Z</time>
      </trkpt>
      <trkpt lat="47.73306" lon="7.37283">
        <ele>303.4332275</ele>
        <time>2012-04-01T07:11:46Z</time>
      </trkpt>
      <trkpt lat="47.73302" lon="7.37278">
        <ele>303.4332275</ele>
        <time>2012-04-01T07:11:53Z</time>
      </trkpt>
      <trkpt lat="47.73299" lon="7.37277">
        <ele>302.4719238</ele>
        <time>2012-04-01T07:11:55Z</time>
      </trkpt>
      <trkpt lat="47.73284" lon="7.3727">
        <ele>300.5493164</ele>
        <time>2012-04-01T07:12:00Z</time>
      </trkpt>
      <trkpt lat="47.73277" lon="7.37265">
        <ele>300.5493164</ele>
        <time>2012-04-01T07:12:04Z</time>
      </trkpt>
      <trkpt lat="47.73276" lon="7.37264">
        <ele>299.5880127</ele>
        <time>2012-04-01T07:12:05Z</time>
      </trkpt>
      <trkpt lat="47.7326" lon="7.37256">
        <ele>301.5106201</ele>
        <time>2012-04-01T07:12:11Z</time>
      </trkpt>
      <trkpt lat="47.73246" lon="7.37245">
        <ele>299.5880127</ele>
        <time>2012-04-01T07:12:15Z</time>
      </trkpt>
      <trkpt lat="47.73225" lon="7.37239">
        <ele>301.991333</ele>
        <time>2012-04-01T07:12:21Z</time>
      </trkpt>
      <trkpt lat="47.73209" lon="7.37233">
        <ele>303.9139404</ele>
        <time>2012-04-01T07:12:26Z</time>
      </trkpt>
      <trkpt lat="47.73187" lon="7.37228">
        <ele>307.2785645</ele>
        <time>2012-04-01T07:12:33Z</time>
      </trkpt>
      <trkpt lat="47.73169" lon="7.37226">
        <ele>304.8752441</ele>
        <time>2012-04-01T07:12:38Z</time>
      </trkpt>
      <trkpt lat="47.7315" lon="7.37225">
        <ele>306.3172607</ele>
        <time>2012-04-01T07:12:42Z</time>
      </trkpt>
      <trkpt lat="47.73126" lon="7.37217">
        <ele>305.8366699</ele>
        <time>2012-04-01T07:12:47Z</time>
      </trkpt>
      <trkpt lat="47.73104" lon="7.37212">
        <ele>304.3946533</ele>
        <time>2012-04-01T07:12:52Z</time>
      </trkpt>
      <trkpt lat="47.73075" lon="7.37216">
        <ele>305.355957</ele>
        <time>2012-04-01T07:12:59Z</time>
      </trkpt>
      <trkpt lat="47.73071" lon="7.37215">
        <ele>303.9139404</ele>
        <time>2012-04-01T07:13:00Z</time>
      </trkpt>
      <trkpt lat="47.73053" lon="7.37206">
        <ele>303.4332275</ele>
        <time>2012-04-01T07:13:05Z</time>
      </trkpt>
      <trkpt lat="47.73044" lon="7.37183">
        <ele>299.5880127</ele>
        <time>2012-04-01T07:13:09Z</time>
      </trkpt>
      <trkpt lat="47.73039" lon="7.3717">
        <ele>296.7041016</ele>
        <time>2012-04-01T07:13:11Z</time>
      </trkpt>
      <trkpt lat="47.73025" lon="7.37121">
        <ele>287.0908203</ele>
        <time>2012-04-01T07:13:17Z</time>
      </trkpt>
      <trkpt lat="47.73023" lon="7.37113">
        <ele>285.6488037</ele>
        <time>2012-04-01T07:13:18Z</time>
      </trkpt>
      <trkpt lat="47.73018" lon="7.37099">
        <ele>283.7261963</ele>
        <time>2012-04-01T07:13:20Z</time>
      </trkpt>
      <trkpt lat="47.73013" lon="7.37081">
        <ele>282.7650146</ele>
        <time>2012-04-01T07:13:22Z</time>
      </trkpt>
      <trkpt lat="47.72998" lon="7.37031">
        <ele>277.958252</ele>
        <time>2012-04-01T07:13:28Z</time>
      </trkpt>
      <trkpt lat="47.72985" lon="7.3699">
        <ele>273.6324463</ele>
        <time>2012-04-01T07:13:33Z</time>
      </trkpt>
      <trkpt lat="47.72979" lon="7.36965">
        <ele>272.6711426</ele>
        <time>2012-04-01T07:13:36Z</time>
      </trkpt>
      <trkpt lat="47.72966" lon="7.36924">
        <ele>268.8258057</ele>
        <time>2012-04-01T07:13:41Z</time>
      </trkpt>
      <trkpt lat="47.7296" lon="7.36894">
        <ele>265.9418945</ele>
        <time>2012-04-01T07:13:45Z</time>
      </trkpt>
      <trkpt lat="47.72956" lon="7.36879">
        <ele>264.0192871</ele>
        <time>2012-04-01T07:13:47Z</time>
      </trkpt>
      <trkpt lat="47.72951" lon="7.36863">
        <ele>259.6933594</ele>
        <time>2012-04-01T07:13:49Z</time>
      </trkpt>
      <trkpt lat="47.72938" lon="7.3682">
        <ele>254.4060059</ele>
        <time>2012-04-01T07:13:54Z</time>
      </trkpt>
      <trkpt lat="47.72929" lon="7.36791">
        <ele>252.9639893</ele>
        <time>2012-04-01T07:13:57Z</time>
      </trkpt>
      <trkpt lat="47.72912" lon="7.36738">
        <ele>249.5994873</ele>
        <time>2012-04-01T07:14:03Z</time>
      </trkpt>
      <trkpt lat="47.72904" lon="7.3671">
        <ele>248.1575928</ele>
        <time>2012-04-01T07:14:06Z</time>
      </trkpt>
      <trkpt lat="47.72893" lon="7.3667">
        <ele>246.2348633</ele>
        <time>2012-04-01T07:14:11Z</time>
      </trkpt>
      <trkpt lat="47.72883" lon="7.3664">
        <ele>248.1575928</ele>
        <time>2012-04-01T07:14:15Z</time>
      </trkpt>
      <trkpt lat="47.72876" lon="7.36623">
        <ele>248.1575928</ele>
        <time>2012-04-01T07:14:17Z</time>
      </trkpt>
      <trkpt lat="47.72867" lon="7.3659">
        <ele>244.3122559</ele>
        <time>2012-04-01T07:14:21Z</time>
      </trkpt>
      <trkpt lat="47.72852" lon="7.36536">
        <ele>238.5443115</ele>
        <time>2012-04-01T07:14:27Z</time>
      </trkpt>
      <trkpt lat="47.72842" lon="7.36501">
        <ele>239.5054932</ele>
        <time>2012-04-01T07:14:31Z</time>
      </trkpt>
      <trkpt lat="47.7283" lon="7.36463">
        <ele>238.5443115</ele>
        <time>2012-04-01T07:14:36Z</time>
      </trkpt>
      <trkpt lat="47.72827" lon="7.36448">
        <ele>239.5054932</ele>
        <time>2012-04-01T07:14:38Z</time>
      </trkpt>
      <trkpt lat="47.72824" lon="7.36436">
        <ele>238.5443115</ele>
        <time>2012-04-01T07:14:40Z</time>
      </trkpt>
      <trkpt lat="47.72818" lon="7.36413">
        <ele>240.9476318</ele>
        <time>2012-04-01T07:14:43Z</time>
      </trkpt>
      <trkpt lat="47.72804" lon="7.36375">
        <ele>245.2734375</ele>
        <time>2012-04-01T07:14:48Z</time>
      </trkpt>
      <trkpt lat="47.72795" lon="7.36347">
        <ele>241.4282227</ele>
        <time>2012-04-01T07:14:52Z</time>
      </trkpt>
      <trkpt lat="47.72789" lon="7.36322">
        <ele>238.0635986</ele>
        <time>2012-04-01T07:14:55Z</time>
      </trkpt>
      <trkpt lat="47.72774" lon="7.36269">
        <ele>240.467041</ele>
        <time>2012-04-01T07:15:01Z</time>
      </trkpt>
      <trkpt lat="47.72758" lon="7.36227">
        <ele>244.3122559</ele>
        <time>2012-04-01T07:15:06Z</time>
      </trkpt>
      <trkpt lat="47.72746" lon="7.36188">
        <ele>249.5994873</ele>
        <time>2012-04-01T07:15:10Z</time>
      </trkpt>
      <trkpt lat="47.72717" lon="7.36103">
        <ele>256.8093262</ele>
        <time>2012-04-01T07:15:17Z</time>
      </trkpt>
      <trkpt lat="47.72712" lon="7.36091">
        <ele>257.2900391</ele>
        <time>2012-04-01T07:15:18Z</time>
      </trkpt>
      <trkpt lat="47.72704" lon="7.36061">
        <ele>257.770752</ele>
        <time>2012-04-01T07:15:21Z</time>
      </trkpt>
      <trkpt lat="47.72689" lon="7.36009">
        <ele>250.560791</ele>
        <time>2012-04-01T07:15:26Z</time>
      </trkpt>
      <trkpt lat="47.7268" lon="7.35978">
        <ele>245.7541504</ele>
        <time>2012-04-01T07:15:30Z</time>
      </trkpt>
      <trkpt lat="47.72666" lon="7.3595">
        <ele>251.5220947</ele>
        <time>2012-04-01T07:15:34Z</time>
      </trkpt>
      <trkpt lat="47.7266" lon="7.35936">
        <ele>251.5220947</ele>
        <time>2012-04-01T07:15:39Z</time>
      </trkpt>
      <trkpt lat="47.72665" lon="7.35934">
        <ele>251.5220947</ele>
        <time>2012-04-01T07:15:42Z</time>
      </trkpt>
      <trkpt lat="47.72686" lon="7.35934">
        <ele>252.9639893</ele>
        <time>2012-04-01T07:15:46Z</time>
      </trkpt>
      <trkpt lat="47.72708" lon="7.35936">
        <ele>257.2900391</ele>
        <time>2012-04-01T07:15:49Z</time>
      </trkpt>
      <trkpt lat="47.72707" lon="7.35938">
        <ele>259.6933594</ele>
        <time>2012-04-01T07:15:51Z</time>
      </trkpt>
      <trkpt lat="47.72705" lon="7.35936">
        <ele>264.0192871</ele>
        <time>2012-04-01T07:15:54Z</time>
      </trkpt>
      <trkpt lat="47.72707" lon="7.35925">
        <ele>261.6159668</ele>
        <time>2012-04-01T07:15:58Z</time>
      </trkpt>
      <trkpt lat="47.7272" lon="7.35911">
        <ele>260.654541</ele>
        <time>2012-04-01T07:16:04Z</time>
      </trkpt>
      <trkpt lat="47.72719" lon="7.35891">
        <ele>264.9805908</ele>
        <time>2012-04-01T07:16:09Z</time>
      </trkpt>
      <trkpt lat="47.72719" lon="7.35872">
        <ele>262.5771484</ele>
        <time>2012-04-01T07:16:15Z</time>
      </trkpt>
      <trkpt lat="47.72718" lon="7.35853">
        <ele>266.4224854</ele>
        <time>2012-04-01T07:16:20Z</time>
      </trkpt>
      <trkpt lat="47.72718" lon="7.3585">
        <ele>266.4224854</ele>
        <time>2012-04-01T07:16:21Z</time>
      </trkpt>
      <trkpt lat="47.72713" lon="7.35844">
        <ele>270.7484131</ele>
        <time>2012-04-01T07:16:28Z</time>
      </trkpt>
      <trkpt lat="47.72712" lon="7.35841">
        <ele>272.6711426</ele>
        <time>2012-04-01T07:16:34Z</time>
      </trkpt>
      <trkpt lat="47.72714" lon="7.35839">
        <ele>276.0356445</ele>
        <time>2012-04-01T07:16:51Z</time>
      </trkpt>
      <trkpt lat="47.72715" lon="7.35838">
        <ele>276.0356445</ele>
        <time>2012-04-01T07:16:54Z</time>
      </trkpt>
      <trkpt lat="47.72715" lon="7.35837">
        <ele>276.0356445</ele>
        <time>2012-04-01T07:16:59Z</time>
      </trkpt>
      <trkpt lat="47.72715" lon="7.35836">
        <ele>276.0356445</ele>
        <time>2012-04-01T07:17:09Z</time>
      </trkpt>
      <trkpt lat="47.72717" lon="7.35833">
        <ele>274.59375</ele>
        <time>2012-04-01T07:17:36Z</time>
      </trkpt>
      <trkpt lat="47.72715" lon="7.35834">
        <ele>271.7097168</ele>
        <time>2012-04-01T07:17:43Z</time>
      </trkpt>
      <trkpt lat="47.7271" lon="7.35836">
        <ele>271.229126</ele>
        <time>2012-04-01T07:17:48Z</time>
      </trkpt>
      <trkpt lat="47.72695" lon="7.3584">
        <ele>273.1518555</ele>
        <time>2012-04-01T07:17:53Z</time>
      </trkpt>
      <trkpt lat="47.72679" lon="7.35844">
        <ele>271.229126</ele>
        <time>2012-04-01T07:17:58Z</time>
      </trkpt>
      <trkpt lat="47.72662" lon="7.35857">
        <ele>271.7097168</ele>
        <time>2012-04-01T07:18:03Z</time>
      </trkpt>
      <trkpt lat="47.72648" lon="7.35871">
        <ele>271.229126</ele>
        <time>2012-04-01T07:18:08Z</time>
      </trkpt>
      <trkpt lat="47.72639" lon="7.3588">
        <ele>269.7871094</ele>
        <time>2012-04-01T07:18:11Z</time>
      </trkpt>
      <trkpt lat="47.72622" lon="7.35883">
        <ele>269.3065186</ele>
        <time>2012-04-01T07:18:17Z</time>
      </trkpt>
      <trkpt lat="47.72615" lon="7.35885">
        <ele>268.3450928</ele>
        <time>2012-04-01T07:18:19Z</time>
      </trkpt>
      <trkpt lat="47.72599" lon="7.35894">
        <ele>270.2677002</ele>
        <time>2012-04-01T07:18:25Z</time>
      </trkpt>
      <trkpt lat="47.72586" lon="7.35899">
        <ele>271.229126</ele>
        <time>2012-04-01T07:18:30Z</time>
      </trkpt>
      <trkpt lat="47.72585" lon="7.359">
        <ele>271.7097168</ele>
        <time>2012-04-01T07:18:31Z</time>
      </trkpt>
      <trkpt lat="47.72573" lon="7.35902">
        <ele>276.5163574</ele>
        <time>2012-04-01T07:18:37Z</time>
      </trkpt>
      <trkpt lat="47.72561" lon="7.35904">
        <ele>276.0356445</ele>
        <time>2012-04-01T07:18:43Z</time>
      </trkpt>
      <trkpt lat="47.72554" lon="7.35906">
        <ele>277.4776611</ele>
        <time>2012-04-01T07:18:47Z</time>
      </trkpt>
      <trkpt lat="47.72548" lon="7.35907">
        <ele>276.5163574</ele>
        <time>2012-04-01T07:18:51Z</time>
      </trkpt>
      <trkpt lat="47.72537" lon="7.35907">
        <ele>275.0744629</ele>
        <time>2012-04-01T07:18:57Z</time>
      </trkpt>
      <trkpt lat="47.72532" lon="7.35906">
        <ele>275.0744629</ele>
        <time>2012-04-01T07:19:02Z</time>
      </trkpt>
      <trkpt lat="47.72531" lon="7.35907">
        <ele>276.5163574</ele>
        <time>2012-04-01T07:19:03Z</time>
      </trkpt>
      <trkpt lat="47.72521" lon="7.35905">
        <ele>280.3616943</ele>
        <time>2012-04-01T07:19:11Z</time>
      </trkpt>
      <trkpt lat="47.7251" lon="7.35905">
        <ele>284.6876221</ele>
        <time>2012-04-01T07:19:15Z</time>
      </trkpt>
      <trkpt lat="47.72497" lon="7.35907">
        <ele>285.6488037</ele>
        <time>2012-04-01T07:19:19Z</time>
      </trkpt>
      <trkpt lat="47.72487" lon="7.35903">
        <ele>281.8035889</ele>
        <time>2012-04-01T07:19:23Z</time>
      </trkpt>
      <trkpt lat="47.72477" lon="7.359">
        <ele>285.1682129</ele>
        <time>2012-04-01T07:19:28Z</time>
      </trkpt>
      <trkpt lat="47.72459" lon="7.35898">
        <ele>286.1295166</ele>
        <time>2012-04-01T07:19:34Z</time>
      </trkpt>
      <trkpt lat="47.72451" lon="7.35897">
        <ele>287.5714111</ele>
        <time>2012-04-01T07:19:37Z</time>
      </trkpt>
      <trkpt lat="47.72435" lon="7.35902">
        <ele>291.8974609</ele>
        <time>2012-04-01T07:19:43Z</time>
      </trkpt>
      <trkpt lat="47.72433" lon="7.35904">
        <ele>292.8587646</ele>
        <time>2012-04-01T07:19:44Z</time>
      </trkpt>
      <trkpt lat="47.72414" lon="7.35911">
        <ele>296.2235107</ele>
        <time>2012-04-01T07:19:52Z</time>
      </trkpt>
      <trkpt lat="47.72412" lon="7.35911">
        <ele>297.1846924</ele>
        <time>2012-04-01T07:19:53Z</time>
      </trkpt>
      <trkpt lat="47.72404" lon="7.35916">
        <ele>296.7041016</ele>
        <time>2012-04-01T07:19:58Z</time>
      </trkpt>
      <trkpt lat="47.72393" lon="7.35921">
        <ele>299.1072998</ele>
        <time>2012-04-01T07:20:04Z</time>
      </trkpt>
      <trkpt lat="47.72383" lon="7.35928">
        <ele>301.991333</ele>
        <time>2012-04-01T07:20:09Z</time>
      </trkpt>
      <trkpt lat="47.72371" lon="7.35935">
        <ele>305.355957</ele>
        <time>2012-04-01T07:20:17Z</time>
      </trkpt>
      <trkpt lat="47.72362" lon="7.35939">
        <ele>308.720459</ele>
        <time>2012-04-01T07:20:22Z</time>
      </trkpt>
      <trkpt lat="47.7235" lon="7.35937">
        <ele>309.2011719</ele>
        <time>2012-04-01T07:20:27Z</time>
      </trkpt>
      <trkpt lat="47.72336" lon="7.35932">
        <ele>311.1237793</ele>
        <time>2012-04-01T07:20:34Z</time>
      </trkpt>
      <trkpt lat="47.72322" lon="7.35926">
        <ele>311.1237793</ele>
        <time>2012-04-01T07:20:40Z</time>
      </trkpt>
      <trkpt lat="47.72309" lon="7.35919">
        <ele>310.6430664</ele>
        <time>2012-04-01T07:20:45Z</time>
      </trkpt>
      <trkpt lat="47.72294" lon="7.35915">
        <ele>313.0465088</ele>
        <time>2012-04-01T07:20:51Z</time>
      </trkpt>
      <trkpt lat="47.7228" lon="7.35905">
        <ele>315.4498291</ele>
        <time>2012-04-01T07:20:56Z</time>
      </trkpt>
      <trkpt lat="47.7227" lon="7.359">
        <ele>318.3336182</ele>
        <time>2012-04-01T07:21:00Z</time>
      </trkpt>
      <trkpt lat="47.72258" lon="7.35894">
        <ele>317.3724365</ele>
        <time>2012-04-01T07:21:04Z</time>
      </trkpt>
      <trkpt lat="47.72242" lon="7.35883">
        <ele>315.9304199</ele>
        <time>2012-04-01T07:21:09Z</time>
      </trkpt>
      <trkpt lat="47.72225" lon="7.3587">
        <ele>315.4498291</ele>
        <time>2012-04-01T07:21:15Z</time>
      </trkpt>
      <trkpt lat="47.72212" lon="7.35861">
        <ele>314.4884033</ele>
        <time>2012-04-01T07:21:20Z</time>
      </trkpt>
      <trkpt lat="47.7221" lon="7.35858">
        <ele>314.4884033</ele>
        <time>2012-04-01T07:21:23Z</time>
      </trkpt>
      <trkpt lat="47.72201" lon="7.3585">
        <ele>312.5657959</ele>
        <time>2012-04-01T07:21:28Z</time>
      </trkpt>
      <trkpt lat="47.72184" lon="7.35834">
        <ele>313.5272217</ele>
        <time>2012-04-01T07:21:34Z</time>
      </trkpt>
      <trkpt lat="47.7217" lon="7.35824">
        <ele>315.9304199</ele>
        <time>2012-04-01T07:21:39Z</time>
      </trkpt>
      <trkpt lat="47.72155" lon="7.35816">
        <ele>317.3724365</ele>
        <time>2012-04-01T07:21:44Z</time>
      </trkpt>
      <trkpt lat="47.72138" lon="7.35809">
        <ele>318.3336182</ele>
        <time>2012-04-01T07:21:49Z</time>
      </trkpt>
      <trkpt lat="47.72122" lon="7.35803">
        <ele>320.2563477</ele>
        <time>2012-04-01T07:21:54Z</time>
      </trkpt>
      <trkpt lat="47.72104" lon="7.35799">
        <ele>315.4498291</ele>
        <time>2012-04-01T07:22:00Z</time>
      </trkpt>
      <trkpt lat="47.7209" lon="7.35797">
        <ele>316.4110107</ele>
        <time>2012-04-01T07:22:05Z</time>
      </trkpt>
      <trkpt lat="47.72076" lon="7.35796">
        <ele>317.8530273</ele>
        <time>2012-04-01T07:22:09Z</time>
      </trkpt>
      <trkpt lat="47.72069" lon="7.35798">
        <ele>319.2950439</ele>
        <time>2012-04-01T07:22:12Z</time>
      </trkpt>
      <trkpt lat="47.72057" lon="7.35798">
        <ele>322.659668</ele>
        <time>2012-04-01T07:22:17Z</time>
      </trkpt>
      <trkpt lat="47.72054" lon="7.35798">
        <ele>324.1015625</ele>
        <time>2012-04-01T07:22:18Z</time>
      </trkpt>
      <trkpt lat="47.72033" lon="7.3579">
        <ele>328.9083252</ele>
        <time>2012-04-01T07:22:24Z</time>
      </trkpt>
      <trkpt lat="47.72018" lon="7.35783">
        <ele>332.2728271</ele>
        <time>2012-04-01T07:22:29Z</time>
      </trkpt>
      <trkpt lat="47.72001" lon="7.35775">
        <ele>331.7921143</ele>
        <time>2012-04-01T07:22:34Z</time>
      </trkpt>
      <trkpt lat="47.7199" lon="7.3577">
        <ele>332.75354</ele>
        <time>2012-04-01T07:22:38Z</time>
      </trkpt>
      <trkpt lat="47.71973" lon="7.3576">
        <ele>332.2728271</ele>
        <time>2012-04-01T07:22:44Z</time>
      </trkpt>
      <trkpt lat="47.71959" lon="7.35752">
        <ele>330.8309326</ele>
        <time>2012-04-01T07:22:48Z</time>
      </trkpt>
      <trkpt lat="47.71954" lon="7.35748">
        <ele>331.3115234</ele>
        <time>2012-04-01T07:22:50Z</time>
      </trkpt>
      <trkpt lat="47.71937" lon="7.35738">
        <ele>330.8309326</ele>
        <time>2012-04-01T07:22:57Z</time>
      </trkpt>
      <trkpt lat="47.71922" lon="7.35733">
        <ele>334.6761475</ele>
        <time>2012-04-01T07:23:02Z</time>
      </trkpt>
      <trkpt lat="47.71906" lon="7.35728">
        <ele>338.0407715</ele>
        <time>2012-04-01T07:23:07Z</time>
      </trkpt>
      <trkpt lat="47.71892" lon="7.35723">
        <ele>335.1567383</ele>
        <time>2012-04-01T07:23:11Z</time>
      </trkpt>
      <trkpt lat="47.71872" lon="7.35713">
        <ele>338.5214844</ele>
        <time>2012-04-01T07:23:17Z</time>
      </trkpt>
      <trkpt lat="47.71856" lon="7.35705">
        <ele>339.482666</ele>
        <time>2012-04-01T07:23:22Z</time>
      </trkpt>
      <trkpt lat="47.7184" lon="7.35695">
        <ele>338.0407715</ele>
        <time>2012-04-01T07:23:27Z</time>
      </trkpt>
      <trkpt lat="47.71833" lon="7.35694">
        <ele>341.8859863</ele>
        <time>2012-04-01T07:23:31Z</time>
      </trkpt>
      <trkpt lat="47.71831" lon="7.35693">
        <ele>340.9246826</ele>
        <time>2012-04-01T07:23:32Z</time>
      </trkpt>
      <trkpt lat="47.71833" lon="7.35688">
        <ele>339.0020752</ele>
        <time>2012-04-01T07:23:38Z</time>
      </trkpt>
      <trkpt lat="47.71829" lon="7.35689">
        <ele>350.057251</ele>
        <time>2012-04-01T07:23:49Z</time>
      </trkpt>
      <trkpt lat="47.71829" lon="7.35688">
        <ele>359.1896973</ele>
        <time>2012-04-01T07:24:02Z</time>
      </trkpt>
      <trkpt lat="47.71831" lon="7.3569">
        <ele>359.1896973</ele>
        <time>2012-04-01T07:24:12Z</time>
      </trkpt>
      <trkpt lat="47.71832" lon="7.35694">
        <ele>361.5931396</ele>
        <time>2012-04-01T07:24:22Z</time>
      </trkpt>
      <trkpt lat="47.71833" lon="7.35694">
        <ele>362.5543213</ele>
        <time>2012-04-01T07:24:34Z</time>
      </trkpt>
      <trkpt lat="47.71832" lon="7.35696">
        <ele>363.9963379</ele>
        <time>2012-04-01T07:24:45Z</time>
      </trkpt>
      <trkpt lat="47.71833" lon="7.35695">
        <ele>360.151123</ele>
        <time>2012-04-01T07:24:54Z</time>
      </trkpt>
      <trkpt lat="47.71833" lon="7.35691">
        <ele>361.1124268</ele>
        <time>2012-04-01T07:25:13Z</time>
      </trkpt>
      <trkpt lat="47.71833" lon="7.3569">
        <ele>360.6317139</ele>
        <time>2012-04-01T07:25:19Z</time>
      </trkpt>
      <trkpt lat="47.71835" lon="7.35694">
        <ele>356.786377</ele>
        <time>2012-04-01T07:25:42Z</time>
      </trkpt>
      <trkpt lat="47.71836" lon="7.35695">
        <ele>354.8637695</ele>
        <time>2012-04-01T07:25:56Z</time>
      </trkpt>
      <trkpt lat="47.71836" lon="7.35695">
        <ele>364.4769287</ele>
        <time>2012-04-01T07:26:13Z</time>
      </trkpt>
      <trkpt lat="47.71833" lon="7.35689">
        <ele>371.2062988</ele>
        <time>2012-04-01T07:26:31Z</time>
      </trkpt>
      <trkpt lat="47.71834" lon="7.35687">
        <ele>371.2062988</ele>
        <time>2012-04-01T07:26:34Z</time>
      </trkpt>
      <trkpt lat="47.71842" lon="7.35671">
        <ele>366.880249</ele>
        <time>2012-04-01T07:26:40Z</time>
      </trkpt>
      <trkpt lat="47.71843" lon="7.35654">
        <ele>360.6317139</ele>
        <time>2012-04-01T07:26:44Z</time>
      </trkpt>
      <trkpt lat="47.7184" lon="7.3563">
        <ele>346.2120361</ele>
        <time>2012-04-01T07:26:49Z</time>
      </trkpt>
      <trkpt lat="47.71838" lon="7.35609">
        <ele>339.0020752</ele>
        <time>2012-04-01T07:26:53Z</time>
      </trkpt>
      <trkpt lat="47.71834" lon="7.35585">
        <ele>331.3115234</ele>
        <time>2012-04-01T07:26:57Z</time>
      </trkpt>
      <trkpt lat="47.71823" lon="7.35554">
        <ele>327.4661865</ele>
        <time>2012-04-01T07:27:02Z</time>
      </trkpt>
      <trkpt lat="47.71808" lon="7.35519">
        <ele>317.3724365</ele>
        <time>2012-04-01T07:27:08Z</time>
      </trkpt>
      <trkpt lat="47.71804" lon="7.35508">
        <ele>313.5272217</ele>
        <time>2012-04-01T07:27:10Z</time>
      </trkpt>
      <trkpt lat="47.71801" lon="7.35499">
        <ele>309.2011719</ele>
        <time>2012-04-01T07:27:12Z</time>
      </trkpt>
      <trkpt lat="47.71795" lon="7.35479">
        <ele>299.5880127</ele>
        <time>2012-04-01T07:27:17Z</time>
      </trkpt>
      <trkpt lat="47.71793" lon="7.35473">
        <ele>296.2235107</ele>
        <time>2012-04-01T07:27:18Z</time>
      </trkpt>
      <trkpt lat="47.71784" lon="7.35449">
        <ele>283.2456055</ele>
        <time>2012-04-01T07:27:23Z</time>
      </trkpt>
      <trkpt lat="47.71771" lon="7.35415">
        <ele>271.229126</ele>
        <time>2012-04-01T07:27:28Z</time>
      </trkpt>
      <trkpt lat="47.71764" lon="7.35391">
        <ele>263.0578613</ele>
        <time>2012-04-01T07:27:31Z</time>
      </trkpt>
      <trkpt lat="47.71757" lon="7.35361">
        <ele>257.2900391</ele>
        <time>2012-04-01T07:27:34Z</time>
      </trkpt>
      <trkpt lat="47.71761" lon="7.35329">
        <ele>257.2900391</ele>
        <time>2012-04-01T07:27:37Z</time>
      </trkpt>
      <trkpt lat="47.71766" lon="7.35271">
        <ele>253.925415</ele>
        <time>2012-04-01T07:27:42Z</time>
      </trkpt>
      <trkpt lat="47.71767" lon="7.35259">
        <ele>254.4060059</ele>
        <time>2012-04-01T07:27:43Z</time>
      </trkpt>
      <trkpt lat="47.71751" lon="7.35218">
        <ele>249.1187744</ele>
        <time>2012-04-01T07:27:48Z</time>
      </trkpt>
      <trkpt lat="47.71714" lon="7.35175">
        <ele>255.3673096</ele>
        <time>2012-04-01T07:27:53Z</time>
      </trkpt>
      <trkpt lat="47.71694" lon="7.35161">
        <ele>262.0965576</ele>
        <time>2012-04-01T07:27:56Z</time>
      </trkpt>
      <trkpt lat="47.71669" lon="7.3515">
        <ele>271.7097168</ele>
        <time>2012-04-01T07:28:00Z</time>
      </trkpt>
      <trkpt lat="47.7164" lon="7.35118">
        <ele>288.532959</ele>
        <time>2012-04-01T07:28:05Z</time>
      </trkpt>
      <trkpt lat="47.71623" lon="7.35095">
        <ele>294.7813721</ele>
        <time>2012-04-01T07:28:10Z</time>
      </trkpt>
      <trkpt lat="47.71609" lon="7.35083">
        <ele>296.7041016</ele>
        <time>2012-04-01T07:28:13Z</time>
      </trkpt>
      <trkpt lat="47.71595" lon="7.35057">
        <ele>293.8200684</ele>
        <time>2012-04-01T07:28:19Z</time>
      </trkpt>
      <trkpt lat="47.71593" lon="7.35053">
        <ele>294.3007812</ele>
        <time>2012-04-01T07:28:20Z</time>
      </trkpt>
      <trkpt lat="47.71586" lon="7.35033">
        <ele>297.1846924</ele>
        <time>2012-04-01T07:28:25Z</time>
      </trkpt>
      <trkpt lat="47.71568" lon="7.35002">
        <ele>312.5657959</ele>
        <time>2012-04-01T07:28:31Z</time>
      </trkpt>
      <trkpt lat="47.71565" lon="7.35001">
        <ele>315.9304199</ele>
        <time>2012-04-01T07:28:32Z</time>
      </trkpt>
      <trkpt lat="47.71563" lon="7.35024">
        <ele>331.7921143</ele>
        <time>2012-04-01T07:28:36Z</time>
      </trkpt>
      <trkpt lat="47.71563" lon="7.3503">
        <ele>333.7147217</ele>
        <time>2012-04-01T07:28:37Z</time>
      </trkpt>
      <trkpt lat="47.7156" lon="7.35054">
        <ele>339.0020752</ele>
        <time>2012-04-01T07:28:43Z</time>
      </trkpt>
      <trkpt lat="47.7155" lon="7.35072">
        <ele>342.84729</ele>
        <time>2012-04-01T07:28:48Z</time>
      </trkpt>
      <trkpt lat="47.71541" lon="7.35095">
        <ele>348.6152344</ele>
        <time>2012-04-01T07:28:52Z</time>
      </trkpt>
      <trkpt lat="47.71534" lon="7.35112">
        <ele>350.057251</ele>
        <time>2012-04-01T07:28:55Z</time>
      </trkpt>
      <trkpt lat="47.71509" lon="7.35125">
        <ele>348.1346436</ele>
        <time>2012-04-01T07:29:00Z</time>
      </trkpt>
      <trkpt lat="47.71503" lon="7.35125">
        <ele>346.692627</ele>
        <time>2012-04-01T07:29:01Z</time>
      </trkpt>
      <trkpt lat="47.71478" lon="7.3512">
        <ele>343.8085938</ele>
        <time>2012-04-01T07:29:05Z</time>
      </trkpt>
      <trkpt lat="47.71451" lon="7.35103">
        <ele>339.9633789</ele>
        <time>2012-04-01T07:29:11Z</time>
      </trkpt>
      <trkpt lat="47.71442" lon="7.351">
        <ele>339.9633789</ele>
        <time>2012-04-01T07:29:13Z</time>
      </trkpt>
      <trkpt lat="47.71429" lon="7.35096">
        <ele>339.0020752</ele>
        <time>2012-04-01T07:29:16Z</time>
      </trkpt>
      <trkpt lat="47.71411" lon="7.35096">
        <ele>336.598877</ele>
        <time>2012-04-01T07:29:20Z</time>
      </trkpt>
      <trkpt lat="47.71389" lon="7.35106">
        <ele>342.3666992</ele>
        <time>2012-04-01T07:29:25Z</time>
      </trkpt>
      <trkpt lat="47.71378" lon="7.35113">
        <ele>341.8859863</ele>
        <time>2012-04-01T07:29:28Z</time>
      </trkpt>
      <trkpt lat="47.71363" lon="7.35127">
        <ele>342.84729</ele>
        <time>2012-04-01T07:29:32Z</time>
      </trkpt>
      <trkpt lat="47.71353" lon="7.35157">
        <ele>340.9246826</ele>
        <time>2012-04-01T07:29:36Z</time>
      </trkpt>
      <trkpt lat="47.71345" lon="7.3519">
        <ele>342.84729</ele>
        <time>2012-04-01T07:29:39Z</time>
      </trkpt>
      <trkpt lat="47.71324" lon="7.35227">
        <ele>340.9246826</ele>
        <time>2012-04-01T07:29:43Z</time>
      </trkpt>
      <trkpt lat="47.71309" lon="7.35243">
        <ele>339.9633789</ele>
        <time>2012-04-01T07:29:45Z</time>
      </trkpt>
      <trkpt lat="47.7128" lon="7.35254">
        <ele>338.0407715</ele>
        <time>2012-04-01T07:29:49Z</time>
      </trkpt>
      <trkpt lat="47.71265" lon="7.35256">
        <ele>338.0407715</ele>
        <time>2012-04-01T07:29:51Z</time>
      </trkpt>
      <trkpt lat="47.71236" lon="7.35268">
        <ele>339.0020752</ele>
        <time>2012-04-01T07:29:56Z</time>
      </trkpt>
      <trkpt lat="47.7122" lon="7.35278">
        <ele>339.9633789</ele>
        <time>2012-04-01T07:30:00Z</time>
      </trkpt>
      <trkpt lat="47.71207" lon="7.35282">
        <ele>338.5214844</ele>
        <time>2012-04-01T07:30:05Z</time>
      </trkpt>
      <trkpt lat="47.71205" lon="7.35279">
        <ele>339.0020752</ele>
        <time>2012-04-01T07:30:08Z</time>
      </trkpt>
      <trkpt lat="47.71201" lon="7.35272">
        <ele>339.9633789</ele>
        <time>2012-04-01T07:30:17Z</time>
      </trkpt>
      <trkpt lat="47.71199" lon="7.35274">
        <ele>344.7700195</ele>
        <time>2012-04-01T07:30:27Z</time>
      </trkpt>
      <trkpt lat="47.71197" lon="7.35273">
        <ele>344.7700195</ele>
        <time>2012-04-01T07:30:37Z</time>
      </trkpt>
      <trkpt lat="47.71196" lon="7.35257">
        <ele>347.1732178</ele>
        <time>2012-04-01T07:30:41Z</time>
      </trkpt>
      <trkpt lat="47.71196" lon="7.35227">
        <ele>352.4605713</ele>
        <time>2012-04-01T07:30:46Z</time>
      </trkpt>
      <trkpt lat="47.71194" lon="7.35195">
        <ele>352.9411621</ele>
        <time>2012-04-01T07:30:51Z</time>
      </trkpt>
      <trkpt lat="47.71192" lon="7.35176">
        <ele>352.4605713</ele>
        <time>2012-04-01T07:30:56Z</time>
      </trkpt>
      <trkpt lat="47.71187" lon="7.35149">
        <ele>355.3444824</ele>
        <time>2012-04-01T07:31:01Z</time>
      </trkpt>
      <trkpt lat="47.71182" lon="7.35117">
        <ele>349.0958252</ele>
        <time>2012-04-01T07:31:06Z</time>
      </trkpt>
      <trkpt lat="47.71176" lon="7.35082">
        <ele>335.1567383</ele>
        <time>2012-04-01T07:31:11Z</time>
      </trkpt>
      <trkpt lat="47.71171" lon="7.35047">
        <ele>324.1015625</ele>
        <time>2012-04-01T07:31:15Z</time>
      </trkpt>
      <trkpt lat="47.71159" lon="7.35001">
        <ele>321.2177734</ele>
        <time>2012-04-01T07:31:20Z</time>
      </trkpt>
      <trkpt lat="47.71148" lon="7.34993">
        <ele>326.9855957</ele>
        <time>2012-04-01T07:31:23Z</time>
      </trkpt>
      <trkpt lat="47.71132" lon="7.34988">
        <ele>332.75354</ele>
        <time>2012-04-01T07:31:26Z</time>
      </trkpt>
      <trkpt lat="47.71121" lon="7.3497">
        <ele>329.388916</ele>
        <time>2012-04-01T07:31:29Z</time>
      </trkpt>
      <trkpt lat="47.71114" lon="7.34913">
        <ele>325.0629883</ele>
        <time>2012-04-01T07:31:34Z</time>
      </trkpt>
      <trkpt lat="47.71113" lon="7.34901">
        <ele>326.5048828</ele>
        <time>2012-04-01T07:31:35Z</time>
      </trkpt>
      <trkpt lat="47.71106" lon="7.34833">
        <ele>335.1567383</ele>
        <time>2012-04-01T07:31:41Z</time>
      </trkpt>
      <trkpt lat="47.71101" lon="7.34785">
        <ele>329.8695068</ele>
        <time>2012-04-01T07:31:46Z</time>
      </trkpt>
      <trkpt lat="47.71097" lon="7.3476">
        <ele>324.5822754</ele>
        <time>2012-04-01T07:31:49Z</time>
      </trkpt>
      <trkpt lat="47.71078" lon="7.34728">
        <ele>322.1789551</ele>
        <time>2012-04-01T07:31:54Z</time>
      </trkpt>
      <trkpt lat="47.71067" lon="7.34726">
        <ele>321.6983643</ele>
        <time>2012-04-01T07:31:56Z</time>
      </trkpt>
      <trkpt lat="47.71053" lon="7.34727">
        <ele>319.7756348</ele>
        <time>2012-04-01T07:31:58Z</time>
      </trkpt>
      <trkpt lat="47.71046" lon="7.34707">
        <ele>317.3724365</ele>
        <time>2012-04-01T07:32:02Z</time>
      </trkpt>
      <trkpt lat="47.71046" lon="7.34701">
        <ele>322.659668</ele>
        <time>2012-04-01T07:32:07Z</time>
      </trkpt>
      <trkpt lat="47.71046" lon="7.34704">
        <ele>325.0629883</ele>
        <time>2012-04-01T07:32:13Z</time>
      </trkpt>
      <trkpt lat="47.71049" lon="7.34707">
        <ele>327.4661865</ele>
        <time>2012-04-01T07:32:16Z</time>
      </trkpt>
      <trkpt lat="47.71042" lon="7.34713">
        <ele>327.4661865</ele>
        <time>2012-04-01T07:32:20Z</time>
      </trkpt>
      <trkpt lat="47.71038" lon="7.34714">
        <ele>327.9467773</ele>
        <time>2012-04-01T07:32:21Z</time>
      </trkpt>
      <trkpt lat="47.71022" lon="7.34715">
        <ele>329.388916</ele>
        <time>2012-04-01T07:32:26Z</time>
      </trkpt>
      <trkpt lat="47.71" lon="7.34725">
        <ele>327.9467773</ele>
        <time>2012-04-01T07:32:31Z</time>
      </trkpt>
      <trkpt lat="47.70971" lon="7.34742">
        <ele>324.5822754</ele>
        <time>2012-04-01T07:32:35Z</time>
      </trkpt>
      <trkpt lat="47.70948" lon="7.34759">
        <ele>322.659668</ele>
        <time>2012-04-01T07:32:39Z</time>
      </trkpt>
      <trkpt lat="47.7094" lon="7.34795">
        <ele>327.4661865</ele>
        <time>2012-04-01T07:32:44Z</time>
      </trkpt>
      <trkpt lat="47.70938" lon="7.348">
        <ele>327.9467773</ele>
        <time>2012-04-01T07:32:45Z</time>
      </trkpt>
      <trkpt lat="47.7093" lon="7.34815">
        <ele>329.388916</ele>
        <time>2012-04-01T07:32:48Z</time>
      </trkpt>
      <trkpt lat="47.7092" lon="7.348">
        <ele>327.4661865</ele>
        <time>2012-04-01T07:32:52Z</time>
      </trkpt>
      <trkpt lat="47.70918" lon="7.34792">
        <ele>326.0241699</ele>
        <time>2012-04-01T07:32:53Z</time>
      </trkpt>
      <trkpt lat="47.70911" lon="7.34744">
        <ele>317.8530273</ele>
        <time>2012-04-01T07:32:58Z</time>
      </trkpt>
      <trkpt lat="47.70909" lon="7.34706">
        <ele>310.1624756</ele>
        <time>2012-04-01T07:33:03Z</time>
      </trkpt>
      <trkpt lat="47.70908" lon="7.3469">
        <ele>307.2785645</ele>
        <time>2012-04-01T07:33:05Z</time>
      </trkpt>
      <trkpt lat="47.70897" lon="7.34656">
        <ele>312.5657959</ele>
        <time>2012-04-01T07:33:10Z</time>
      </trkpt>
      <trkpt lat="47.70894" lon="7.3465">
        <ele>310.1624756</ele>
        <time>2012-04-01T07:33:11Z</time>
      </trkpt>
      <trkpt lat="47.70885" lon="7.34639">
        <ele>303.9139404</ele>
        <time>2012-04-01T07:33:15Z</time>
      </trkpt>
      <trkpt lat="47.70876" lon="7.34623">
        <ele>299.5880127</ele>
        <time>2012-04-01T07:33:21Z</time>
      </trkpt>
      <trkpt lat="47.70873" lon="7.34621">
        <ele>301.5106201</ele>
        <time>2012-04-01T07:33:22Z</time>
      </trkpt>
      <trkpt lat="47.70863" lon="7.34613">
        <ele>305.355957</ele>
        <time>2012-04-01T07:33:26Z</time>
      </trkpt>
      <trkpt lat="47.70853" lon="7.346">
        <ele>308.2398682</ele>
        <time>2012-04-01T07:33:32Z</time>
      </trkpt>
      <trkpt lat="47.70846" lon="7.3459">
        <ele>310.1624756</ele>
        <time>2012-04-01T07:33:36Z</time>
      </trkpt>
      <trkpt lat="47.70845" lon="7.34586">
        <ele>308.2398682</ele>
        <time>2012-04-01T07:33:38Z</time>
      </trkpt>
      <trkpt lat="47.70835" lon="7.34575">
        <ele>304.8752441</ele>
        <time>2012-04-01T07:33:44Z</time>
      </trkpt>
      <trkpt lat="47.70827" lon="7.34554">
        <ele>300.0687256</ele>
        <time>2012-04-01T07:33:50Z</time>
      </trkpt>
      <trkpt lat="47.70822" lon="7.34545">
        <ele>296.2235107</ele>
        <time>2012-04-01T07:33:54Z</time>
      </trkpt>
      <trkpt lat="47.70805" lon="7.34535">
        <ele>304.8752441</ele>
        <time>2012-04-01T07:33:59Z</time>
      </trkpt>
      <trkpt lat="47.70794" lon="7.34533">
        <ele>309.2011719</ele>
        <time>2012-04-01T07:34:02Z</time>
      </trkpt>
      <trkpt lat="47.70785" lon="7.34528">
        <ele>311.6044922</ele>
        <time>2012-04-01T07:34:05Z</time>
      </trkpt>
      <trkpt lat="47.7077" lon="7.34513">
        <ele>315.4498291</ele>
        <time>2012-04-01T07:34:11Z</time>
      </trkpt>
      <trkpt lat="47.70756" lon="7.34508">
        <ele>316.8917236</ele>
        <time>2012-04-01T07:34:15Z</time>
      </trkpt>
      <trkpt lat="47.7074" lon="7.34503">
        <ele>318.8143311</ele>
        <time>2012-04-01T07:34:19Z</time>
      </trkpt>
      <trkpt lat="47.70724" lon="7.34482">
        <ele>322.659668</ele>
        <time>2012-04-01T07:34:24Z</time>
      </trkpt>
      <trkpt lat="47.70715" lon="7.34468">
        <ele>322.659668</ele>
        <time>2012-04-01T07:34:27Z</time>
      </trkpt>
      <trkpt lat="47.70707" lon="7.34449">
        <ele>324.5822754</ele>
        <time>2012-04-01T07:34:31Z</time>
      </trkpt>
      <trkpt lat="47.70697" lon="7.34421">
        <ele>325.0629883</ele>
        <time>2012-04-01T07:34:37Z</time>
      </trkpt>
      <trkpt lat="47.70695" lon="7.34404">
        <ele>327.4661865</ele>
        <time>2012-04-01T07:34:40Z</time>
      </trkpt>
      <trkpt lat="47.70684" lon="7.344">
        <ele>326.9855957</ele>
        <time>2012-04-01T07:34:44Z</time>
      </trkpt>
      <trkpt lat="47.70672" lon="7.34402">
        <ele>326.9855957</ele>
        <time>2012-04-01T07:34:48Z</time>
      </trkpt>
      <trkpt lat="47.70669" lon="7.34398">
        <ele>326.5048828</ele>
        <time>2012-04-01T07:34:50Z</time>
      </trkpt>
      <trkpt lat="47.70666" lon="7.34363">
        <ele>323.6209717</ele>
        <time>2012-04-01T07:34:55Z</time>
      </trkpt>
      <trkpt lat="47.70666" lon="7.34328">
        <ele>320.2563477</ele>
        <time>2012-04-01T07:35:00Z</time>
      </trkpt>
      <trkpt lat="47.70666" lon="7.34315">
        <ele>319.2950439</ele>
        <time>2012-04-01T07:35:02Z</time>
      </trkpt>
      <trkpt lat="47.70664" lon="7.34298">
        <ele>317.3724365</ele>
        <time>2012-04-01T07:35:06Z</time>
      </trkpt>
      <trkpt lat="47.70661" lon="7.34271">
        <ele>314.4884033</ele>
        <time>2012-04-01T07:35:11Z</time>
      </trkpt>
      <trkpt lat="47.70653" lon="7.34221">
        <ele>323.6209717</ele>
        <time>2012-04-01T07:35:17Z</time>
      </trkpt>
      <trkpt lat="47.70653" lon="7.34189">
        <ele>313.5272217</ele>
        <time>2012-04-01T07:35:21Z</time>
      </trkpt>
      <trkpt lat="47.70644" lon="7.34153">
        <ele>313.5272217</ele>
        <time>2012-04-01T07:35:26Z</time>
      </trkpt>
      <trkpt lat="47.70642" lon="7.34146">
        <ele>316.8917236</ele>
        <time>2012-04-01T07:35:27Z</time>
      </trkpt>
      <trkpt lat="47.70626" lon="7.34146">
        <ele>326.0241699</ele>
        <time>2012-04-01T07:35:31Z</time>
      </trkpt>
      <trkpt lat="47.70619" lon="7.34151">
        <ele>325.5435791</ele>
        <time>2012-04-01T07:35:32Z</time>
      </trkpt>
      <trkpt lat="47.70591" lon="7.34151">
        <ele>319.7756348</ele>
        <time>2012-04-01T07:35:37Z</time>
      </trkpt>
      <trkpt lat="47.70587" lon="7.34135">
        <ele>311.6044922</ele>
        <time>2012-04-01T07:35:40Z</time>
      </trkpt>
      <trkpt lat="47.70588" lon="7.34128">
        <ele>310.1624756</ele>
        <time>2012-04-01T07:35:41Z</time>
      </trkpt>
      <trkpt lat="47.70591" lon="7.34104">
        <ele>301.991333</ele>
        <time>2012-04-01T07:35:44Z</time>
      </trkpt>
      <trkpt lat="47.70588" lon="7.34059">
        <ele>289.0135498</ele>
        <time>2012-04-01T07:35:48Z</time>
      </trkpt>
      <trkpt lat="47.70574" lon="7.34004">
        <ele>280.8424072</ele>
        <time>2012-04-01T07:35:52Z</time>
      </trkpt>
      <trkpt lat="47.70578" lon="7.33963">
        <ele>280.8424072</ele>
        <time>2012-04-01T07:35:56Z</time>
      </trkpt>
      <trkpt lat="47.7059" lon="7.33918">
        <ele>277.958252</ele>
        <time>2012-04-01T07:36:01Z</time>
      </trkpt>
      <trkpt lat="47.70594" lon="7.339">
        <ele>276.9970703</ele>
        <time>2012-04-01T07:36:06Z</time>
      </trkpt>
      <trkpt lat="47.70588" lon="7.33895">
        <ele>283.2456055</ele>
        <time>2012-04-01T07:36:09Z</time>
      </trkpt>
      <trkpt lat="47.70581" lon="7.33888">
        <ele>291.8974609</ele>
        <time>2012-04-01T07:36:15Z</time>
      </trkpt>
      <trkpt lat="47.70581" lon="7.33886">
        <ele>297.6654053</ele>
        <time>2012-04-01T07:36:20Z</time>
      </trkpt>
      <trkpt lat="47.70578" lon="7.33885">
        <ele>301.991333</ele>
        <time>2012-04-01T07:36:27Z</time>
      </trkpt>
      <trkpt lat="47.70576" lon="7.33884">
        <ele>303.9139404</ele>
        <time>2012-04-01T07:36:34Z</time>
      </trkpt>
      <trkpt lat="47.70577" lon="7.33882">
        <ele>304.3946533</ele>
        <time>2012-04-01T07:36:43Z</time>
      </trkpt>
      <trkpt lat="47.70575" lon="7.33882">
        <ele>302.9525146</ele>
        <time>2012-04-01T07:36:49Z</time>
      </trkpt>
      <trkpt lat="47.7057" lon="7.3388">
        <ele>300.5493164</ele>
        <time>2012-04-01T07:37:02Z</time>
      </trkpt>
      <trkpt lat="47.70555" lon="7.33872">
        <ele>301.0299072</ele>
        <time>2012-04-01T07:37:07Z</time>
      </trkpt>
      <trkpt lat="47.7054" lon="7.33866">
        <ele>302.4719238</ele>
        <time>2012-04-01T07:37:11Z</time>
      </trkpt>
      <trkpt lat="47.70523" lon="7.33858">
        <ele>301.5106201</ele>
        <time>2012-04-01T07:37:16Z</time>
      </trkpt>
      <trkpt lat="47.70496" lon="7.33843">
        <ele>303.9139404</ele>
        <time>2012-04-01T07:37:23Z</time>
      </trkpt>
      <trkpt lat="47.70454" lon="7.33829">
        <ele>305.8366699</ele>
        <time>2012-04-01T07:37:32Z</time>
      </trkpt>
      <trkpt lat="47.70429" lon="7.33816">
        <ele>307.2785645</ele>
        <time>2012-04-01T07:37:38Z</time>
      </trkpt>
      <trkpt lat="47.70404" lon="7.33804">
        <ele>309.6818848</ele>
        <time>2012-04-01T07:37:44Z</time>
      </trkpt>
      <trkpt lat="47.7038" lon="7.33793">
        <ele>312.5657959</ele>
        <time>2012-04-01T07:37:50Z</time>
      </trkpt>
      <trkpt lat="47.70356" lon="7.33782">
        <ele>315.9304199</ele>
        <time>2012-04-01T07:37:56Z</time>
      </trkpt>
      <trkpt lat="47.70336" lon="7.33767">
        <ele>319.2950439</ele>
        <time>2012-04-01T07:38:03Z</time>
      </trkpt>
      <trkpt lat="47.70326" lon="7.33748">
        <ele>320.7370605</ele>
        <time>2012-04-01T07:38:09Z</time>
      </trkpt>
      <trkpt lat="47.70313" lon="7.33717">
        <ele>322.659668</ele>
        <time>2012-04-01T07:38:18Z</time>
      </trkpt>
      <trkpt lat="47.70298" lon="7.33683">
        <ele>324.5822754</ele>
        <time>2012-04-01T07:38:26Z</time>
      </trkpt>
      <trkpt lat="47.70279" lon="7.3364">
        <ele>325.0629883</ele>
        <time>2012-04-01T07:38:35Z</time>
      </trkpt>
      <trkpt lat="47.70258" lon="7.33596">
        <ele>325.0629883</ele>
        <time>2012-04-01T07:38:43Z</time>
      </trkpt>
      <trkpt lat="47.70233" lon="7.33545">
        <ele>323.6209717</ele>
        <time>2012-04-01T07:38:50Z</time>
      </trkpt>
      <trkpt lat="47.70201" lon="7.33481">
        <ele>321.2177734</ele>
        <time>2012-04-01T07:38:58Z</time>
      </trkpt>
      <trkpt lat="47.70185" lon="7.3345">
        <ele>319.2950439</ele>
        <time>2012-04-01T07:39:02Z</time>
      </trkpt>
      <trkpt lat="47.70172" lon="7.33433">
        <ele>319.2950439</ele>
        <time>2012-04-01T07:39:06Z</time>
      </trkpt>
      <trkpt lat="47.70159" lon="7.33411">
        <ele>318.8143311</ele>
        <time>2012-04-01T07:39:11Z</time>
      </trkpt>
      <trkpt lat="47.70157" lon="7.33406">
        <ele>318.3336182</ele>
        <time>2012-04-01T07:39:12Z</time>
      </trkpt>
      <trkpt lat="47.70148" lon="7.33377">
        <ele>316.4110107</ele>
        <time>2012-04-01T07:39:18Z</time>
      </trkpt>
      <trkpt lat="47.70141" lon="7.33348">
        <ele>314.4884033</ele>
        <time>2012-04-01T07:39:23Z</time>
      </trkpt>
      <trkpt lat="47.70133" lon="7.33324">
        <ele>314.0078125</ele>
        <time>2012-04-01T07:39:28Z</time>
      </trkpt>
      <trkpt lat="47.7013" lon="7.33318">
        <ele>316.4110107</ele>
        <time>2012-04-01T07:39:29Z</time>
      </trkpt>
      <trkpt lat="47.70114" lon="7.33293">
        <ele>320.7370605</ele>
        <time>2012-04-01T07:39:34Z</time>
      </trkpt>
      <trkpt lat="47.70099" lon="7.33273">
        <ele>320.7370605</ele>
        <time>2012-04-01T07:39:38Z</time>
      </trkpt>
      <trkpt lat="47.70089" lon="7.33252">
        <ele>320.2563477</ele>
        <time>2012-04-01T07:39:41Z</time>
      </trkpt>
      <trkpt lat="47.70082" lon="7.33241">
        <ele>318.3336182</ele>
        <time>2012-04-01T07:39:43Z</time>
      </trkpt>
      <trkpt lat="47.70067" lon="7.33207">
        <ele>315.9304199</ele>
        <time>2012-04-01T07:39:48Z</time>
      </trkpt>
      <trkpt lat="47.70058" lon="7.33184">
        <ele>312.0852051</ele>
        <time>2012-04-01T07:39:52Z</time>
      </trkpt>
      <trkpt lat="47.70054" lon="7.33166">
        <ele>309.6818848</ele>
        <time>2012-04-01T07:39:55Z</time>
      </trkpt>
      <trkpt lat="47.70041" lon="7.33144">
        <ele>312.5657959</ele>
        <time>2012-04-01T07:40:00Z</time>
      </trkpt>
      <trkpt lat="47.70046" lon="7.33135">
        <ele>313.0465088</ele>
        <time>2012-04-01T07:40:03Z</time>
      </trkpt>
      <trkpt lat="47.70052" lon="7.33129">
        <ele>313.5272217</ele>
        <time>2012-04-01T07:40:05Z</time>
      </trkpt>
      <trkpt lat="47.70067" lon="7.33116">
        <ele>316.8917236</ele>
        <time>2012-04-01T07:40:11Z</time>
      </trkpt>
      <trkpt lat="47.70077" lon="7.33107">
        <ele>317.8530273</ele>
        <time>2012-04-01T07:40:16Z</time>
      </trkpt>
      <trkpt lat="47.70083" lon="7.331">
        <ele>318.3336182</ele>
        <time>2012-04-01T07:40:19Z</time>
      </trkpt>
      <trkpt lat="47.70094" lon="7.33081">
        <ele>317.3724365</ele>
        <time>2012-04-01T07:40:24Z</time>
      </trkpt>
      <trkpt lat="47.70106" lon="7.33071">
        <ele>318.3336182</ele>
        <time>2012-04-01T07:40:28Z</time>
      </trkpt>
      <trkpt lat="47.70118" lon="7.33059">
        <ele>317.8530273</ele>
        <time>2012-04-01T07:40:32Z</time>
      </trkpt>
      <trkpt lat="47.70134" lon="7.33046">
        <ele>318.8143311</ele>
        <time>2012-04-01T07:40:37Z</time>
      </trkpt>
      <trkpt lat="47.70149" lon="7.33025">
        <ele>331.3115234</ele>
        <time>2012-04-01T07:40:43Z</time>
      </trkpt>
      <trkpt lat="47.70158" lon="7.33019">
        <ele>330.8309326</ele>
        <time>2012-04-01T07:40:47Z</time>
      </trkpt>
      <trkpt lat="47.7017" lon="7.33008">
        <ele>327.9467773</ele>
        <time>2012-04-01T07:40:54Z</time>
      </trkpt>
      <trkpt lat="47.7018" lon="7.32995">
        <ele>326.9855957</ele>
        <time>2012-04-01T07:40:59Z</time>
      </trkpt>
      <trkpt lat="47.70183" lon="7.32982">
        <ele>325.5435791</ele>
        <time>2012-04-01T07:41:03Z</time>
      </trkpt>
      <trkpt lat="47.70185" lon="7.32961">
        <ele>321.6983643</ele>
        <time>2012-04-01T07:41:08Z</time>
      </trkpt>
      <trkpt lat="47.70199" lon="7.32944">
        <ele>324.1015625</ele>
        <time>2012-04-01T07:41:13Z</time>
      </trkpt>
      <trkpt lat="47.70202" lon="7.32941">
        <ele>325.0629883</ele>
        <time>2012-04-01T07:41:14Z</time>
      </trkpt>
      <trkpt lat="47.702" lon="7.32922">
        <ele>323.1403809</ele>
        <time>2012-04-01T07:41:18Z</time>
      </trkpt>
      <trkpt lat="47.70184" lon="7.32884">
        <ele>319.2950439</ele>
        <time>2012-04-01T07:41:24Z</time>
      </trkpt>
      <trkpt lat="47.70167" lon="7.32846">
        <ele>316.4110107</ele>
        <time>2012-04-01T07:41:30Z</time>
      </trkpt>
      <trkpt lat="47.70158" lon="7.3283">
        <ele>314.9691162</ele>
        <time>2012-04-01T07:41:33Z</time>
      </trkpt>
      <trkpt lat="47.7015" lon="7.32813">
        <ele>313.0465088</ele>
        <time>2012-04-01T07:41:37Z</time>
      </trkpt>
      <trkpt lat="47.70142" lon="7.32798">
        <ele>311.6044922</ele>
        <time>2012-04-01T07:41:41Z</time>
      </trkpt>
      <trkpt lat="47.70131" lon="7.32776">
        <ele>310.1624756</ele>
        <time>2012-04-01T07:41:48Z</time>
      </trkpt>
      <trkpt lat="47.70123" lon="7.32757">
        <ele>309.2011719</ele>
        <time>2012-04-01T07:41:54Z</time>
      </trkpt>
      <trkpt lat="47.70115" lon="7.32742">
        <ele>308.2398682</ele>
        <time>2012-04-01T07:41:59Z</time>
      </trkpt>
      <trkpt lat="47.70104" lon="7.32723">
        <ele>307.2785645</ele>
        <time>2012-04-01T07:42:07Z</time>
      </trkpt>
      <trkpt lat="47.70099" lon="7.32707">
        <ele>307.2785645</ele>
        <time>2012-04-01T07:42:13Z</time>
      </trkpt>
      <trkpt lat="47.70098" lon="7.32692">
        <ele>305.8366699</ele>
        <time>2012-04-01T07:42:19Z</time>
      </trkpt>
      <trkpt lat="47.70098" lon="7.32665">
        <ele>304.3946533</ele>
        <time>2012-04-01T07:42:25Z</time>
      </trkpt>
      <trkpt lat="47.70097" lon="7.32635">
        <ele>302.4719238</ele>
        <time>2012-04-01T07:42:29Z</time>
      </trkpt>
      <trkpt lat="47.70085" lon="7.326">
        <ele>302.9525146</ele>
        <time>2012-04-01T07:42:33Z</time>
      </trkpt>
      <trkpt lat="47.70058" lon="7.32531">
        <ele>301.5106201</ele>
        <time>2012-04-01T07:42:40Z</time>
      </trkpt>
      <trkpt lat="47.70039" lon="7.32474">
        <ele>300.0687256</ele>
        <time>2012-04-01T07:42:45Z</time>
      </trkpt>
      <trkpt lat="47.70015" lon="7.32417">
        <ele>299.1072998</ele>
        <time>2012-04-01T07:42:50Z</time>
      </trkpt>
      <trkpt lat="47.69985" lon="7.32343">
        <ele>295.7426758</ele>
        <time>2012-04-01T07:42:57Z</time>
      </trkpt>
      <trkpt lat="47.69976" lon="7.3232">
        <ele>295.7426758</ele>
        <time>2012-04-01T07:43:00Z</time>
      </trkpt>
      <trkpt lat="47.69959" lon="7.32313">
        <ele>295.2619629</ele>
        <time>2012-04-01T07:43:04Z</time>
      </trkpt>
      <trkpt lat="47.69942" lon="7.3232">
        <ele>296.7041016</ele>
        <time>2012-04-01T07:43:08Z</time>
      </trkpt>
      <trkpt lat="47.69936" lon="7.32309">
        <ele>296.7041016</ele>
        <time>2012-04-01T07:43:11Z</time>
      </trkpt>
      <trkpt lat="47.69937" lon="7.32297">
        <ele>296.2235107</ele>
        <time>2012-04-01T07:43:13Z</time>
      </trkpt>
      <trkpt lat="47.69934" lon="7.32253">
        <ele>296.2235107</ele>
        <time>2012-04-01T07:43:18Z</time>
      </trkpt>
      <trkpt lat="47.6993" lon="7.32244">
        <ele>295.7426758</ele>
        <time>2012-04-01T07:43:19Z</time>
      </trkpt>
      <trkpt lat="47.69893" lon="7.32176">
        <ele>293.3393555</ele>
        <time>2012-04-01T07:43:27Z</time>
      </trkpt>
      <trkpt lat="47.69887" lon="7.32163">
        <ele>292.8587646</ele>
        <time>2012-04-01T07:43:29Z</time>
      </trkpt>
      <trkpt lat="47.69876" lon="7.32159">
        <ele>292.8587646</ele>
        <time>2012-04-01T07:43:33Z</time>
      </trkpt>
      <trkpt lat="47.69873" lon="7.32164">
        <ele>293.3393555</ele>
        <time>2012-04-01T07:43:35Z</time>
      </trkpt>
      <trkpt lat="47.69865" lon="7.32173">
        <ele>294.3007812</ele>
        <time>2012-04-01T07:43:39Z</time>
      </trkpt>
      <trkpt lat="47.69848" lon="7.32193">
        <ele>298.1461182</ele>
        <time>2012-04-01T07:43:48Z</time>
      </trkpt>
      <trkpt lat="47.69832" lon="7.32213">
        <ele>301.991333</ele>
        <time>2012-04-01T07:43:56Z</time>
      </trkpt>
      <trkpt lat="47.69817" lon="7.32232">
        <ele>304.8752441</ele>
        <time>2012-04-01T07:44:03Z</time>
      </trkpt>
      <trkpt lat="47.69803" lon="7.3225">
        <ele>308.2398682</ele>
        <time>2012-04-01T07:44:10Z</time>
      </trkpt>
      <trkpt lat="47.69789" lon="7.32258">
        <ele>310.1624756</ele>
        <time>2012-04-01T07:44:16Z</time>
      </trkpt>
      <trkpt lat="47.69782" lon="7.32266">
        <ele>311.1237793</ele>
        <time>2012-04-01T07:44:21Z</time>
      </trkpt>
      <trkpt lat="47.69779" lon="7.32269">
        <ele>310.1624756</ele>
        <time>2012-04-01T07:44:25Z</time>
      </trkpt>
      <trkpt lat="47.69774" lon="7.32262">
        <ele>309.2011719</ele>
        <time>2012-04-01T07:44:32Z</time>
      </trkpt>
      <trkpt lat="47.69766" lon="7.32242">
        <ele>308.2398682</ele>
        <time>2012-04-01T07:44:39Z</time>
      </trkpt>
      <trkpt lat="47.69755" lon="7.32215">
        <ele>307.7592773</ele>
        <time>2012-04-01T07:44:46Z</time>
      </trkpt>
      <trkpt lat="47.69748" lon="7.32189">
        <ele>305.8366699</ele>
        <time>2012-04-01T07:44:51Z</time>
      </trkpt>
      <trkpt lat="47.69748" lon="7.3214">
        <ele>304.8752441</ele>
        <time>2012-04-01T07:44:57Z</time>
      </trkpt>
      <trkpt lat="47.69748" lon="7.32107">
        <ele>303.9139404</ele>
        <time>2012-04-01T07:45:01Z</time>
      </trkpt>
      <trkpt lat="47.69748" lon="7.32092">
        <ele>303.4332275</ele>
        <time>2012-04-01T07:45:03Z</time>
      </trkpt>
      <trkpt lat="47.69742" lon="7.32067">
        <ele>301.0299072</ele>
        <time>2012-04-01T07:45:07Z</time>
      </trkpt>
      <trkpt lat="47.69734" lon="7.32056">
        <ele>299.5880127</ele>
        <time>2012-04-01T07:45:10Z</time>
      </trkpt>
      <trkpt lat="47.69717" lon="7.32026">
        <ele>299.1072998</ele>
        <time>2012-04-01T07:45:16Z</time>
      </trkpt>
      <trkpt lat="47.69707" lon="7.32006">
        <ele>298.1461182</ele>
        <time>2012-04-01T07:45:19Z</time>
      </trkpt>
      <trkpt lat="47.69675" lon="7.31953">
        <ele>296.2235107</ele>
        <time>2012-04-01T07:45:27Z</time>
      </trkpt>
      <trkpt lat="47.69658" lon="7.31919">
        <ele>295.7426758</ele>
        <time>2012-04-01T07:45:33Z</time>
      </trkpt>
      <trkpt lat="47.69655" lon="7.31913">
        <ele>295.7426758</ele>
        <time>2012-04-01T07:45:34Z</time>
      </trkpt>
      <trkpt lat="47.69639" lon="7.31885">
        <ele>294.3007812</ele>
        <time>2012-04-01T07:45:39Z</time>
      </trkpt>
      <trkpt lat="47.69613" lon="7.31841">
        <ele>296.7041016</ele>
        <time>2012-04-01T07:45:46Z</time>
      </trkpt>
      <trkpt lat="47.69579" lon="7.31786">
        <ele>293.3393555</ele>
        <time>2012-04-01T07:45:54Z</time>
      </trkpt>
      <trkpt lat="47.69575" lon="7.31779">
        <ele>293.3393555</ele>
        <time>2012-04-01T07:45:55Z</time>
      </trkpt>
      <trkpt lat="47.69572" lon="7.31757">
        <ele>291.8974609</ele>
        <time>2012-04-01T07:45:59Z</time>
      </trkpt>
      <trkpt lat="47.69597" lon="7.31714">
        <ele>289.9748535</ele>
        <time>2012-04-01T07:46:08Z</time>
      </trkpt>
      <trkpt lat="47.69605" lon="7.31701">
        <ele>289.4941406</ele>
        <time>2012-04-01T07:46:12Z</time>
      </trkpt>
      <trkpt lat="47.69617" lon="7.31691">
        <ele>289.0135498</ele>
        <time>2012-04-01T07:46:18Z</time>
      </trkpt>
      <trkpt lat="47.69625" lon="7.31679">
        <ele>291.416748</ele>
        <time>2012-04-01T07:46:23Z</time>
      </trkpt>
      <trkpt lat="47.69631" lon="7.3167">
        <ele>287.5714111</ele>
        <time>2012-04-01T07:46:28Z</time>
      </trkpt>
      <trkpt lat="47.69639" lon="7.31658">
        <ele>283.2456055</ele>
        <time>2012-04-01T07:46:33Z</time>
      </trkpt>
      <trkpt lat="47.69644" lon="7.31648">
        <ele>276.5163574</ele>
        <time>2012-04-01T07:46:38Z</time>
      </trkpt>
      <trkpt lat="47.69647" lon="7.31639">
        <ele>273.1518555</ele>
        <time>2012-04-01T07:46:42Z</time>
      </trkpt>
      <trkpt lat="47.69648" lon="7.31634">
        <ele>274.59375</ele>
        <time>2012-04-01T07:46:45Z</time>
      </trkpt>
      <trkpt lat="47.6964" lon="7.31616">
        <ele>269.3065186</ele>
        <time>2012-04-01T07:46:53Z</time>
      </trkpt>
      <trkpt lat="47.69638" lon="7.31615">
        <ele>270.7484131</ele>
        <time>2012-04-01T07:46:54Z</time>
      </trkpt>
      <trkpt lat="47.69629" lon="7.31602">
        <ele>269.3065186</ele>
        <time>2012-04-01T07:47:00Z</time>
      </trkpt>
      <trkpt lat="47.69622" lon="7.31598">
        <ele>266.4224854</ele>
        <time>2012-04-01T07:47:05Z</time>
      </trkpt>
      <trkpt lat="47.69611" lon="7.31584">
        <ele>266.4224854</ele>
        <time>2012-04-01T07:47:09Z</time>
      </trkpt>
      <trkpt lat="47.69587" lon="7.31565">
        <ele>264.0192871</ele>
        <time>2012-04-01T07:47:14Z</time>
      </trkpt>
      <trkpt lat="47.69568" lon="7.31565">
        <ele>262.5771484</ele>
        <time>2012-04-01T07:47:18Z</time>
      </trkpt>
      <trkpt lat="47.69552" lon="7.3157">
        <ele>259.6933594</ele>
        <time>2012-04-01T07:47:22Z</time>
      </trkpt>
      <trkpt lat="47.69541" lon="7.31576">
        <ele>257.770752</ele>
        <time>2012-04-01T07:47:25Z</time>
      </trkpt>
      <trkpt lat="47.6952" lon="7.31596">
        <ele>257.770752</ele>
        <time>2012-04-01T07:47:32Z</time>
      </trkpt>
      <trkpt lat="47.69505" lon="7.31613">
        <ele>260.654541</ele>
        <time>2012-04-01T07:47:37Z</time>
      </trkpt>
      <trkpt lat="47.69477" lon="7.31644">
        <ele>266.4224854</ele>
        <time>2012-04-01T07:47:45Z</time>
      </trkpt>
      <trkpt lat="47.69471" lon="7.31652">
        <ele>266.9031982</ele>
        <time>2012-04-01T07:47:47Z</time>
      </trkpt>
      <trkpt lat="47.69456" lon="7.31672">
        <ele>269.7871094</ele>
        <time>2012-04-01T07:47:52Z</time>
      </trkpt>
      <trkpt lat="47.69449" lon="7.31679">
        <ele>268.8258057</ele>
        <time>2012-04-01T07:47:54Z</time>
      </trkpt>
      <trkpt lat="47.69419" lon="7.317">
        <ele>264.9805908</ele>
        <time>2012-04-01T07:48:02Z</time>
      </trkpt>
      <trkpt lat="47.69389" lon="7.3172">
        <ele>264.4998779</ele>
        <time>2012-04-01T07:48:10Z</time>
      </trkpt>
      <trkpt lat="47.6937" lon="7.31731">
        <ele>265.4613037</ele>
        <time>2012-04-01T07:48:15Z</time>
      </trkpt>
      <trkpt lat="47.69358" lon="7.31729">
        <ele>265.9418945</ele>
        <time>2012-04-01T07:48:18Z</time>
      </trkpt>
      <trkpt lat="47.69334" lon="7.31718">
        <ele>270.2677002</ele>
        <time>2012-04-01T07:48:25Z</time>
      </trkpt>
      <trkpt lat="47.69311" lon="7.31716">
        <ele>272.1904297</ele>
        <time>2012-04-01T07:48:32Z</time>
      </trkpt>
      <trkpt lat="47.69297" lon="7.3171">
        <ele>273.6324463</ele>
        <time>2012-04-01T07:48:37Z</time>
      </trkpt>
      <trkpt lat="47.69283" lon="7.31693">
        <ele>275.5550537</ele>
        <time>2012-04-01T07:48:43Z</time>
      </trkpt>
      <trkpt lat="47.69261" lon="7.31664">
        <ele>276.0356445</ele>
        <time>2012-04-01T07:48:52Z</time>
      </trkpt>
      <trkpt lat="47.69234" lon="7.31636">
        <ele>278.4389648</ele>
        <time>2012-04-01T07:49:02Z</time>
      </trkpt>
      <trkpt lat="47.69206" lon="7.31608">
        <ele>281.322998</ele>
        <time>2012-04-01T07:49:12Z</time>
      </trkpt>
      <trkpt lat="47.6919" lon="7.31592">
        <ele>283.7261963</ele>
        <time>2012-04-01T07:49:18Z</time>
      </trkpt>
      <trkpt lat="47.69167" lon="7.31566">
        <ele>286.6102295</ele>
        <time>2012-04-01T07:49:27Z</time>
      </trkpt>
      <trkpt lat="47.69141" lon="7.31538">
        <ele>290.4555664</ele>
        <time>2012-04-01T07:49:36Z</time>
      </trkpt>
      <trkpt lat="47.69121" lon="7.31513">
        <ele>295.2619629</ele>
        <time>2012-04-01T07:49:44Z</time>
      </trkpt>
      <trkpt lat="47.69108" lon="7.31496">
        <ele>298.1461182</ele>
        <time>2012-04-01T07:49:50Z</time>
      </trkpt>
      <trkpt lat="47.69098" lon="7.31478">
        <ele>301.0299072</ele>
        <time>2012-04-01T07:49:57Z</time>
      </trkpt>
      <trkpt lat="47.69086" lon="7.31456">
        <ele>302.4719238</ele>
        <time>2012-04-01T07:50:05Z</time>
      </trkpt>
      <trkpt lat="47.69071" lon="7.31428">
        <ele>303.9139404</ele>
        <time>2012-04-01T07:50:14Z</time>
      </trkpt>
      <trkpt lat="47.69055" lon="7.31392">
        <ele>305.8366699</ele>
        <time>2012-04-01T07:50:25Z</time>
      </trkpt>
      <trkpt lat="47.69046" lon="7.31373">
        <ele>306.7978516</ele>
        <time>2012-04-01T07:50:31Z</time>
      </trkpt>
      <trkpt lat="47.69034" lon="7.31346">
        <ele>308.2398682</ele>
        <time>2012-04-01T07:50:39Z</time>
      </trkpt>
      <trkpt lat="47.69027" lon="7.31329">
        <ele>308.720459</ele>
        <time>2012-04-01T07:50:45Z</time>
      </trkpt>
      <trkpt lat="47.6902" lon="7.31313">
        <ele>308.720459</ele>
        <time>2012-04-01T07:50:53Z</time>
      </trkpt>
      <trkpt lat="47.6902" lon="7.31311">
        <ele>308.720459</ele>
        <time>2012-04-01T07:50:54Z</time>
      </trkpt>
      <trkpt lat="47.6902" lon="7.3131">
        <ele>309.6818848</ele>
        <time>2012-04-01T07:51:05Z</time>
      </trkpt>
      <trkpt lat="47.69017" lon="7.31308">
        <ele>310.1624756</ele>
        <time>2012-04-01T07:51:10Z</time>
      </trkpt>
      <trkpt lat="47.69003" lon="7.31319">
        <ele>308.720459</ele>
        <time>2012-04-01T07:51:17Z</time>
      </trkpt>
      <trkpt lat="47.68987" lon="7.31337">
        <ele>307.2785645</ele>
        <time>2012-04-01T07:51:23Z</time>
      </trkpt>
      <trkpt lat="47.68972" lon="7.31344">
        <ele>306.3172607</ele>
        <time>2012-04-01T07:51:27Z</time>
      </trkpt>
      <trkpt lat="47.6896" lon="7.3133">
        <ele>306.3172607</ele>
        <time>2012-04-01T07:51:31Z</time>
      </trkpt>
      <trkpt lat="47.68954" lon="7.31321">
        <ele>306.3172607</ele>
        <time>2012-04-01T07:51:33Z</time>
      </trkpt>
      <trkpt lat="47.68947" lon="7.31311">
        <ele>305.8366699</ele>
        <time>2012-04-01T07:51:35Z</time>
      </trkpt>
      <trkpt lat="47.68915" lon="7.31262">
        <ele>305.355957</ele>
        <time>2012-04-01T07:51:44Z</time>
      </trkpt>
      <trkpt lat="47.68891" lon="7.31222">
        <ele>303.4332275</ele>
        <time>2012-04-01T07:51:50Z</time>
      </trkpt>
      <trkpt lat="47.68886" lon="7.31214">
        <ele>303.4332275</ele>
        <time>2012-04-01T07:51:51Z</time>
      </trkpt>
      <trkpt lat="47.68876" lon="7.31175">
        <ele>303.4332275</ele>
        <time>2012-04-01T07:51:55Z</time>
      </trkpt>
      <trkpt lat="47.68873" lon="7.31103">
        <ele>300.5493164</ele>
        <time>2012-04-01T07:52:00Z</time>
      </trkpt>
      <trkpt lat="47.68876" lon="7.31045">
        <ele>296.2235107</ele>
        <time>2012-04-01T07:52:04Z</time>
      </trkpt>
      <trkpt lat="47.68878" lon="7.31018">
        <ele>294.7813721</ele>
        <time>2012-04-01T07:52:07Z</time>
      </trkpt>
      <trkpt lat="47.68877" lon="7.31011">
        <ele>293.3393555</ele>
        <time>2012-04-01T07:52:09Z</time>
      </trkpt>
      <trkpt lat="47.68865" lon="7.31014">
        <ele>292.8587646</ele>
        <time>2012-04-01T07:52:13Z</time>
      </trkpt>
      <trkpt lat="47.68847" lon="7.31033">
        <ele>288.532959</ele>
        <time>2012-04-01T07:52:19Z</time>
      </trkpt>
      <trkpt lat="47.68828" lon="7.31047">
        <ele>286.1295166</ele>
        <time>2012-04-01T07:52:24Z</time>
      </trkpt>
      <trkpt lat="47.6882" lon="7.31051">
        <ele>286.1295166</ele>
        <time>2012-04-01T07:52:26Z</time>
      </trkpt>
      <trkpt lat="47.688" lon="7.31053">
        <ele>283.7261963</ele>
        <time>2012-04-01T07:52:31Z</time>
      </trkpt>
      <trkpt lat="47.68786" lon="7.31058">
        <ele>283.7261963</ele>
        <time>2012-04-01T07:52:34Z</time>
      </trkpt>
      <trkpt lat="47.68778" lon="7.31063">
        <ele>285.1682129</ele>
        <time>2012-04-01T07:52:36Z</time>
      </trkpt>
      <trkpt lat="47.68755" lon="7.31071">
        <ele>285.6488037</ele>
        <time>2012-04-01T07:52:41Z</time>
      </trkpt>
      <trkpt lat="47.68739" lon="7.3108">
        <ele>287.0908203</ele>
        <time>2012-04-01T07:52:45Z</time>
      </trkpt>
      <trkpt lat="47.68727" lon="7.31086">
        <ele>286.6102295</ele>
        <time>2012-04-01T07:52:48Z</time>
      </trkpt>
      <trkpt lat="47.68713" lon="7.31089">
        <ele>288.532959</ele>
        <time>2012-04-01T07:52:53Z</time>
      </trkpt>
      <trkpt lat="47.68693" lon="7.31085">
        <ele>286.6102295</ele>
        <time>2012-04-01T07:52:59Z</time>
      </trkpt>
      <trkpt lat="47.68668" lon="7.31082">
        <ele>291.416748</ele>
        <time>2012-04-01T07:53:05Z</time>
      </trkpt>
      <trkpt lat="47.68658" lon="7.3108">
        <ele>292.3781738</ele>
        <time>2012-04-01T07:53:07Z</time>
      </trkpt>
      <trkpt lat="47.68639" lon="7.31077">
        <ele>293.3393555</ele>
        <time>2012-04-01T07:53:11Z</time>
      </trkpt>
      <trkpt lat="47.68612" lon="7.31072">
        <ele>289.0135498</ele>
        <time>2012-04-01T07:53:17Z</time>
      </trkpt>
      <trkpt lat="47.68603" lon="7.31072">
        <ele>288.0522461</ele>
        <time>2012-04-01T07:53:19Z</time>
      </trkpt>
      <trkpt lat="47.6858" lon="7.31079">
        <ele>287.0908203</ele>
        <time>2012-04-01T07:53:24Z</time>
      </trkpt>
      <trkpt lat="47.68551" lon="7.31079">
        <ele>286.6102295</ele>
        <time>2012-04-01T07:53:30Z</time>
      </trkpt>
      <trkpt lat="47.68538" lon="7.31085">
        <ele>285.1682129</ele>
        <time>2012-04-01T07:53:34Z</time>
      </trkpt>
      <trkpt lat="47.68538" lon="7.31088">
        <ele>282.7650146</ele>
        <time>2012-04-01T07:53:38Z</time>
      </trkpt>
      <trkpt lat="47.68536" lon="7.31087">
        <ele>286.6102295</ele>
        <time>2012-04-01T07:53:45Z</time>
      </trkpt>
      <trkpt lat="47.68524" lon="7.31076">
        <ele>284.2069092</ele>
        <time>2012-04-01T07:53:50Z</time>
      </trkpt>
      <trkpt lat="47.68508" lon="7.31067">
        <ele>284.6876221</ele>
        <time>2012-04-01T07:53:54Z</time>
      </trkpt>
      <trkpt lat="47.68504" lon="7.31065">
        <ele>286.6102295</ele>
        <time>2012-04-01T07:53:55Z</time>
      </trkpt>
      <trkpt lat="47.6849" lon="7.3107">
        <ele>288.0522461</ele>
        <time>2012-04-01T07:53:58Z</time>
      </trkpt>
      <trkpt lat="47.68456" lon="7.31062">
        <ele>284.2069092</ele>
        <time>2012-04-01T07:54:03Z</time>
      </trkpt>
      <trkpt lat="47.68443" lon="7.31048">
        <ele>282.7650146</ele>
        <time>2012-04-01T07:54:06Z</time>
      </trkpt>
      <trkpt lat="47.68416" lon="7.3102">
        <ele>279.8808594</ele>
        <time>2012-04-01T07:54:11Z</time>
      </trkpt>
      <trkpt lat="47.68403" lon="7.31018">
        <ele>277.958252</ele>
        <time>2012-04-01T07:54:13Z</time>
      </trkpt>
      <trkpt lat="47.68368" lon="7.3103">
        <ele>276.9970703</ele>
        <time>2012-04-01T07:54:19Z</time>
      </trkpt>
      <trkpt lat="47.68352" lon="7.31036">
        <ele>277.4776611</ele>
        <time>2012-04-01T07:54:22Z</time>
      </trkpt>
      <trkpt lat="47.68323" lon="7.31042">
        <ele>276.0356445</ele>
        <time>2012-04-01T07:54:28Z</time>
      </trkpt>
      <trkpt lat="47.68304" lon="7.31043">
        <ele>275.5550537</ele>
        <time>2012-04-01T07:54:32Z</time>
      </trkpt>
      <trkpt lat="47.68287" lon="7.31038">
        <ele>276.5163574</ele>
        <time>2012-04-01T07:54:36Z</time>
      </trkpt>
      <trkpt lat="47.68267" lon="7.31042">
        <ele>278.9196777</ele>
        <time>2012-04-01T07:54:41Z</time>
      </trkpt>
      <trkpt lat="47.68263" lon="7.31045">
        <ele>279.8808594</ele>
        <time>2012-04-01T07:54:42Z</time>
      </trkpt>
      <trkpt lat="47.68243" lon="7.3107">
        <ele>284.2069092</ele>
        <time>2012-04-01T07:54:48Z</time>
      </trkpt>
      <trkpt lat="47.68232" lon="7.31082">
        <ele>285.6488037</ele>
        <time>2012-04-01T07:54:51Z</time>
      </trkpt>
      <trkpt lat="47.68221" lon="7.31098">
        <ele>289.4941406</ele>
        <time>2012-04-01T07:54:54Z</time>
      </trkpt>
      <trkpt lat="47.68204" lon="7.31112">
        <ele>291.416748</ele>
        <time>2012-04-01T07:54:59Z</time>
      </trkpt>
      <trkpt lat="47.68192" lon="7.31133">
        <ele>293.8200684</ele>
        <time>2012-04-01T07:55:05Z</time>
      </trkpt>
      <trkpt lat="47.68186" lon="7.31156">
        <ele>297.6654053</ele>
        <time>2012-04-01T07:55:09Z</time>
      </trkpt>
      <trkpt lat="47.68178" lon="7.31184">
        <ele>302.9525146</ele>
        <time>2012-04-01T07:55:14Z</time>
      </trkpt>
      <trkpt lat="47.68169" lon="7.31211">
        <ele>305.355957</ele>
        <time>2012-04-01T07:55:19Z</time>
      </trkpt>
      <trkpt lat="47.68157" lon="7.31233">
        <ele>305.355957</ele>
        <time>2012-04-01T07:55:24Z</time>
      </trkpt>
      <trkpt lat="47.68143" lon="7.31261">
        <ele>305.8366699</ele>
        <time>2012-04-01T07:55:30Z</time>
      </trkpt>
      <trkpt lat="47.68129" lon="7.31283">
        <ele>310.1624756</ele>
        <time>2012-04-01T07:55:36Z</time>
      </trkpt>
      <trkpt lat="47.68115" lon="7.31304">
        <ele>306.3172607</ele>
        <time>2012-04-01T07:55:42Z</time>
      </trkpt>
      <trkpt lat="47.68111" lon="7.31307">
        <ele>305.8366699</ele>
        <time>2012-04-01T07:55:43Z</time>
      </trkpt>
      <trkpt lat="47.68092" lon="7.31294">
        <ele>304.3946533</ele>
        <time>2012-04-01T07:55:48Z</time>
      </trkpt>
      <trkpt lat="47.68089" lon="7.31274">
        <ele>300.5493164</ele>
        <time>2012-04-01T07:55:50Z</time>
      </trkpt>
      <trkpt lat="47.68084" lon="7.31226">
        <ele>289.9748535</ele>
        <time>2012-04-01T07:55:55Z</time>
      </trkpt>
      <trkpt lat="47.68092" lon="7.312">
        <ele>288.0522461</ele>
        <time>2012-04-01T07:55:59Z</time>
      </trkpt>
      <trkpt lat="47.68098" lon="7.31167">
        <ele>287.5714111</ele>
        <time>2012-04-01T07:56:04Z</time>
      </trkpt>
      <trkpt lat="47.68095" lon="7.31153">
        <ele>286.6102295</ele>
        <time>2012-04-01T07:56:06Z</time>
      </trkpt>
      <trkpt lat="47.68092" lon="7.3113">
        <ele>280.8424072</ele>
        <time>2012-04-01T07:56:11Z</time>
      </trkpt>
      <trkpt lat="47.68093" lon="7.3113">
        <ele>283.7261963</ele>
        <time>2012-04-01T07:56:20Z</time>
      </trkpt>
      <trkpt lat="47.68093" lon="7.31127">
        <ele>284.2069092</ele>
        <time>2012-04-01T07:56:26Z</time>
      </trkpt>
      <trkpt lat="47.68096" lon="7.31129">
        <ele>282.7650146</ele>
        <time>2012-04-01T07:56:32Z</time>
      </trkpt>
      <trkpt lat="47.68096" lon="7.31131">
        <ele>282.7650146</ele>
        <time>2012-04-01T07:56:38Z</time>
      </trkpt>
      <trkpt lat="47.68091" lon="7.3113">
        <ele>284.2069092</ele>
        <time>2012-04-01T07:57:13Z</time>
      </trkpt>
      <trkpt lat="47.6809" lon="7.31131">
        <ele>281.8035889</ele>
        <time>2012-04-01T07:57:42Z</time>
      </trkpt>
      <trkpt lat="47.6809" lon="7.3113">
        <ele>281.322998</ele>
        <time>2012-04-01T07:57:48Z</time>
      </trkpt>
      <trkpt lat="47.6809" lon="7.3113">
        <ele>282.7650146</ele>
        <time>2012-04-01T07:57:58Z</time>
      </trkpt>
      <trkpt lat="47.68091" lon="7.31128">
        <ele>279.8808594</ele>
        <time>2012-04-01T07:59:06Z</time>
      </trkpt>
      <trkpt lat="47.68091" lon="7.31128">
        <ele>279.4002686</ele>
        <time>2012-04-01T07:59:22Z</time>
      </trkpt>
      <trkpt lat="47.68091" lon="7.31129">
        <ele>278.4389648</ele>
        <time>2012-04-01T08:00:01Z</time>
      </trkpt>
      <trkpt lat="47.68091" lon="7.31129">
        <ele>280.3616943</ele>
        <time>2012-04-01T08:00:40Z</time>
      </trkpt>
      <trkpt lat="47.6809" lon="7.31129">
        <ele>280.3616943</ele>
        <time>2012-04-01T08:00:47Z</time>
      </trkpt>
      <trkpt lat="47.68088" lon="7.3113">
        <ele>274.59375</ele>
        <time>2012-04-01T08:01:32Z</time>
      </trkpt>
      <trkpt lat="47.68086" lon="7.31125">
        <ele>282.7650146</ele>
        <time>2012-04-01T08:02:10Z</time>
      </trkpt>
      <trkpt lat="47.68088" lon="7.31123">
        <ele>288.0522461</ele>
        <time>2012-04-01T08:02:17Z</time>
      </trkpt>
      <trkpt lat="47.68091" lon="7.31121">
        <ele>289.4941406</ele>
        <time>2012-04-01T08:02:27Z</time>
      </trkpt>
      <trkpt lat="47.68089" lon="7.31114">
        <ele>293.8200684</ele>
        <time>2012-04-01T08:02:33Z</time>
      </trkpt>
      <trkpt lat="47.68091" lon="7.31101">
        <ele>293.8200684</ele>
        <time>2012-04-01T08:02:37Z</time>
      </trkpt>
      <trkpt lat="47.6809" lon="7.31085">
        <ele>292.3781738</ele>
        <time>2012-04-01T08:02:40Z</time>
      </trkpt>
      <trkpt lat="47.6807" lon="7.31069">
        <ele>290.4555664</ele>
        <time>2012-04-01T08:02:46Z</time>
      </trkpt>
      <trkpt lat="47.68055" lon="7.31051">
        <ele>289.4941406</ele>
        <time>2012-04-01T08:02:51Z</time>
      </trkpt>
      <trkpt lat="47.68038" lon="7.31032">
        <ele>293.3393555</ele>
        <time>2012-04-01T08:02:56Z</time>
      </trkpt>
      <trkpt lat="47.68035" lon="7.31027">
        <ele>293.3393555</ele>
        <time>2012-04-01T08:02:57Z</time>
      </trkpt>
      <trkpt lat="47.68028" lon="7.3101">
        <ele>290.4555664</ele>
        <time>2012-04-01T08:03:01Z</time>
      </trkpt>
      <trkpt lat="47.68014" lon="7.30978">
        <ele>291.8974609</ele>
        <time>2012-04-01T08:03:07Z</time>
      </trkpt>
      <trkpt lat="47.68013" lon="7.30971">
        <ele>291.8974609</ele>
        <time>2012-04-01T08:03:08Z</time>
      </trkpt>
      <trkpt lat="47.6801" lon="7.30961">
        <ele>290.4555664</ele>
        <time>2012-04-01T08:03:10Z</time>
      </trkpt>
      <trkpt lat="47.68008" lon="7.3095">
        <ele>289.4941406</ele>
        <time>2012-04-01T08:03:12Z</time>
      </trkpt>
      <trkpt lat="47.68004" lon="7.3094">
        <ele>289.0135498</ele>
        <time>2012-04-01T08:03:14Z</time>
      </trkpt>
      <trkpt lat="47.67989" lon="7.30906">
        <ele>289.4941406</ele>
        <time>2012-04-01T08:03:21Z</time>
      </trkpt>
      <trkpt lat="47.67974" lon="7.30886">
        <ele>292.8587646</ele>
        <time>2012-04-01T08:03:27Z</time>
      </trkpt>
      <trkpt lat="47.67962" lon="7.30875">
        <ele>295.7426758</ele>
        <time>2012-04-01T08:03:31Z</time>
      </trkpt>
      <trkpt lat="47.67946" lon="7.30855">
        <ele>302.4719238</ele>
        <time>2012-04-01T08:03:37Z</time>
      </trkpt>
      <trkpt lat="47.67941" lon="7.30831">
        <ele>303.9139404</ele>
        <time>2012-04-01T08:03:42Z</time>
      </trkpt>
      <trkpt lat="47.67939" lon="7.30805">
        <ele>302.4719238</ele>
        <time>2012-04-01T08:03:47Z</time>
      </trkpt>
      <trkpt lat="47.67936" lon="7.30775">
        <ele>302.9525146</ele>
        <time>2012-04-01T08:03:52Z</time>
      </trkpt>
      <trkpt lat="47.67934" lon="7.30755">
        <ele>305.8366699</ele>
        <time>2012-04-01T08:03:55Z</time>
      </trkpt>
      <trkpt lat="47.67931" lon="7.30729">
        <ele>306.3172607</ele>
        <time>2012-04-01T08:03:59Z</time>
      </trkpt>
      <trkpt lat="47.67927" lon="7.30694">
        <ele>306.7978516</ele>
        <time>2012-04-01T08:04:05Z</time>
      </trkpt>
      <trkpt lat="47.67923" lon="7.30668">
        <ele>307.7592773</ele>
        <time>2012-04-01T08:04:09Z</time>
      </trkpt>
      <trkpt lat="47.67916" lon="7.30645">
        <ele>302.4719238</ele>
        <time>2012-04-01T08:04:13Z</time>
      </trkpt>
      <trkpt lat="47.6791" lon="7.30631">
        <ele>300.0687256</ele>
        <time>2012-04-01T08:04:16Z</time>
      </trkpt>
      <trkpt lat="47.67906" lon="7.30621">
        <ele>301.0299072</ele>
        <time>2012-04-01T08:04:18Z</time>
      </trkpt>
      <trkpt lat="47.67893" lon="7.30594">
        <ele>301.0299072</ele>
        <time>2012-04-01T08:04:24Z</time>
      </trkpt>
      <trkpt lat="47.67882" lon="7.30567">
        <ele>297.1846924</ele>
        <time>2012-04-01T08:04:29Z</time>
      </trkpt>
      <trkpt lat="47.67879" lon="7.30561">
        <ele>296.2235107</ele>
        <time>2012-04-01T08:04:30Z</time>
      </trkpt>
      <trkpt lat="47.67863" lon="7.30509">
        <ele>294.3007812</ele>
        <time>2012-04-01T08:04:38Z</time>
      </trkpt>
      <trkpt lat="47.67861" lon="7.30503">
        <ele>294.7813721</ele>
        <time>2012-04-01T08:04:39Z</time>
      </trkpt>
      <trkpt lat="47.67858" lon="7.3049">
        <ele>294.3007812</ele>
        <time>2012-04-01T08:04:41Z</time>
      </trkpt>
      <trkpt lat="47.67849" lon="7.30466">
        <ele>291.8974609</ele>
        <time>2012-04-01T08:04:45Z</time>
      </trkpt>
      <trkpt lat="47.67845" lon="7.30449">
        <ele>293.8200684</ele>
        <time>2012-04-01T08:04:48Z</time>
      </trkpt>
      <trkpt lat="47.67837" lon="7.3042">
        <ele>297.6654053</ele>
        <time>2012-04-01T08:04:53Z</time>
      </trkpt>
      <trkpt lat="47.67825" lon="7.30394">
        <ele>297.6654053</ele>
        <time>2012-04-01T08:04:58Z</time>
      </trkpt>
      <trkpt lat="47.67818" lon="7.3037">
        <ele>295.2619629</ele>
        <time>2012-04-01T08:05:02Z</time>
      </trkpt>
      <trkpt lat="47.67801" lon="7.3034">
        <ele>297.6654053</ele>
        <time>2012-04-01T08:05:08Z</time>
      </trkpt>
      <trkpt lat="47.67798" lon="7.30334">
        <ele>296.7041016</ele>
        <time>2012-04-01T08:05:09Z</time>
      </trkpt>
      <trkpt lat="47.67785" lon="7.30305">
        <ele>295.7426758</ele>
        <time>2012-04-01T08:05:14Z</time>
      </trkpt>
      <trkpt lat="47.67772" lon="7.30277">
        <ele>295.2619629</ele>
        <time>2012-04-01T08:05:19Z</time>
      </trkpt>
      <trkpt lat="47.67764" lon="7.30261">
        <ele>295.7426758</ele>
        <time>2012-04-01T08:05:22Z</time>
      </trkpt>
      <trkpt lat="47.67742" lon="7.30237">
        <ele>298.1461182</ele>
        <time>2012-04-01T08:05:28Z</time>
      </trkpt>
      <trkpt lat="47.6773" lon="7.30227">
        <ele>300.0687256</ele>
        <time>2012-04-01T08:05:31Z</time>
      </trkpt>
      <trkpt lat="47.6771" lon="7.30213">
        <ele>300.0687256</ele>
        <time>2012-04-01T08:05:36Z</time>
      </trkpt>
      <trkpt lat="47.67695" lon="7.302">
        <ele>304.3946533</ele>
        <time>2012-04-01T08:05:40Z</time>
      </trkpt>
      <trkpt lat="47.67685" lon="7.30189">
        <ele>305.355957</ele>
        <time>2012-04-01T08:05:43Z</time>
      </trkpt>
      <trkpt lat="47.67678" lon="7.30183">
        <ele>308.2398682</ele>
        <time>2012-04-01T08:05:45Z</time>
      </trkpt>
      <trkpt lat="47.67657" lon="7.30164">
        <ele>315.9304199</ele>
        <time>2012-04-01T08:05:52Z</time>
      </trkpt>
      <trkpt lat="47.67635" lon="7.30142">
        <ele>318.3336182</ele>
        <time>2012-04-01T08:05:59Z</time>
      </trkpt>
      <trkpt lat="47.67628" lon="7.30132">
        <ele>316.4110107</ele>
        <time>2012-04-01T08:06:01Z</time>
      </trkpt>
      <trkpt lat="47.67623" lon="7.30121">
        <ele>316.4110107</ele>
        <time>2012-04-01T08:06:03Z</time>
      </trkpt>
      <trkpt lat="47.67618" lon="7.30103">
        <ele>315.4498291</ele>
        <time>2012-04-01T08:06:06Z</time>
      </trkpt>
      <trkpt lat="47.67619" lon="7.30086">
        <ele>314.0078125</ele>
        <time>2012-04-01T08:06:09Z</time>
      </trkpt>
      <trkpt lat="47.67619" lon="7.3007">
        <ele>312.5657959</ele>
        <time>2012-04-01T08:06:12Z</time>
      </trkpt>
      <trkpt lat="47.67615" lon="7.30033">
        <ele>311.1237793</ele>
        <time>2012-04-01T08:06:18Z</time>
      </trkpt>
      <trkpt lat="47.67611" lon="7.30013">
        <ele>309.2011719</ele>
        <time>2012-04-01T08:06:22Z</time>
      </trkpt>
      <trkpt lat="47.67608" lon="7.29986">
        <ele>308.2398682</ele>
        <time>2012-04-01T08:06:27Z</time>
      </trkpt>
      <trkpt lat="47.67603" lon="7.29972">
        <ele>306.3172607</ele>
        <time>2012-04-01T08:06:29Z</time>
      </trkpt>
      <trkpt lat="47.67593" lon="7.29939">
        <ele>305.355957</ele>
        <time>2012-04-01T08:06:34Z</time>
      </trkpt>
      <trkpt lat="47.67589" lon="7.29915">
        <ele>306.3172607</ele>
        <time>2012-04-01T08:06:39Z</time>
      </trkpt>
      <trkpt lat="47.67588" lon="7.29879">
        <ele>304.8752441</ele>
        <time>2012-04-01T08:06:45Z</time>
      </trkpt>
      <trkpt lat="47.67589" lon="7.29857">
        <ele>303.4332275</ele>
        <time>2012-04-01T08:06:49Z</time>
      </trkpt>
      <trkpt lat="47.6759" lon="7.29829">
        <ele>302.9525146</ele>
        <time>2012-04-01T08:06:54Z</time>
      </trkpt>
      <trkpt lat="47.67591" lon="7.29795">
        <ele>305.8366699</ele>
        <time>2012-04-01T08:07:00Z</time>
      </trkpt>
      <trkpt lat="47.6759" lon="7.29765">
        <ele>313.5272217</ele>
        <time>2012-04-01T08:07:05Z</time>
      </trkpt>
      <trkpt lat="47.67589" lon="7.29737">
        <ele>314.0078125</ele>
        <time>2012-04-01T08:07:10Z</time>
      </trkpt>
      <trkpt lat="47.67587" lon="7.29711">
        <ele>313.0465088</ele>
        <time>2012-04-01T08:07:15Z</time>
      </trkpt>
      <trkpt lat="47.67581" lon="7.29686">
        <ele>317.8530273</ele>
        <time>2012-04-01T08:07:20Z</time>
      </trkpt>
      <trkpt lat="47.67579" lon="7.29662">
        <ele>326.0241699</ele>
        <time>2012-04-01T08:07:24Z</time>
      </trkpt>
      <trkpt lat="47.6758" lon="7.2964">
        <ele>329.8695068</ele>
        <time>2012-04-01T08:07:28Z</time>
      </trkpt>
      <trkpt lat="47.67576" lon="7.29616">
        <ele>340.4440918</ele>
        <time>2012-04-01T08:07:33Z</time>
      </trkpt>
      <trkpt lat="47.67577" lon="7.29593">
        <ele>342.3666992</ele>
        <time>2012-04-01T08:07:38Z</time>
      </trkpt>
      <trkpt lat="47.67575" lon="7.29571">
        <ele>340.9246826</ele>
        <time>2012-04-01T08:07:43Z</time>
      </trkpt>
      <trkpt lat="47.67579" lon="7.29549">
        <ele>338.0407715</ele>
        <time>2012-04-01T08:07:48Z</time>
      </trkpt>
      <trkpt lat="47.67585" lon="7.29529">
        <ele>334.6761475</ele>
        <time>2012-04-01T08:07:52Z</time>
      </trkpt>
      <trkpt lat="47.67592" lon="7.29504">
        <ele>334.6761475</ele>
        <time>2012-04-01T08:07:57Z</time>
      </trkpt>
      <trkpt lat="47.67598" lon="7.29475">
        <ele>337.0794678</ele>
        <time>2012-04-01T08:08:03Z</time>
      </trkpt>
      <trkpt lat="47.67601" lon="7.29446">
        <ele>339.482666</ele>
        <time>2012-04-01T08:08:08Z</time>
      </trkpt>
      <trkpt lat="47.67606" lon="7.29422">
        <ele>336.1181641</ele>
        <time>2012-04-01T08:08:12Z</time>
      </trkpt>
      <trkpt lat="47.67606" lon="7.29411">
        <ele>335.6373291</ele>
        <time>2012-04-01T08:08:14Z</time>
      </trkpt>
      <trkpt lat="47.67606" lon="7.2937">
        <ele>336.1181641</ele>
        <time>2012-04-01T08:08:20Z</time>
      </trkpt>
      <trkpt lat="47.67601" lon="7.29351">
        <ele>334.1954346</ele>
        <time>2012-04-01T08:08:23Z</time>
      </trkpt>
      <trkpt lat="47.67599" lon="7.29321">
        <ele>335.6373291</ele>
        <time>2012-04-01T08:08:28Z</time>
      </trkpt>
      <trkpt lat="47.67599" lon="7.2931">
        <ele>334.6761475</ele>
        <time>2012-04-01T08:08:30Z</time>
      </trkpt>
      <trkpt lat="47.67599" lon="7.29281">
        <ele>332.75354</ele>
        <time>2012-04-01T08:08:35Z</time>
      </trkpt>
      <trkpt lat="47.67594" lon="7.29266">
        <ele>334.1954346</ele>
        <time>2012-04-01T08:08:38Z</time>
      </trkpt>
      <trkpt lat="47.67585" lon="7.29244">
        <ele>335.6373291</ele>
        <time>2012-04-01T08:08:43Z</time>
      </trkpt>
      <trkpt lat="47.67568" lon="7.29221">
        <ele>338.0407715</ele>
        <time>2012-04-01T08:08:48Z</time>
      </trkpt>
      <trkpt lat="47.67556" lon="7.29199">
        <ele>342.3666992</ele>
        <time>2012-04-01T08:08:54Z</time>
      </trkpt>
      <trkpt lat="47.67553" lon="7.29177">
        <ele>344.7700195</ele>
        <time>2012-04-01T08:08:58Z</time>
      </trkpt>
      <trkpt lat="47.67544" lon="7.29145">
        <ele>347.1732178</ele>
        <time>2012-04-01T08:09:03Z</time>
      </trkpt>
      <trkpt lat="47.67541" lon="7.29134">
        <ele>348.6152344</ele>
        <time>2012-04-01T08:09:05Z</time>
      </trkpt>
      <trkpt lat="47.67534" lon="7.2912">
        <ele>353.421875</ele>
        <time>2012-04-01T08:09:08Z</time>
      </trkpt>
      <trkpt lat="47.67515" lon="7.29096">
        <ele>361.5931396</ele>
        <time>2012-04-01T08:09:14Z</time>
      </trkpt>
      <trkpt lat="47.67511" lon="7.29095">
        <ele>362.0737305</ele>
        <time>2012-04-01T08:09:15Z</time>
      </trkpt>
      <trkpt lat="47.67495" lon="7.29076">
        <ele>362.0737305</ele>
        <time>2012-04-01T08:09:21Z</time>
      </trkpt>
      <trkpt lat="47.67493" lon="7.29058">
        <ele>360.6317139</ele>
        <time>2012-04-01T08:09:25Z</time>
      </trkpt>
      <trkpt lat="47.67493" lon="7.29034">
        <ele>362.0737305</ele>
        <time>2012-04-01T08:09:33Z</time>
      </trkpt>
      <trkpt lat="47.67493" lon="7.29031">
        <ele>361.5931396</ele>
        <time>2012-04-01T08:09:34Z</time>
      </trkpt>
      <trkpt lat="47.6749" lon="7.29017">
        <ele>359.1896973</ele>
        <time>2012-04-01T08:09:41Z</time>
      </trkpt>
      <trkpt lat="47.67489" lon="7.29002">
        <ele>358.2283936</ele>
        <time>2012-04-01T08:09:48Z</time>
      </trkpt>
      <trkpt lat="47.67489" lon="7.28991">
        <ele>358.7089844</ele>
        <time>2012-04-01T08:09:53Z</time>
      </trkpt>
      <trkpt lat="47.67491" lon="7.28975">
        <ele>356.786377</ele>
        <time>2012-04-01T08:10:00Z</time>
      </trkpt>
      <trkpt lat="47.67491" lon="7.28973">
        <ele>357.2670898</ele>
        <time>2012-04-01T08:10:01Z</time>
      </trkpt>
      <trkpt lat="47.67491" lon="7.28959">
        <ele>358.7089844</ele>
        <time>2012-04-01T08:10:07Z</time>
      </trkpt>
      <trkpt lat="47.67488" lon="7.28954">
        <ele>357.2670898</ele>
        <time>2012-04-01T08:10:12Z</time>
      </trkpt>
      <trkpt lat="47.67486" lon="7.2895">
        <ele>358.7089844</ele>
        <time>2012-04-01T08:10:18Z</time>
      </trkpt>
      <trkpt lat="47.67484" lon="7.28945">
        <ele>355.8251953</ele>
        <time>2012-04-01T08:10:25Z</time>
      </trkpt>
      <trkpt lat="47.67483" lon="7.28944">
        <ele>355.8251953</ele>
        <time>2012-04-01T08:10:32Z</time>
      </trkpt>
      <trkpt lat="47.67481" lon="7.28941">
        <ele>353.421875</ele>
        <time>2012-04-01T08:10:45Z</time>
      </trkpt>
      <trkpt lat="47.6748" lon="7.28946">
        <ele>351.4991455</ele>
        <time>2012-04-01T08:10:57Z</time>
      </trkpt>
      <trkpt lat="47.6748" lon="7.28945">
        <ele>348.6152344</ele>
        <time>2012-04-01T08:11:08Z</time>
      </trkpt>
      <trkpt lat="47.67483" lon="7.28947">
        <ele>340.9246826</ele>
        <time>2012-04-01T08:11:20Z</time>
      </trkpt>
      <trkpt lat="47.67482" lon="7.28949">
        <ele>337.0794678</ele>
        <time>2012-04-01T08:11:27Z</time>
      </trkpt>
      <trkpt lat="47.67481" lon="7.28952">
        <ele>332.75354</ele>
        <time>2012-04-01T08:11:33Z</time>
      </trkpt>
      <trkpt lat="47.67485" lon="7.28951">
        <ele>339.9633789</ele>
        <time>2012-04-01T08:12:00Z</time>
      </trkpt>
      <trkpt lat="47.67493" lon="7.28941">
        <ele>376.9742432</ele>
        <time>2012-04-01T08:12:55Z</time>
      </trkpt>
      <trkpt lat="47.67493" lon="7.2894">
        <ele>374.5708008</ele>
        <time>2012-04-01T08:13:04Z</time>
      </trkpt>
      <trkpt lat="47.67489" lon="7.28941">
        <ele>367.3609619</ele>
        <time>2012-04-01T08:13:18Z</time>
      </trkpt>
      <trkpt lat="47.67489" lon="7.28936">
        <ele>360.151123</ele>
        <time>2012-04-01T08:13:25Z</time>
      </trkpt>
      <trkpt lat="47.67495" lon="7.28925">
        <ele>355.8251953</ele>
        <time>2012-04-01T08:13:30Z</time>
      </trkpt>
      <trkpt lat="47.67517" lon="7.28925">
        <ele>349.5765381</ele>
        <time>2012-04-01T08:13:37Z</time>
      </trkpt>
      <trkpt lat="47.67542" lon="7.28924">
        <ele>347.1732178</ele>
        <time>2012-04-01T08:13:45Z</time>
      </trkpt>
      <trkpt lat="47.67564" lon="7.28926">
        <ele>346.692627</ele>
        <time>2012-04-01T08:13:50Z</time>
      </trkpt>
      <trkpt lat="47.6758" lon="7.28931">
        <ele>348.6152344</ele>
        <time>2012-04-01T08:13:54Z</time>
      </trkpt>
      <trkpt lat="47.67596" lon="7.2892">
        <ele>351.4991455</ele>
        <time>2012-04-01T08:13:58Z</time>
      </trkpt>
      <trkpt lat="47.67616" lon="7.28899">
        <ele>354.8637695</ele>
        <time>2012-04-01T08:14:04Z</time>
      </trkpt>
      <trkpt lat="47.67634" lon="7.28881">
        <ele>358.7089844</ele>
        <time>2012-04-01T08:14:10Z</time>
      </trkpt>
      <trkpt lat="47.67661" lon="7.28854">
        <ele>363.9963379</ele>
        <time>2012-04-01T08:14:19Z</time>
      </trkpt>
      <trkpt lat="47.6768" lon="7.28833">
        <ele>368.3222656</ele>
        <time>2012-04-01T08:14:27Z</time>
      </trkpt>
      <trkpt lat="47.67696" lon="7.28816">
        <ele>371.6868896</ele>
        <time>2012-04-01T08:14:34Z</time>
      </trkpt>
      <trkpt lat="47.6771" lon="7.28804">
        <ele>371.2062988</ele>
        <time>2012-04-01T08:14:39Z</time>
      </trkpt>
      <trkpt lat="47.67731" lon="7.28784">
        <ele>370.7255859</ele>
        <time>2012-04-01T08:14:47Z</time>
      </trkpt>
      <trkpt lat="47.67748" lon="7.28769">
        <ele>370.7255859</ele>
        <time>2012-04-01T08:14:53Z</time>
      </trkpt>
      <trkpt lat="47.67771" lon="7.28746">
        <ele>371.2062988</ele>
        <time>2012-04-01T08:15:02Z</time>
      </trkpt>
      <trkpt lat="47.67788" lon="7.28729">
        <ele>371.6868896</ele>
        <time>2012-04-01T08:15:11Z</time>
      </trkpt>
      <trkpt lat="47.67789" lon="7.28728">
        <ele>371.6868896</ele>
        <time>2012-04-01T08:15:12Z</time>
      </trkpt>
      <trkpt lat="47.67796" lon="7.28734">
        <ele>375.0515137</ele>
        <time>2012-04-01T08:15:17Z</time>
      </trkpt>
      <trkpt lat="47.67798" lon="7.28742">
        <ele>376.0128174</ele>
        <time>2012-04-01T08:15:20Z</time>
      </trkpt>
      <trkpt lat="47.67808" lon="7.28774">
        <ele>376.4935303</ele>
        <time>2012-04-01T08:15:30Z</time>
      </trkpt>
      <trkpt lat="47.67818" lon="7.28799">
        <ele>375.5321045</ele>
        <time>2012-04-01T08:15:37Z</time>
      </trkpt>
      <trkpt lat="47.6783" lon="7.2883">
        <ele>375.5321045</ele>
        <time>2012-04-01T08:15:44Z</time>
      </trkpt>
      <trkpt lat="47.67849" lon="7.28876">
        <ele>373.6094971</ele>
        <time>2012-04-01T08:15:54Z</time>
      </trkpt>
      <trkpt lat="47.67861" lon="7.28887">
        <ele>375.0515137</ele>
        <time>2012-04-01T08:15:58Z</time>
      </trkpt>
      <trkpt lat="47.67875" lon="7.28878">
        <ele>377.454834</ele>
        <time>2012-04-01T08:16:02Z</time>
      </trkpt>
      <trkpt lat="47.679" lon="7.28852">
        <ele>380.3387451</ele>
        <time>2012-04-01T08:16:10Z</time>
      </trkpt>
      <trkpt lat="47.6793" lon="7.2882">
        <ele>380.819458</ele>
        <time>2012-04-01T08:16:20Z</time>
      </trkpt>
      <trkpt lat="47.67952" lon="7.28795">
        <ele>381.7806396</ele>
        <time>2012-04-01T08:16:28Z</time>
      </trkpt>
      <trkpt lat="47.67963" lon="7.28784">
        <ele>384.184082</ele>
        <time>2012-04-01T08:16:34Z</time>
      </trkpt>
      <trkpt lat="47.67973" lon="7.28773">
        <ele>385.6259766</ele>
        <time>2012-04-01T08:16:42Z</time>
      </trkpt>
      <trkpt lat="47.67986" lon="7.2876">
        <ele>383.7032471</ele>
        <time>2012-04-01T08:16:48Z</time>
      </trkpt>
      <trkpt lat="47.68002" lon="7.28745">
        <ele>381.7806396</ele>
        <time>2012-04-01T08:16:54Z</time>
      </trkpt>
      <trkpt lat="47.68005" lon="7.28744">
        <ele>381.7806396</ele>
        <time>2012-04-01T08:16:55Z</time>
      </trkpt>
      <trkpt lat="47.68016" lon="7.28756">
        <ele>381.3000488</ele>
        <time>2012-04-01T08:16:59Z</time>
      </trkpt>
      <trkpt lat="47.68028" lon="7.28787">
        <ele>379.3774414</ele>
        <time>2012-04-01T08:17:06Z</time>
      </trkpt>
      <trkpt lat="47.68042" lon="7.28819">
        <ele>376.4935303</ele>
        <time>2012-04-01T08:17:12Z</time>
      </trkpt>
      <trkpt lat="47.6806" lon="7.2886">
        <ele>373.6094971</ele>
        <time>2012-04-01T08:17:19Z</time>
      </trkpt>
      <trkpt lat="47.68078" lon="7.28897">
        <ele>371.2062988</ele>
        <time>2012-04-01T08:17:25Z</time>
      </trkpt>
      <trkpt lat="47.68089" lon="7.28918">
        <ele>369.7642822</ele>
        <time>2012-04-01T08:17:30Z</time>
      </trkpt>
      <trkpt lat="47.68099" lon="7.28938">
        <ele>370.7255859</ele>
        <time>2012-04-01T08:17:36Z</time>
      </trkpt>
      <trkpt lat="47.68113" lon="7.28963">
        <ele>370.244873</ele>
        <time>2012-04-01T08:17:41Z</time>
      </trkpt>
      <trkpt lat="47.68122" lon="7.28975">
        <ele>369.7642822</ele>
        <time>2012-04-01T08:17:43Z</time>
      </trkpt>
      <trkpt lat="47.68145" lon="7.2898">
        <ele>368.8029785</ele>
        <time>2012-04-01T08:17:47Z</time>
      </trkpt>
      <trkpt lat="47.68172" lon="7.28967">
        <ele>366.880249</ele>
        <time>2012-04-01T08:17:53Z</time>
      </trkpt>
      <trkpt lat="47.68197" lon="7.28952">
        <ele>366.880249</ele>
        <time>2012-04-01T08:17:58Z</time>
      </trkpt>
      <trkpt lat="47.6823" lon="7.28928">
        <ele>363.9963379</ele>
        <time>2012-04-01T08:18:03Z</time>
      </trkpt>
      <trkpt lat="47.68286" lon="7.28885">
        <ele>357.2670898</ele>
        <time>2012-04-01T08:18:10Z</time>
      </trkpt>
      <trkpt lat="47.68319" lon="7.28851">
        <ele>353.421875</ele>
        <time>2012-04-01T08:18:14Z</time>
      </trkpt>
      <trkpt lat="47.68347" lon="7.28807">
        <ele>349.0958252</ele>
        <time>2012-04-01T08:18:18Z</time>
      </trkpt>
      <trkpt lat="47.68353" lon="7.28795">
        <ele>347.6539307</ele>
        <time>2012-04-01T08:18:19Z</time>
      </trkpt>
      <trkpt lat="47.68387" lon="7.28747">
        <ele>344.7700195</ele>
        <time>2012-04-01T08:18:24Z</time>
      </trkpt>
      <trkpt lat="47.68419" lon="7.28707">
        <ele>345.7313232</ele>
        <time>2012-04-01T08:18:29Z</time>
      </trkpt>
      <trkpt lat="47.68455" lon="7.28667">
        <ele>348.1346436</ele>
        <time>2012-04-01T08:18:35Z</time>
      </trkpt>
      <trkpt lat="47.68485" lon="7.28632">
        <ele>351.0184326</ele>
        <time>2012-04-01T08:18:41Z</time>
      </trkpt>
      <trkpt lat="47.68507" lon="7.28607">
        <ele>352.4605713</ele>
        <time>2012-04-01T08:18:46Z</time>
      </trkpt>
      <trkpt lat="47.68522" lon="7.28591">
        <ele>351.9798584</ele>
        <time>2012-04-01T08:18:50Z</time>
      </trkpt>
      <trkpt lat="47.68526" lon="7.28588">
        <ele>352.4605713</ele>
        <time>2012-04-01T08:18:51Z</time>
      </trkpt>
      <trkpt lat="47.68545" lon="7.28573">
        <ele>357.2670898</ele>
        <time>2012-04-01T08:18:58Z</time>
      </trkpt>
      <trkpt lat="47.68554" lon="7.28566">
        <ele>354.8637695</ele>
        <time>2012-04-01T08:19:04Z</time>
      </trkpt>
      <trkpt lat="47.6856" lon="7.2856">
        <ele>355.8251953</ele>
        <time>2012-04-01T08:19:10Z</time>
      </trkpt>
      <trkpt lat="47.68569" lon="7.2855">
        <ele>355.8251953</ele>
        <time>2012-04-01T08:19:19Z</time>
      </trkpt>
      <trkpt lat="47.68577" lon="7.28541">
        <ele>358.2283936</ele>
        <time>2012-04-01T08:19:24Z</time>
      </trkpt>
      <trkpt lat="47.6859" lon="7.28529">
        <ele>361.1124268</ele>
        <time>2012-04-01T08:19:29Z</time>
      </trkpt>
      <trkpt lat="47.68603" lon="7.28515">
        <ele>360.6317139</ele>
        <time>2012-04-01T08:19:33Z</time>
      </trkpt>
      <trkpt lat="47.68622" lon="7.28509">
        <ele>356.3057861</ele>
        <time>2012-04-01T08:19:37Z</time>
      </trkpt>
      <trkpt lat="47.68639" lon="7.28517">
        <ele>351.4991455</ele>
        <time>2012-04-01T08:19:42Z</time>
      </trkpt>
      <trkpt lat="47.68644" lon="7.28523">
        <ele>352.9411621</ele>
        <time>2012-04-01T08:19:44Z</time>
      </trkpt>
      <trkpt lat="47.68671" lon="7.28548">
        <ele>352.4605713</ele>
        <time>2012-04-01T08:19:51Z</time>
      </trkpt>
      <trkpt lat="47.6868" lon="7.28556">
        <ele>350.057251</ele>
        <time>2012-04-01T08:19:53Z</time>
      </trkpt>
      <trkpt lat="47.68709" lon="7.28581">
        <ele>348.1346436</ele>
        <time>2012-04-01T08:19:58Z</time>
      </trkpt>
      <trkpt lat="47.68715" lon="7.28588">
        <ele>348.1346436</ele>
        <time>2012-04-01T08:19:59Z</time>
      </trkpt>
      <trkpt lat="47.68745" lon="7.28619">
        <ele>348.1346436</ele>
        <time>2012-04-01T08:20:04Z</time>
      </trkpt>
      <trkpt lat="47.68769" lon="7.28646">
        <ele>343.3278809</ele>
        <time>2012-04-01T08:20:08Z</time>
      </trkpt>
      <trkpt lat="47.68782" lon="7.28661">
        <ele>339.9633789</ele>
        <time>2012-04-01T08:20:10Z</time>
      </trkpt>
      <trkpt lat="47.68795" lon="7.28685">
        <ele>342.84729</ele>
        <time>2012-04-01T08:20:13Z</time>
      </trkpt>
      <trkpt lat="47.68805" lon="7.287">
        <ele>342.3666992</ele>
        <time>2012-04-01T08:20:15Z</time>
      </trkpt>
      <trkpt lat="47.68817" lon="7.28713">
        <ele>342.84729</ele>
        <time>2012-04-01T08:20:17Z</time>
      </trkpt>
      <trkpt lat="47.68844" lon="7.28744">
        <ele>339.9633789</ele>
        <time>2012-04-01T08:20:21Z</time>
      </trkpt>
      <trkpt lat="47.68864" lon="7.2877">
        <ele>337.0794678</ele>
        <time>2012-04-01T08:20:24Z</time>
      </trkpt>
      <trkpt lat="47.68901" lon="7.28813">
        <ele>333.2341309</ele>
        <time>2012-04-01T08:20:29Z</time>
      </trkpt>
      <trkpt lat="47.6891" lon="7.28822">
        <ele>332.2728271</ele>
        <time>2012-04-01T08:20:31Z</time>
      </trkpt>
      <trkpt lat="47.68918" lon="7.28834">
        <ele>330.3502197</ele>
        <time>2012-04-01T08:20:33Z</time>
      </trkpt>
      <trkpt lat="47.68931" lon="7.28847">
        <ele>326.9855957</ele>
        <time>2012-04-01T08:20:36Z</time>
      </trkpt>
      <trkpt lat="47.68943" lon="7.28856">
        <ele>325.0629883</ele>
        <time>2012-04-01T08:20:38Z</time>
      </trkpt>
      <trkpt lat="47.68962" lon="7.28878">
        <ele>318.8143311</ele>
        <time>2012-04-01T08:20:41Z</time>
      </trkpt>
      <trkpt lat="47.68994" lon="7.28928">
        <ele>313.5272217</ele>
        <time>2012-04-01T08:20:46Z</time>
      </trkpt>
      <trkpt lat="47.69006" lon="7.28949">
        <ele>311.6044922</ele>
        <time>2012-04-01T08:20:48Z</time>
      </trkpt>
      <trkpt lat="47.69031" lon="7.28983">
        <ele>307.7592773</ele>
        <time>2012-04-01T08:20:52Z</time>
      </trkpt>
      <trkpt lat="47.69076" lon="7.29021">
        <ele>300.5493164</ele>
        <time>2012-04-01T08:20:58Z</time>
      </trkpt>
      <trkpt lat="47.69098" lon="7.29038">
        <ele>296.2235107</ele>
        <time>2012-04-01T08:21:02Z</time>
      </trkpt>
      <trkpt lat="47.69099" lon="7.29038">
        <ele>295.7426758</ele>
        <time>2012-04-01T08:21:04Z</time>
      </trkpt>
      <trkpt lat="47.69101" lon="7.2903">
        <ele>290.9361572</ele>
        <time>2012-04-01T08:21:09Z</time>
      </trkpt>
      <trkpt lat="47.691" lon="7.29028">
        <ele>288.532959</ele>
        <time>2012-04-01T08:21:15Z</time>
      </trkpt>
      <trkpt lat="47.69101" lon="7.29029">
        <ele>289.0135498</ele>
        <time>2012-04-01T08:21:19Z</time>
      </trkpt>
      <trkpt lat="47.691" lon="7.29033">
        <ele>292.8587646</ele>
        <time>2012-04-01T08:21:26Z</time>
      </trkpt>
      <trkpt lat="47.69102" lon="7.29031">
        <ele>298.626709</ele>
        <time>2012-04-01T08:21:41Z</time>
      </trkpt>
      <trkpt lat="47.69101" lon="7.29035">
        <ele>285.6488037</ele>
        <time>2012-04-01T08:21:50Z</time>
      </trkpt>
      <trkpt lat="47.69102" lon="7.29035">
        <ele>282.7650146</ele>
        <time>2012-04-01T08:22:05Z</time>
      </trkpt>
      <trkpt lat="47.69103" lon="7.29034">
        <ele>286.6102295</ele>
        <time>2012-04-01T08:22:15Z</time>
      </trkpt>
      <trkpt lat="47.69101" lon="7.29036">
        <ele>282.2843018</ele>
        <time>2012-04-01T08:22:20Z</time>
      </trkpt>
      <trkpt lat="47.69102" lon="7.29035">
        <ele>286.6102295</ele>
        <time>2012-04-01T08:22:30Z</time>
      </trkpt>
      <trkpt lat="47.69103" lon="7.29026">
        <ele>294.3007812</ele>
        <time>2012-04-01T08:22:55Z</time>
      </trkpt>
      <trkpt lat="47.69102" lon="7.29024">
        <ele>293.3393555</ele>
        <time>2012-04-01T08:22:57Z</time>
      </trkpt>
      <trkpt lat="47.69096" lon="7.29004">
        <ele>291.416748</ele>
        <time>2012-04-01T08:23:03Z</time>
      </trkpt>
      <trkpt lat="47.69091" lon="7.28983">
        <ele>289.4941406</ele>
        <time>2012-04-01T08:23:07Z</time>
      </trkpt>
      <trkpt lat="47.69087" lon="7.28956">
        <ele>288.532959</ele>
        <time>2012-04-01T08:23:12Z</time>
      </trkpt>
      <trkpt lat="47.69081" lon="7.28942">
        <ele>289.0135498</ele>
        <time>2012-04-01T08:23:15Z</time>
      </trkpt>
      <trkpt lat="47.69071" lon="7.28922">
        <ele>289.4941406</ele>
        <time>2012-04-01T08:23:18Z</time>
      </trkpt>
      <trkpt lat="47.69061" lon="7.28898">
        <ele>290.4555664</ele>
        <time>2012-04-01T08:23:22Z</time>
      </trkpt>
      <trkpt lat="47.69052" lon="7.28873">
        <ele>294.3007812</ele>
        <time>2012-04-01T08:23:26Z</time>
      </trkpt>
      <trkpt lat="47.69037" lon="7.2883">
        <ele>303.4332275</ele>
        <time>2012-04-01T08:23:34Z</time>
      </trkpt>
      <trkpt lat="47.69032" lon="7.28819">
        <ele>304.3946533</ele>
        <time>2012-04-01T08:23:36Z</time>
      </trkpt>
      <trkpt lat="47.69025" lon="7.28794">
        <ele>306.3172607</ele>
        <time>2012-04-01T08:23:40Z</time>
      </trkpt>
      <trkpt lat="47.69023" lon="7.28777">
        <ele>304.3946533</ele>
        <time>2012-04-01T08:23:42Z</time>
      </trkpt>
      <trkpt lat="47.69011" lon="7.28727">
        <ele>299.5880127</ele>
        <time>2012-04-01T08:23:47Z</time>
      </trkpt>
      <trkpt lat="47.68994" lon="7.28686">
        <ele>296.7041016</ele>
        <time>2012-04-01T08:23:52Z</time>
      </trkpt>
      <trkpt lat="47.68984" lon="7.28665">
        <ele>292.8587646</ele>
        <time>2012-04-01T08:23:55Z</time>
      </trkpt>
      <trkpt lat="47.68971" lon="7.2863">
        <ele>291.8974609</ele>
        <time>2012-04-01T08:24:00Z</time>
      </trkpt>
      <trkpt lat="47.6895" lon="7.28566">
        <ele>291.416748</ele>
        <time>2012-04-01T08:24:08Z</time>
      </trkpt>
      <trkpt lat="47.68945" lon="7.28549">
        <ele>291.416748</ele>
        <time>2012-04-01T08:24:10Z</time>
      </trkpt>
      <trkpt lat="47.68929" lon="7.28514">
        <ele>288.0522461</ele>
        <time>2012-04-01T08:24:15Z</time>
      </trkpt>
      <trkpt lat="47.68901" lon="7.28482">
        <ele>282.7650146</ele>
        <time>2012-04-01T08:24:21Z</time>
      </trkpt>
      <trkpt lat="47.68897" lon="7.28478">
        <ele>282.2843018</ele>
        <time>2012-04-01T08:24:22Z</time>
      </trkpt>
      <trkpt lat="47.68865" lon="7.28443">
        <ele>276.5163574</ele>
        <time>2012-04-01T08:24:29Z</time>
      </trkpt>
      <trkpt lat="47.68836" lon="7.2841">
        <ele>275.5550537</ele>
        <time>2012-04-01T08:24:35Z</time>
      </trkpt>
      <trkpt lat="47.68823" lon="7.28395">
        <ele>275.5550537</ele>
        <time>2012-04-01T08:24:38Z</time>
      </trkpt>
      <trkpt lat="47.68805" lon="7.28369">
        <ele>276.5163574</ele>
        <time>2012-04-01T08:24:43Z</time>
      </trkpt>
      <trkpt lat="47.6879" lon="7.28349">
        <ele>276.5163574</ele>
        <time>2012-04-01T08:24:47Z</time>
      </trkpt>
      <trkpt lat="47.68786" lon="7.28344">
        <ele>276.5163574</ele>
        <time>2012-04-01T08:24:48Z</time>
      </trkpt>
      <trkpt lat="47.6875" lon="7.283">
        <ele>276.5163574</ele>
        <time>2012-04-01T08:24:54Z</time>
      </trkpt>
      <trkpt lat="47.68713" lon="7.28266">
        <ele>276.5163574</ele>
        <time>2012-04-01T08:24:59Z</time>
      </trkpt>
      <trkpt lat="47.68682" lon="7.28229">
        <ele>277.4776611</ele>
        <time>2012-04-01T08:25:04Z</time>
      </trkpt>
      <trkpt lat="47.6864" lon="7.28193">
        <ele>277.958252</ele>
        <time>2012-04-01T08:25:10Z</time>
      </trkpt>
      <trkpt lat="47.68608" lon="7.28164">
        <ele>281.8035889</ele>
        <time>2012-04-01T08:25:15Z</time>
      </trkpt>
      <trkpt lat="47.68575" lon="7.28134">
        <ele>281.322998</ele>
        <time>2012-04-01T08:25:21Z</time>
      </trkpt>
      <trkpt lat="47.68559" lon="7.28119">
        <ele>281.322998</ele>
        <time>2012-04-01T08:25:24Z</time>
      </trkpt>
      <trkpt lat="47.68548" lon="7.28112">
        <ele>282.7650146</ele>
        <time>2012-04-01T08:25:26Z</time>
      </trkpt>
      <trkpt lat="47.68536" lon="7.28112">
        <ele>290.9361572</ele>
        <time>2012-04-01T08:25:30Z</time>
      </trkpt>
      <trkpt lat="47.68514" lon="7.28106">
        <ele>294.7813721</ele>
        <time>2012-04-01T08:25:37Z</time>
      </trkpt>
      <trkpt lat="47.685" lon="7.28103">
        <ele>299.1072998</ele>
        <time>2012-04-01T08:25:41Z</time>
      </trkpt>
      <trkpt lat="47.68483" lon="7.28098">
        <ele>310.6430664</ele>
        <time>2012-04-01T08:25:48Z</time>
      </trkpt>
      <trkpt lat="47.68472" lon="7.281">
        <ele>308.720459</ele>
        <time>2012-04-01T08:25:52Z</time>
      </trkpt>
      <trkpt lat="47.68464" lon="7.28107">
        <ele>301.991333</ele>
        <time>2012-04-01T08:25:57Z</time>
      </trkpt>
      <trkpt lat="47.68451" lon="7.28117">
        <ele>301.5106201</ele>
        <time>2012-04-01T08:26:04Z</time>
      </trkpt>
      <trkpt lat="47.68445" lon="7.28123">
        <ele>296.7041016</ele>
        <time>2012-04-01T08:26:09Z</time>
      </trkpt>
      <trkpt lat="47.68428" lon="7.28129">
        <ele>294.3007812</ele>
        <time>2012-04-01T08:26:16Z</time>
      </trkpt>
      <trkpt lat="47.68414" lon="7.28129">
        <ele>293.3393555</ele>
        <time>2012-04-01T08:26:21Z</time>
      </trkpt>
      <trkpt lat="47.68396" lon="7.28114">
        <ele>295.7426758</ele>
        <time>2012-04-01T08:26:28Z</time>
      </trkpt>
      <trkpt lat="47.68373" lon="7.28088">
        <ele>297.6654053</ele>
        <time>2012-04-01T08:26:36Z</time>
      </trkpt>
      <trkpt lat="47.68361" lon="7.28078">
        <ele>300.0687256</ele>
        <time>2012-04-01T08:26:41Z</time>
      </trkpt>
      <trkpt lat="47.68351" lon="7.28065">
        <ele>302.4719238</ele>
        <time>2012-04-01T08:26:46Z</time>
      </trkpt>
      <trkpt lat="47.68342" lon="7.28055">
        <ele>303.9139404</ele>
        <time>2012-04-01T08:26:50Z</time>
      </trkpt>
      <trkpt lat="47.6833" lon="7.28042">
        <ele>305.355957</ele>
        <time>2012-04-01T08:26:55Z</time>
      </trkpt>
      <trkpt lat="47.68318" lon="7.28029">
        <ele>310.1624756</ele>
        <time>2012-04-01T08:27:00Z</time>
      </trkpt>
      <trkpt lat="47.68302" lon="7.28017">
        <ele>314.9691162</ele>
        <time>2012-04-01T08:27:06Z</time>
      </trkpt>
      <trkpt lat="47.6829" lon="7.28006">
        <ele>322.659668</ele>
        <time>2012-04-01T08:27:11Z</time>
      </trkpt>
      <trkpt lat="47.68277" lon="7.28">
        <ele>324.1015625</ele>
        <time>2012-04-01T08:27:16Z</time>
      </trkpt>
      <trkpt lat="47.6826" lon="7.27988">
        <ele>326.9855957</ele>
        <time>2012-04-01T08:27:22Z</time>
      </trkpt>
      <trkpt lat="47.68243" lon="7.2798">
        <ele>326.5048828</ele>
        <time>2012-04-01T08:27:28Z</time>
      </trkpt>
      <trkpt lat="47.68225" lon="7.27974">
        <ele>326.0241699</ele>
        <time>2012-04-01T08:27:35Z</time>
      </trkpt>
      <trkpt lat="47.68211" lon="7.27979">
        <ele>320.7370605</ele>
        <time>2012-04-01T08:27:41Z</time>
      </trkpt>
      <trkpt lat="47.68197" lon="7.27989">
        <ele>316.8917236</ele>
        <time>2012-04-01T08:27:47Z</time>
      </trkpt>
      <trkpt lat="47.68192" lon="7.27995">
        <ele>319.2950439</ele>
        <time>2012-04-01T08:27:50Z</time>
      </trkpt>
      <trkpt lat="47.68181" lon="7.28001">
        <ele>322.659668</ele>
        <time>2012-04-01T08:27:55Z</time>
      </trkpt>
      <trkpt lat="47.68179" lon="7.28002">
        <ele>323.1403809</ele>
        <time>2012-04-01T08:27:56Z</time>
      </trkpt>
      <trkpt lat="47.68166" lon="7.28009">
        <ele>314.4884033</ele>
        <time>2012-04-01T08:28:00Z</time>
      </trkpt>
      <trkpt lat="47.68161" lon="7.28012">
        <ele>311.6044922</ele>
        <time>2012-04-01T08:28:02Z</time>
      </trkpt>
      <trkpt lat="47.68157" lon="7.28014">
        <ele>311.6044922</ele>
        <time>2012-04-01T08:28:04Z</time>
      </trkpt>
      <trkpt lat="47.68147" lon="7.28012">
        <ele>316.8917236</ele>
        <time>2012-04-01T08:28:10Z</time>
      </trkpt>
      <trkpt lat="47.68146" lon="7.28007">
        <ele>319.2950439</ele>
        <time>2012-04-01T08:28:16Z</time>
      </trkpt>
      <trkpt lat="47.68143" lon="7.28009">
        <ele>311.6044922</ele>
        <time>2012-04-01T08:28:31Z</time>
      </trkpt>
      <trkpt lat="47.68145" lon="7.28012">
        <ele>323.6209717</ele>
        <time>2012-04-01T08:28:43Z</time>
      </trkpt>
      <trkpt lat="47.68146" lon="7.28015">
        <ele>328.9083252</ele>
        <time>2012-04-01T08:28:54Z</time>
      </trkpt>
      <trkpt lat="47.68146" lon="7.28016">
        <ele>328.9083252</ele>
        <time>2012-04-01T08:28:57Z</time>
      </trkpt>
      <trkpt lat="47.68148" lon="7.28016">
        <ele>328.9083252</ele>
        <time>2012-04-01T08:29:06Z</time>
      </trkpt>
      <trkpt lat="47.68148" lon="7.28016">
        <ele>327.9467773</ele>
        <time>2012-04-01T08:29:19Z</time>
      </trkpt>
      <trkpt lat="47.6815" lon="7.2801">
        <ele>330.3502197</ele>
        <time>2012-04-01T08:29:24Z</time>
      </trkpt>
      <trkpt lat="47.68157" lon="7.27998">
        <ele>330.8309326</ele>
        <time>2012-04-01T08:29:30Z</time>
      </trkpt>
      <trkpt lat="47.68156" lon="7.27992">
        <ele>329.8695068</ele>
        <time>2012-04-01T08:29:35Z</time>
      </trkpt>
      <trkpt lat="47.68154" lon="7.27997">
        <ele>332.2728271</ele>
        <time>2012-04-01T08:29:39Z</time>
      </trkpt>
      <trkpt lat="47.68156" lon="7.27997">
        <ele>333.7147217</ele>
        <time>2012-04-01T08:29:44Z</time>
      </trkpt>
      <trkpt lat="47.68162" lon="7.27995">
        <ele>331.3115234</ele>
        <time>2012-04-01T08:30:01Z</time>
      </trkpt>
      <trkpt lat="47.68162" lon="7.27992">
        <ele>332.2728271</ele>
        <time>2012-04-01T08:30:09Z</time>
      </trkpt>
      <trkpt lat="47.68163" lon="7.2799">
        <ele>332.2728271</ele>
        <time>2012-04-01T08:30:15Z</time>
      </trkpt>
      <trkpt lat="47.68159" lon="7.28003">
        <ele>326.9855957</ele>
        <time>2012-04-01T08:30:39Z</time>
      </trkpt>
      <trkpt lat="47.68158" lon="7.27999">
        <ele>326.5048828</ele>
        <time>2012-04-01T08:30:41Z</time>
      </trkpt>
      <trkpt lat="47.68155" lon="7.27995">
        <ele>329.388916</ele>
        <time>2012-04-01T08:30:45Z</time>
      </trkpt>
      <trkpt lat="47.6815" lon="7.28">
        <ele>329.388916</ele>
        <time>2012-04-01T08:30:51Z</time>
      </trkpt>
      <trkpt lat="47.68153" lon="7.28001">
        <ele>325.0629883</ele>
        <time>2012-04-01T08:30:57Z</time>
      </trkpt>
      <trkpt lat="47.68155" lon="7.28002">
        <ele>324.1015625</ele>
        <time>2012-04-01T08:31:03Z</time>
      </trkpt>
      <trkpt lat="47.68153" lon="7.28002">
        <ele>312.5657959</ele>
        <time>2012-04-01T08:31:14Z</time>
      </trkpt>
      <trkpt lat="47.6815" lon="7.28001">
        <ele>308.720459</ele>
        <time>2012-04-01T08:31:25Z</time>
      </trkpt>
      <trkpt lat="47.68152" lon="7.27998">
        <ele>308.720459</ele>
        <time>2012-04-01T08:31:27Z</time>
      </trkpt>
      <trkpt lat="47.68155" lon="7.2797">
        <ele>306.3172607</ele>
        <time>2012-04-01T08:31:33Z</time>
      </trkpt>
      <trkpt lat="47.68153" lon="7.27921">
        <ele>307.7592773</ele>
        <time>2012-04-01T08:31:39Z</time>
      </trkpt>
      <trkpt lat="47.68144" lon="7.27862">
        <ele>306.3172607</ele>
        <time>2012-04-01T08:31:45Z</time>
      </trkpt>
      <trkpt lat="47.6813" lon="7.27809">
        <ele>301.0299072</ele>
        <time>2012-04-01T08:31:51Z</time>
      </trkpt>
      <trkpt lat="47.68121" lon="7.27785">
        <ele>297.1846924</ele>
        <time>2012-04-01T08:31:54Z</time>
      </trkpt>
      <trkpt lat="47.681" lon="7.27743">
        <ele>293.3393555</ele>
        <time>2012-04-01T08:32:00Z</time>
      </trkpt>
      <trkpt lat="47.68092" lon="7.2773">
        <ele>295.7426758</ele>
        <time>2012-04-01T08:32:02Z</time>
      </trkpt>
      <trkpt lat="47.68085" lon="7.27717">
        <ele>296.2235107</ele>
        <time>2012-04-01T08:32:04Z</time>
      </trkpt>
      <trkpt lat="47.68074" lon="7.27698">
        <ele>298.1461182</ele>
        <time>2012-04-01T08:32:07Z</time>
      </trkpt>
      <trkpt lat="47.68049" lon="7.27654">
        <ele>293.8200684</ele>
        <time>2012-04-01T08:32:14Z</time>
      </trkpt>
      <trkpt lat="47.68026" lon="7.27614">
        <ele>293.8200684</ele>
        <time>2012-04-01T08:32:19Z</time>
      </trkpt>
      <trkpt lat="47.67997" lon="7.27567">
        <ele>289.4941406</ele>
        <time>2012-04-01T08:32:25Z</time>
      </trkpt>
      <trkpt lat="47.67979" lon="7.27534">
        <ele>291.416748</ele>
        <time>2012-04-01T08:32:30Z</time>
      </trkpt>
      <trkpt lat="47.67961" lon="7.27526">
        <ele>294.3007812</ele>
        <time>2012-04-01T08:32:35Z</time>
      </trkpt>
      <trkpt lat="47.67958" lon="7.27525">
        <ele>296.2235107</ele>
        <time>2012-04-01T08:32:36Z</time>
      </trkpt>
      <trkpt lat="47.67946" lon="7.27517">
        <ele>296.7041016</ele>
        <time>2012-04-01T08:32:41Z</time>
      </trkpt>
      <trkpt lat="47.67937" lon="7.27514">
        <ele>299.5880127</ele>
        <time>2012-04-01T08:32:44Z</time>
      </trkpt>
      <trkpt lat="47.67932" lon="7.27512">
        <ele>302.9525146</ele>
        <time>2012-04-01T08:32:46Z</time>
      </trkpt>
      <trkpt lat="47.67929" lon="7.27511">
        <ele>303.9139404</ele>
        <time>2012-04-01T08:32:47Z</time>
      </trkpt>
      <trkpt lat="47.6792" lon="7.27507">
        <ele>306.7978516</ele>
        <time>2012-04-01T08:32:51Z</time>
      </trkpt>
      <trkpt lat="47.67909" lon="7.27491">
        <ele>311.1237793</ele>
        <time>2012-04-01T08:32:56Z</time>
      </trkpt>
      <trkpt lat="47.67893" lon="7.27473">
        <ele>314.0078125</ele>
        <time>2012-04-01T08:33:01Z</time>
      </trkpt>
      <trkpt lat="47.67883" lon="7.2746">
        <ele>311.1237793</ele>
        <time>2012-04-01T08:33:05Z</time>
      </trkpt>
      <trkpt lat="47.6787" lon="7.27441">
        <ele>308.2398682</ele>
        <time>2012-04-01T08:33:09Z</time>
      </trkpt>
      <trkpt lat="47.67863" lon="7.2743">
        <ele>307.2785645</ele>
        <time>2012-04-01T08:33:11Z</time>
      </trkpt>
      <trkpt lat="47.67847" lon="7.27408">
        <ele>305.355957</ele>
        <time>2012-04-01T08:33:15Z</time>
      </trkpt>
      <trkpt lat="47.67814" lon="7.27378">
        <ele>305.8366699</ele>
        <time>2012-04-01T08:33:20Z</time>
      </trkpt>
      <trkpt lat="47.67807" lon="7.27371">
        <ele>304.3946533</ele>
        <time>2012-04-01T08:33:21Z</time>
      </trkpt>
      <trkpt lat="47.67795" lon="7.27362">
        <ele>304.8752441</ele>
        <time>2012-04-01T08:33:23Z</time>
      </trkpt>
      <trkpt lat="47.67772" lon="7.27351">
        <ele>310.1624756</ele>
        <time>2012-04-01T08:33:27Z</time>
      </trkpt>
      <trkpt lat="47.67743" lon="7.2733">
        <ele>304.3946533</ele>
        <time>2012-04-01T08:33:34Z</time>
      </trkpt>
      <trkpt lat="47.67724" lon="7.27313">
        <ele>304.8752441</ele>
        <time>2012-04-01T08:33:39Z</time>
      </trkpt>
      <trkpt lat="47.67701" lon="7.27293">
        <ele>308.720459</ele>
        <time>2012-04-01T08:33:44Z</time>
      </trkpt>
      <trkpt lat="47.67672" lon="7.27273">
        <ele>316.4110107</ele>
        <time>2012-04-01T08:33:51Z</time>
      </trkpt>
      <trkpt lat="47.67659" lon="7.27264">
        <ele>317.8530273</ele>
        <time>2012-04-01T08:33:55Z</time>
      </trkpt>
      <trkpt lat="47.6764" lon="7.27256">
        <ele>319.2950439</ele>
        <time>2012-04-01T08:34:00Z</time>
      </trkpt>
      <trkpt lat="47.67616" lon="7.27237">
        <ele>317.3724365</ele>
        <time>2012-04-01T08:34:07Z</time>
      </trkpt>
      <trkpt lat="47.67612" lon="7.27234">
        <ele>316.8917236</ele>
        <time>2012-04-01T08:34:08Z</time>
      </trkpt>
      <trkpt lat="47.67602" lon="7.27225">
        <ele>316.4110107</ele>
        <time>2012-04-01T08:34:10Z</time>
      </trkpt>
      <trkpt lat="47.67591" lon="7.27219">
        <ele>315.9304199</ele>
        <time>2012-04-01T08:34:12Z</time>
      </trkpt>
      <trkpt lat="47.67576" lon="7.27206">
        <ele>317.3724365</ele>
        <time>2012-04-01T08:34:15Z</time>
      </trkpt>
      <trkpt lat="47.67566" lon="7.27199">
        <ele>316.8917236</ele>
        <time>2012-04-01T08:34:17Z</time>
      </trkpt>
      <trkpt lat="47.67529" lon="7.27171">
        <ele>316.8917236</ele>
        <time>2012-04-01T08:34:25Z</time>
      </trkpt>
      <trkpt lat="47.67509" lon="7.27154">
        <ele>312.0852051</ele>
        <time>2012-04-01T08:34:30Z</time>
      </trkpt>
      <trkpt lat="47.67501" lon="7.27146">
        <ele>313.0465088</ele>
        <time>2012-04-01T08:34:32Z</time>
      </trkpt>
      <trkpt lat="47.67486" lon="7.27133">
        <ele>314.0078125</ele>
        <time>2012-04-01T08:34:36Z</time>
      </trkpt>
      <trkpt lat="47.67477" lon="7.27128">
        <ele>314.0078125</ele>
        <time>2012-04-01T08:34:38Z</time>
      </trkpt>
      <trkpt lat="47.67448" lon="7.27108">
        <ele>320.2563477</ele>
        <time>2012-04-01T08:34:45Z</time>
      </trkpt>
      <trkpt lat="47.67423" lon="7.2709">
        <ele>317.8530273</ele>
        <time>2012-04-01T08:34:50Z</time>
      </trkpt>
      <trkpt lat="47.67393" lon="7.27071">
        <ele>316.4110107</ele>
        <time>2012-04-01T08:34:56Z</time>
      </trkpt>
      <trkpt lat="47.67377" lon="7.2706">
        <ele>316.4110107</ele>
        <time>2012-04-01T08:34:59Z</time>
      </trkpt>
      <trkpt lat="47.67359" lon="7.2705">
        <ele>316.8917236</ele>
        <time>2012-04-01T08:35:03Z</time>
      </trkpt>
      <trkpt lat="47.6734" lon="7.27036">
        <ele>314.0078125</ele>
        <time>2012-04-01T08:35:09Z</time>
      </trkpt>
      <trkpt lat="47.67312" lon="7.27026">
        <ele>315.9304199</ele>
        <time>2012-04-01T08:35:16Z</time>
      </trkpt>
      <trkpt lat="47.67303" lon="7.27024">
        <ele>316.4110107</ele>
        <time>2012-04-01T08:35:18Z</time>
      </trkpt>
      <trkpt lat="47.67287" lon="7.27017">
        <ele>321.2177734</ele>
        <time>2012-04-01T08:35:22Z</time>
      </trkpt>
      <trkpt lat="47.67266" lon="7.27007">
        <ele>318.3336182</ele>
        <time>2012-04-01T08:35:27Z</time>
      </trkpt>
      <trkpt lat="47.67256" lon="7.27009">
        <ele>316.8917236</ele>
        <time>2012-04-01T08:35:31Z</time>
      </trkpt>
      <trkpt lat="47.67254" lon="7.27009">
        <ele>316.4110107</ele>
        <time>2012-04-01T08:35:32Z</time>
      </trkpt>
      <trkpt lat="47.6724" lon="7.27017">
        <ele>316.4110107</ele>
        <time>2012-04-01T08:35:38Z</time>
      </trkpt>
      <trkpt lat="47.67226" lon="7.27026">
        <ele>316.8917236</ele>
        <time>2012-04-01T08:35:43Z</time>
      </trkpt>
      <trkpt lat="47.67216" lon="7.27033">
        <ele>318.3336182</ele>
        <time>2012-04-01T08:35:47Z</time>
      </trkpt>
      <trkpt lat="47.67207" lon="7.27039">
        <ele>317.3724365</ele>
        <time>2012-04-01T08:35:51Z</time>
      </trkpt>
      <trkpt lat="47.67198" lon="7.27048">
        <ele>317.8530273</ele>
        <time>2012-04-01T08:35:57Z</time>
      </trkpt>
      <trkpt lat="47.67188" lon="7.27063">
        <ele>328.9083252</ele>
        <time>2012-04-01T08:36:04Z</time>
      </trkpt>
      <trkpt lat="47.67184" lon="7.27082">
        <ele>334.1954346</ele>
        <time>2012-04-01T08:36:09Z</time>
      </trkpt>
      <trkpt lat="47.67178" lon="7.27102">
        <ele>338.5214844</ele>
        <time>2012-04-01T08:36:14Z</time>
      </trkpt>
      <trkpt lat="47.67171" lon="7.27123">
        <ele>339.9633789</ele>
        <time>2012-04-01T08:36:19Z</time>
      </trkpt>
      <trkpt lat="47.67162" lon="7.27162">
        <ele>339.482666</ele>
        <time>2012-04-01T08:36:27Z</time>
      </trkpt>
      <trkpt lat="47.67158" lon="7.27184">
        <ele>340.4440918</ele>
        <time>2012-04-01T08:36:31Z</time>
      </trkpt>
      <trkpt lat="47.67153" lon="7.27205">
        <ele>337.0794678</ele>
        <time>2012-04-01T08:36:35Z</time>
      </trkpt>
      <trkpt lat="47.67153" lon="7.27214">
        <ele>336.1181641</ele>
        <time>2012-04-01T08:36:40Z</time>
      </trkpt>
      <trkpt lat="47.67153" lon="7.27216">
        <ele>335.6373291</ele>
        <time>2012-04-01T08:36:41Z</time>
      </trkpt>
      <trkpt lat="47.67153" lon="7.2722">
        <ele>335.6373291</ele>
        <time>2012-04-01T08:36:45Z</time>
      </trkpt>
      <trkpt lat="47.6715" lon="7.27233">
        <ele>331.7921143</ele>
        <time>2012-04-01T08:36:51Z</time>
      </trkpt>
      <trkpt lat="47.67151" lon="7.2725">
        <ele>331.3115234</ele>
        <time>2012-04-01T08:36:56Z</time>
      </trkpt>
      <trkpt lat="47.67152" lon="7.27268">
        <ele>329.388916</ele>
        <time>2012-04-01T08:37:01Z</time>
      </trkpt>
      <trkpt lat="47.67152" lon="7.27296">
        <ele>329.8695068</ele>
        <time>2012-04-01T08:37:07Z</time>
      </trkpt>
      <trkpt lat="47.6715" lon="7.27329">
        <ele>331.3115234</ele>
        <time>2012-04-01T08:37:12Z</time>
      </trkpt>
      <trkpt lat="47.6715" lon="7.27372">
        <ele>334.6761475</ele>
        <time>2012-04-01T08:37:18Z</time>
      </trkpt>
      <trkpt lat="47.67156" lon="7.27395">
        <ele>333.7147217</ele>
        <time>2012-04-01T08:37:22Z</time>
      </trkpt>
      <trkpt lat="47.67174" lon="7.27435">
        <ele>329.388916</ele>
        <time>2012-04-01T08:37:30Z</time>
      </trkpt>
      <trkpt lat="47.6718" lon="7.27446">
        <ele>327.4661865</ele>
        <time>2012-04-01T08:37:32Z</time>
      </trkpt>
      <trkpt lat="47.67192" lon="7.27475">
        <ele>326.5048828</ele>
        <time>2012-04-01T08:37:36Z</time>
      </trkpt>
      <trkpt lat="47.67205" lon="7.27533">
        <ele>324.5822754</ele>
        <time>2012-04-01T08:37:41Z</time>
      </trkpt>
      <trkpt lat="47.67208" lon="7.27544">
        <ele>321.2177734</ele>
        <time>2012-04-01T08:37:42Z</time>
      </trkpt>
      <trkpt lat="47.67209" lon="7.27579">
        <ele>315.4498291</ele>
        <time>2012-04-01T08:37:46Z</time>
      </trkpt>
      <trkpt lat="47.67208" lon="7.27595">
        <ele>317.8530273</ele>
        <time>2012-04-01T08:37:51Z</time>
      </trkpt>
      <trkpt lat="47.67217" lon="7.27599">
        <ele>317.8530273</ele>
        <time>2012-04-01T08:37:58Z</time>
      </trkpt>
      <trkpt lat="47.67228" lon="7.27603">
        <ele>321.2177734</ele>
        <time>2012-04-01T08:38:03Z</time>
      </trkpt>
      <trkpt lat="47.67233" lon="7.27604">
        <ele>323.1403809</ele>
        <time>2012-04-01T08:38:06Z</time>
      </trkpt>
      <trkpt lat="47.67246" lon="7.27611">
        <ele>318.3336182</ele>
        <time>2012-04-01T08:38:12Z</time>
      </trkpt>
      <trkpt lat="47.67261" lon="7.27622">
        <ele>323.1403809</ele>
        <time>2012-04-01T08:38:20Z</time>
      </trkpt>
      <trkpt lat="47.67262" lon="7.27622">
        <ele>322.659668</ele>
        <time>2012-04-01T08:38:21Z</time>
      </trkpt>
      <trkpt lat="47.67267" lon="7.27628">
        <ele>323.6209717</ele>
        <time>2012-04-01T08:38:25Z</time>
      </trkpt>
      <trkpt lat="47.67273" lon="7.27634">
        <ele>329.388916</ele>
        <time>2012-04-01T08:38:30Z</time>
      </trkpt>
      <trkpt lat="47.67274" lon="7.27635">
        <ele>329.8695068</ele>
        <time>2012-04-01T08:38:31Z</time>
      </trkpt>
      <trkpt lat="47.6728" lon="7.27639">
        <ele>334.1954346</ele>
        <time>2012-04-01T08:38:34Z</time>
      </trkpt>
      <trkpt lat="47.67291" lon="7.27645">
        <ele>335.6373291</ele>
        <time>2012-04-01T08:38:40Z</time>
      </trkpt>
      <trkpt lat="47.67299" lon="7.27653">
        <ele>339.0020752</ele>
        <time>2012-04-01T08:38:45Z</time>
      </trkpt>
      <trkpt lat="47.67309" lon="7.27665">
        <ele>346.692627</ele>
        <time>2012-04-01T08:38:53Z</time>
      </trkpt>
      <trkpt lat="47.67317" lon="7.27684">
        <ele>360.6317139</ele>
        <time>2012-04-01T08:38:59Z</time>
      </trkpt>
      <trkpt lat="47.67326" lon="7.27701">
        <ele>370.244873</ele>
        <time>2012-04-01T08:39:05Z</time>
      </trkpt>
      <trkpt lat="47.67332" lon="7.27719">
        <ele>378.4161377</ele>
        <time>2012-04-01T08:39:11Z</time>
      </trkpt>
      <trkpt lat="47.67341" lon="7.2774">
        <ele>378.4161377</ele>
        <time>2012-04-01T08:39:16Z</time>
      </trkpt>
      <trkpt lat="47.67353" lon="7.27758">
        <ele>376.4935303</ele>
        <time>2012-04-01T08:39:22Z</time>
      </trkpt>
      <trkpt lat="47.67361" lon="7.27767">
        <ele>375.0515137</ele>
        <time>2012-04-01T08:39:27Z</time>
      </trkpt>
      <trkpt lat="47.67371" lon="7.27782">
        <ele>375.0515137</ele>
        <time>2012-04-01T08:39:33Z</time>
      </trkpt>
      <trkpt lat="47.6738" lon="7.27803">
        <ele>373.1289062</ele>
        <time>2012-04-01T08:39:39Z</time>
      </trkpt>
      <trkpt lat="47.67389" lon="7.27822">
        <ele>372.6481934</ele>
        <time>2012-04-01T08:39:45Z</time>
      </trkpt>
      <trkpt lat="47.67397" lon="7.27849">
        <ele>364.4769287</ele>
        <time>2012-04-01T08:39:51Z</time>
      </trkpt>
      <trkpt lat="47.67403" lon="7.27869">
        <ele>360.151123</ele>
        <time>2012-04-01T08:39:57Z</time>
      </trkpt>
      <trkpt lat="47.67404" lon="7.27874">
        <ele>356.786377</ele>
        <time>2012-04-01T08:39:59Z</time>
      </trkpt>
      <trkpt lat="47.67409" lon="7.27887">
        <ele>352.9411621</ele>
        <time>2012-04-01T08:40:06Z</time>
      </trkpt>
      <trkpt lat="47.67406" lon="7.2789">
        <ele>334.6761475</ele>
        <time>2012-04-01T08:40:24Z</time>
      </trkpt>
      <trkpt lat="47.67406" lon="7.2789">
        <ele>333.7147217</ele>
        <time>2012-04-01T08:40:33Z</time>
      </trkpt>
      <trkpt lat="47.67406" lon="7.2789">
        <ele>334.6761475</ele>
        <time>2012-04-01T08:40:40Z</time>
      </trkpt>
      <trkpt lat="47.67407" lon="7.27891">
        <ele>340.9246826</ele>
        <time>2012-04-01T08:40:48Z</time>
      </trkpt>
      <trkpt lat="47.67408" lon="7.27892">
        <ele>345.7313232</ele>
        <time>2012-04-01T08:40:54Z</time>
      </trkpt>
      <trkpt lat="47.67405" lon="7.2789">
        <ele>346.692627</ele>
        <time>2012-04-01T08:41:07Z</time>
      </trkpt>
      <trkpt lat="47.67404" lon="7.2789">
        <ele>343.3278809</ele>
        <time>2012-04-01T08:41:14Z</time>
      </trkpt>
      <trkpt lat="47.67404" lon="7.2789">
        <ele>343.8085938</ele>
        <time>2012-04-01T08:41:20Z</time>
      </trkpt>
      <trkpt lat="47.67404" lon="7.27891">
        <ele>345.7313232</ele>
        <time>2012-04-01T08:41:39Z</time>
      </trkpt>
      <trkpt lat="47.67404" lon="7.27888">
        <ele>341.8859863</ele>
        <time>2012-04-01T08:41:46Z</time>
      </trkpt>
      <trkpt lat="47.674" lon="7.27876">
        <ele>340.4440918</ele>
        <time>2012-04-01T08:41:50Z</time>
      </trkpt>
      <trkpt lat="47.67395" lon="7.27854">
        <ele>338.0407715</ele>
        <time>2012-04-01T08:41:54Z</time>
      </trkpt>
      <trkpt lat="47.67389" lon="7.27828">
        <ele>337.0794678</ele>
        <time>2012-04-01T08:41:58Z</time>
      </trkpt>
      <trkpt lat="47.6738" lon="7.27793">
        <ele>332.2728271</ele>
        <time>2012-04-01T08:42:03Z</time>
      </trkpt>
      <trkpt lat="47.67371" lon="7.27776">
        <ele>328.4276123</ele>
        <time>2012-04-01T08:42:06Z</time>
      </trkpt>
      <trkpt lat="47.67367" lon="7.27767">
        <ele>327.9467773</ele>
        <time>2012-04-01T08:42:08Z</time>
      </trkpt>
      <trkpt lat="47.67363" lon="7.27761">
        <ele>330.8309326</ele>
        <time>2012-04-01T08:42:15Z</time>
      </trkpt>
      <trkpt lat="47.67355" lon="7.27761">
        <ele>339.482666</ele>
        <time>2012-04-01T08:42:25Z</time>
      </trkpt>
      <trkpt lat="47.67352" lon="7.27762">
        <ele>339.9633789</ele>
        <time>2012-04-01T08:42:32Z</time>
      </trkpt>
      <trkpt lat="47.67352" lon="7.27765">
        <ele>343.3278809</ele>
        <time>2012-04-01T08:42:45Z</time>
      </trkpt>
      <trkpt lat="47.6735" lon="7.27765">
        <ele>340.9246826</ele>
        <time>2012-04-01T08:43:08Z</time>
      </trkpt>
      <trkpt lat="47.67353" lon="7.27765">
        <ele>334.1954346</ele>
        <time>2012-04-01T08:43:17Z</time>
      </trkpt>
      <trkpt lat="47.67358" lon="7.27768">
        <ele>335.6373291</ele>
        <time>2012-04-01T08:43:27Z</time>
      </trkpt>
      <trkpt lat="47.67359" lon="7.27771">
        <ele>341.4052734</ele>
        <time>2012-04-01T08:43:47Z</time>
      </trkpt>
      <trkpt lat="47.67358" lon="7.27773">
        <ele>344.2894287</ele>
        <time>2012-04-01T08:44:06Z</time>
      </trkpt>
      <trkpt lat="47.67356" lon="7.27775">
        <ele>344.7700195</ele>
        <time>2012-04-01T08:44:14Z</time>
      </trkpt>
      <trkpt lat="47.67353" lon="7.27773">
        <ele>346.692627</ele>
        <time>2012-04-01T08:44:37Z</time>
      </trkpt>
      <trkpt lat="47.67353" lon="7.27772">
        <ele>347.6539307</ele>
        <time>2012-04-01T08:44:48Z</time>
      </trkpt>
      <trkpt lat="47.67356" lon="7.27772">
        <ele>346.2120361</ele>
        <time>2012-04-01T08:44:58Z</time>
      </trkpt>
      <trkpt lat="47.67356" lon="7.27768">
        <ele>345.7313232</ele>
        <time>2012-04-01T08:45:17Z</time>
      </trkpt>
      <trkpt lat="47.6736" lon="7.27767">
        <ele>339.9633789</ele>
        <time>2012-04-01T08:45:42Z</time>
      </trkpt>
      <trkpt lat="47.6736" lon="7.27772">
        <ele>341.8859863</ele>
        <time>2012-04-01T08:45:52Z</time>
      </trkpt>
      <trkpt lat="47.67358" lon="7.27773">
        <ele>344.7700195</ele>
        <time>2012-04-01T08:46:06Z</time>
      </trkpt>
      <trkpt lat="47.67359" lon="7.27769">
        <ele>339.482666</ele>
        <time>2012-04-01T08:46:25Z</time>
      </trkpt>
      <trkpt lat="47.67361" lon="7.27767">
        <ele>341.4052734</ele>
        <time>2012-04-01T08:46:46Z</time>
      </trkpt>
      <trkpt lat="47.67355" lon="7.27765">
        <ele>351.0184326</ele>
        <time>2012-04-01T08:46:55Z</time>
      </trkpt>
      <trkpt lat="47.67357" lon="7.27764">
        <ele>347.6539307</ele>
        <time>2012-04-01T08:47:18Z</time>
      </trkpt>
      <trkpt lat="47.67355" lon="7.27763">
        <ele>345.2506104</ele>
        <time>2012-04-01T08:47:33Z</time>
      </trkpt>
      <trkpt lat="47.67355" lon="7.27764">
        <ele>346.2120361</ele>
        <time>2012-04-01T08:47:36Z</time>
      </trkpt>
      <trkpt lat="47.67353" lon="7.27768">
        <ele>349.5765381</ele>
        <time>2012-04-01T08:47:52Z</time>
      </trkpt>
      <trkpt lat="47.67351" lon="7.27767">
        <ele>350.5378418</ele>
        <time>2012-04-01T08:48:08Z</time>
      </trkpt>
      <trkpt lat="47.67354" lon="7.27765">
        <ele>350.5378418</ele>
        <time>2012-04-01T08:48:24Z</time>
      </trkpt>
      <trkpt lat="47.67351" lon="7.27765">
        <ele>355.3444824</ele>
        <time>2012-04-01T08:48:37Z</time>
      </trkpt>
      <trkpt lat="47.67351" lon="7.27767">
        <ele>356.3057861</ele>
        <time>2012-04-01T08:48:42Z</time>
      </trkpt>
      <trkpt lat="47.67354" lon="7.27767">
        <ele>351.9798584</ele>
        <time>2012-04-01T08:49:02Z</time>
      </trkpt>
      <trkpt lat="47.67357" lon="7.27767">
        <ele>345.2506104</ele>
        <time>2012-04-01T08:49:15Z</time>
      </trkpt>
      <trkpt lat="47.67359" lon="7.27764">
        <ele>351.9798584</ele>
        <time>2012-04-01T08:49:34Z</time>
      </trkpt>
      <trkpt lat="47.67354" lon="7.27769">
        <ele>358.7089844</ele>
        <time>2012-04-01T08:49:47Z</time>
      </trkpt>
      <trkpt lat="47.67354" lon="7.2777">
        <ele>356.3057861</ele>
        <time>2012-04-01T08:49:56Z</time>
      </trkpt>
      <trkpt lat="47.67356" lon="7.27768">
        <ele>352.9411621</ele>
        <time>2012-04-01T08:50:05Z</time>
      </trkpt>
      <trkpt lat="47.67356" lon="7.27762">
        <ele>354.8637695</ele>
        <time>2012-04-01T08:50:20Z</time>
      </trkpt>
      <trkpt lat="47.67357" lon="7.27754">
        <ele>357.7478027</ele>
        <time>2012-04-01T08:50:31Z</time>
      </trkpt>
      <trkpt lat="47.67362" lon="7.27757">
        <ele>354.3831787</ele>
        <time>2012-04-01T08:50:41Z</time>
      </trkpt>
      <trkpt lat="47.6736" lon="7.2776">
        <ele>347.6539307</ele>
        <time>2012-04-01T08:50:48Z</time>
      </trkpt>
      <trkpt lat="47.67361" lon="7.27764">
        <ele>345.7313232</ele>
        <time>2012-04-01T08:50:55Z</time>
      </trkpt>
      <trkpt lat="47.67362" lon="7.27765">
        <ele>346.692627</ele>
        <time>2012-04-01T08:50:59Z</time>
      </trkpt>
      <trkpt lat="47.67368" lon="7.27764">
        <ele>349.5765381</ele>
        <time>2012-04-01T08:51:10Z</time>
      </trkpt>
      <trkpt lat="47.67365" lon="7.27764">
        <ele>349.0958252</ele>
        <time>2012-04-01T08:51:20Z</time>
      </trkpt>
      <trkpt lat="47.67362" lon="7.27763">
        <ele>348.6152344</ele>
        <time>2012-04-01T08:51:30Z</time>
      </trkpt>
      <trkpt lat="47.67361" lon="7.2776">
        <ele>348.1346436</ele>
        <time>2012-04-01T08:51:46Z</time>
      </trkpt>
      <trkpt lat="47.67362" lon="7.2776">
        <ele>347.1732178</ele>
        <time>2012-04-01T08:51:55Z</time>
      </trkpt>
      <trkpt lat="47.67364" lon="7.27763">
        <ele>346.692627</ele>
        <time>2012-04-01T08:51:59Z</time>
      </trkpt>
      <trkpt lat="47.67365" lon="7.27768">
        <ele>345.2506104</ele>
        <time>2012-04-01T08:52:11Z</time>
      </trkpt>
      <trkpt lat="47.67365" lon="7.27766">
        <ele>346.692627</ele>
        <time>2012-04-01T08:52:25Z</time>
      </trkpt>
      <trkpt lat="47.67369" lon="7.27761">
        <ele>343.8085938</ele>
        <time>2012-04-01T08:52:45Z</time>
      </trkpt>
      <trkpt lat="47.67368" lon="7.27759">
        <ele>344.2894287</ele>
        <time>2012-04-01T08:52:55Z</time>
      </trkpt>
      <trkpt lat="47.67367" lon="7.27753">
        <ele>338.5214844</ele>
        <time>2012-04-01T08:53:10Z</time>
      </trkpt>
      <trkpt lat="47.6736" lon="7.2775">
        <ele>326.9855957</ele>
        <time>2012-04-01T08:53:33Z</time>
      </trkpt>
      <trkpt lat="47.67361" lon="7.27755">
        <ele>333.7147217</ele>
        <time>2012-04-01T08:53:42Z</time>
      </trkpt>
      <trkpt lat="47.67362" lon="7.27757">
        <ele>341.8859863</ele>
        <time>2012-04-01T08:53:53Z</time>
      </trkpt>
      <trkpt lat="47.67366" lon="7.27759">
        <ele>342.3666992</ele>
        <time>2012-04-01T08:54:14Z</time>
      </trkpt>
      <trkpt lat="47.67364" lon="7.27761">
        <ele>344.7700195</ele>
        <time>2012-04-01T08:54:36Z</time>
      </trkpt>
      <trkpt lat="47.67363" lon="7.27762">
        <ele>347.1732178</ele>
        <time>2012-04-01T08:54:39Z</time>
      </trkpt>
      <trkpt lat="47.67364" lon="7.27768">
        <ele>347.6539307</ele>
        <time>2012-04-01T08:54:42Z</time>
      </trkpt>
      <trkpt lat="47.67365" lon="7.27771">
        <ele>347.1732178</ele>
        <time>2012-04-01T08:54:44Z</time>
      </trkpt>
      <trkpt lat="47.67371" lon="7.27787">
        <ele>347.6539307</ele>
        <time>2012-04-01T08:54:50Z</time>
      </trkpt>
      <trkpt lat="47.67377" lon="7.27798">
        <ele>348.1346436</ele>
        <time>2012-04-01T08:54:54Z</time>
      </trkpt>
      <trkpt lat="47.67381" lon="7.27807">
        <ele>348.6152344</ele>
        <time>2012-04-01T08:54:57Z</time>
      </trkpt>
      <trkpt lat="47.67385" lon="7.27818">
        <ele>351.0184326</ele>
        <time>2012-04-01T08:55:00Z</time>
      </trkpt>
      <trkpt lat="47.67387" lon="7.27826">
        <ele>351.9798584</ele>
        <time>2012-04-01T08:55:03Z</time>
      </trkpt>
      <trkpt lat="47.67393" lon="7.27844">
        <ele>355.8251953</ele>
        <time>2012-04-01T08:55:09Z</time>
      </trkpt>
      <trkpt lat="47.67399" lon="7.27861">
        <ele>354.3831787</ele>
        <time>2012-04-01T08:55:15Z</time>
      </trkpt>
      <trkpt lat="47.67405" lon="7.2788">
        <ele>349.5765381</ele>
        <time>2012-04-01T08:55:21Z</time>
      </trkpt>
      <trkpt lat="47.6741" lon="7.2789">
        <ele>350.5378418</ele>
        <time>2012-04-01T08:55:24Z</time>
      </trkpt>
      <trkpt lat="47.67416" lon="7.2791">
        <ele>350.5378418</ele>
        <time>2012-04-01T08:55:31Z</time>
      </trkpt>
      <trkpt lat="47.67421" lon="7.27929">
        <ele>351.0184326</ele>
        <time>2012-04-01T08:55:36Z</time>
      </trkpt>
      <trkpt lat="47.67424" lon="7.27943">
        <ele>354.8637695</ele>
        <time>2012-04-01T08:55:41Z</time>
      </trkpt>
      <trkpt lat="47.67431" lon="7.27963">
        <ele>359.6704102</ele>
        <time>2012-04-01T08:55:47Z</time>
      </trkpt>
      <trkpt lat="47.67438" lon="7.27983">
        <ele>360.151123</ele>
        <time>2012-04-01T08:55:53Z</time>
      </trkpt>
      <trkpt lat="47.67447" lon="7.28">
        <ele>358.2283936</ele>
        <time>2012-04-01T08:55:58Z</time>
      </trkpt>
      <trkpt lat="47.67456" lon="7.28018">
        <ele>356.786377</ele>
        <time>2012-04-01T08:56:03Z</time>
      </trkpt>
      <trkpt lat="47.67464" lon="7.28043">
        <ele>357.2670898</ele>
        <time>2012-04-01T08:56:08Z</time>
      </trkpt>
      <trkpt lat="47.67477" lon="7.28076">
        <ele>358.7089844</ele>
        <time>2012-04-01T08:56:15Z</time>
      </trkpt>
      <trkpt lat="47.67483" lon="7.28096">
        <ele>359.1896973</ele>
        <time>2012-04-01T08:56:19Z</time>
      </trkpt>
      <trkpt lat="47.67494" lon="7.28128">
        <ele>363.5157471</ele>
        <time>2012-04-01T08:56:25Z</time>
      </trkpt>
      <trkpt lat="47.67501" lon="7.2815">
        <ele>365.9189453</ele>
        <time>2012-04-01T08:56:30Z</time>
      </trkpt>
      <trkpt lat="47.67504" lon="7.28159">
        <ele>368.3222656</ele>
        <time>2012-04-01T08:56:32Z</time>
      </trkpt>
      <trkpt lat="47.67514" lon="7.2819">
        <ele>369.7642822</ele>
        <time>2012-04-01T08:56:38Z</time>
      </trkpt>
      <trkpt lat="47.67523" lon="7.28215">
        <ele>369.7642822</ele>
        <time>2012-04-01T08:56:43Z</time>
      </trkpt>
      <trkpt lat="47.6753" lon="7.28241">
        <ele>369.2836914</ele>
        <time>2012-04-01T08:56:48Z</time>
      </trkpt>
      <trkpt lat="47.67537" lon="7.28262">
        <ele>369.2836914</ele>
        <time>2012-04-01T08:56:52Z</time>
      </trkpt>
      <trkpt lat="47.67545" lon="7.28279">
        <ele>367.8415527</ele>
        <time>2012-04-01T08:56:56Z</time>
      </trkpt>
      <trkpt lat="47.67554" lon="7.28295">
        <ele>361.1124268</ele>
        <time>2012-04-01T08:57:00Z</time>
      </trkpt>
      <trkpt lat="47.67566" lon="7.28313">
        <ele>360.151123</ele>
        <time>2012-04-01T08:57:07Z</time>
      </trkpt>
      <trkpt lat="47.67579" lon="7.28328">
        <ele>361.1124268</ele>
        <time>2012-04-01T08:57:13Z</time>
      </trkpt>
      <trkpt lat="47.67598" lon="7.28346">
        <ele>363.9963379</ele>
        <time>2012-04-01T08:57:20Z</time>
      </trkpt>
      <trkpt lat="47.67614" lon="7.28362">
        <ele>364.9576416</ele>
        <time>2012-04-01T08:57:27Z</time>
      </trkpt>
      <trkpt lat="47.67632" lon="7.28396">
        <ele>369.2836914</ele>
        <time>2012-04-01T08:57:36Z</time>
      </trkpt>
      <trkpt lat="47.67656" lon="7.28442">
        <ele>373.6094971</ele>
        <time>2012-04-01T08:57:48Z</time>
      </trkpt>
      <trkpt lat="47.67679" lon="7.28484">
        <ele>375.5321045</ele>
        <time>2012-04-01T08:57:59Z</time>
      </trkpt>
      <trkpt lat="47.67704" lon="7.2853">
        <ele>377.9354248</ele>
        <time>2012-04-01T08:58:10Z</time>
      </trkpt>
      <trkpt lat="47.67719" lon="7.28565">
        <ele>377.9354248</ele>
        <time>2012-04-01T08:58:17Z</time>
      </trkpt>
      <trkpt lat="47.67737" lon="7.28609">
        <ele>378.4161377</ele>
        <time>2012-04-01T08:58:25Z</time>
      </trkpt>
      <trkpt lat="47.67755" lon="7.28653">
        <ele>377.454834</ele>
        <time>2012-04-01T08:58:33Z</time>
      </trkpt>
      <trkpt lat="47.67766" lon="7.28681">
        <ele>378.4161377</ele>
        <time>2012-04-01T08:58:39Z</time>
      </trkpt>
      <trkpt lat="47.67781" lon="7.28718">
        <ele>376.9742432</ele>
        <time>2012-04-01T08:58:48Z</time>
      </trkpt>
      <trkpt lat="47.67773" lon="7.2873">
        <ele>372.1674805</ele>
        <time>2012-04-01T08:58:52Z</time>
      </trkpt>
      <trkpt lat="47.67747" lon="7.28756">
        <ele>367.3609619</ele>
        <time>2012-04-01T08:58:57Z</time>
      </trkpt>
      <trkpt lat="47.67709" lon="7.28793">
        <ele>361.5931396</ele>
        <time>2012-04-01T08:59:02Z</time>
      </trkpt>
      <trkpt lat="47.67668" lon="7.28834">
        <ele>356.3057861</ele>
        <time>2012-04-01T08:59:07Z</time>
      </trkpt>
      <trkpt lat="47.67599" lon="7.28905">
        <ele>351.4991455</ele>
        <time>2012-04-01T08:59:15Z</time>
      </trkpt>
      <trkpt lat="47.67592" lon="7.28913">
        <ele>350.5378418</ele>
        <time>2012-04-01T08:59:16Z</time>
      </trkpt>
      <trkpt lat="47.67562" lon="7.28925">
        <ele>347.6539307</ele>
        <time>2012-04-01T08:59:20Z</time>
      </trkpt>
      <trkpt lat="47.67549" lon="7.2892">
        <ele>347.1732178</ele>
        <time>2012-04-01T08:59:22Z</time>
      </trkpt>
      <trkpt lat="47.67516" lon="7.28921">
        <ele>345.7313232</ele>
        <time>2012-04-01T08:59:28Z</time>
      </trkpt>
      <trkpt lat="47.675" lon="7.2892">
        <ele>346.692627</ele>
        <time>2012-04-01T08:59:32Z</time>
      </trkpt>
      <trkpt lat="47.67484" lon="7.28931">
        <ele>345.7313232</ele>
        <time>2012-04-01T08:59:37Z</time>
      </trkpt>
      <trkpt lat="47.67476" lon="7.28945">
        <ele>344.7700195</ele>
        <time>2012-04-01T08:59:41Z</time>
      </trkpt>
      <trkpt lat="47.67463" lon="7.2898">
        <ele>338.0407715</ele>
        <time>2012-04-01T08:59:48Z</time>
      </trkpt>
      <trkpt lat="47.67461" lon="7.28995">
        <ele>341.8859863</ele>
        <time>2012-04-01T08:59:51Z</time>
      </trkpt>
      <trkpt lat="47.67457" lon="7.29015">
        <ele>341.8859863</ele>
        <time>2012-04-01T08:59:55Z</time>
      </trkpt>
      <trkpt lat="47.6745" lon="7.2904">
        <ele>340.4440918</ele>
        <time>2012-04-01T08:59:59Z</time>
      </trkpt>
      <trkpt lat="47.67446" lon="7.29069">
        <ele>341.8859863</ele>
        <time>2012-04-01T09:00:04Z</time>
      </trkpt>
      <trkpt lat="47.67444" lon="7.2908">
        <ele>342.3666992</ele>
        <time>2012-04-01T09:00:06Z</time>
      </trkpt>
      <trkpt lat="47.67438" lon="7.29116">
        <ele>340.4440918</ele>
        <time>2012-04-01T09:00:11Z</time>
      </trkpt>
      <trkpt lat="47.67435" lon="7.2913">
        <ele>339.482666</ele>
        <time>2012-04-01T09:00:13Z</time>
      </trkpt>
      <trkpt lat="47.67429" lon="7.29165">
        <ele>334.6761475</ele>
        <time>2012-04-01T09:00:18Z</time>
      </trkpt>
      <trkpt lat="47.67425" lon="7.29184">
        <ele>334.1954346</ele>
        <time>2012-04-01T09:00:21Z</time>
      </trkpt>
      <trkpt lat="47.67421" lon="7.29222">
        <ele>339.0020752</ele>
        <time>2012-04-01T09:00:27Z</time>
      </trkpt>
      <trkpt lat="47.6742" lon="7.29229">
        <ele>339.9633789</ele>
        <time>2012-04-01T09:00:28Z</time>
      </trkpt>
      <trkpt lat="47.67407" lon="7.29261">
        <ele>338.5214844</ele>
        <time>2012-04-01T09:00:33Z</time>
      </trkpt>
      <trkpt lat="47.67402" lon="7.29271">
        <ele>337.5600586</ele>
        <time>2012-04-01T09:00:35Z</time>
      </trkpt>
      <trkpt lat="47.67382" lon="7.29315">
        <ele>336.598877</ele>
        <time>2012-04-01T09:00:42Z</time>
      </trkpt>
      <trkpt lat="47.6737" lon="7.29341">
        <ele>335.6373291</ele>
        <time>2012-04-01T09:00:47Z</time>
      </trkpt>
      <trkpt lat="47.67366" lon="7.29352">
        <ele>337.0794678</ele>
        <time>2012-04-01T09:00:49Z</time>
      </trkpt>
      <trkpt lat="47.67361" lon="7.29404">
        <ele>345.7313232</ele>
        <time>2012-04-01T09:00:55Z</time>
      </trkpt>
      <trkpt lat="47.67355" lon="7.29454">
        <ele>350.5378418</ele>
        <time>2012-04-01T09:01:01Z</time>
      </trkpt>
      <trkpt lat="47.67354" lon="7.29462">
        <ele>351.4991455</ele>
        <time>2012-04-01T09:01:02Z</time>
      </trkpt>
      <trkpt lat="47.67351" lon="7.29491">
        <ele>350.5378418</ele>
        <time>2012-04-01T09:01:06Z</time>
      </trkpt>
      <trkpt lat="47.67346" lon="7.29525">
        <ele>348.1346436</ele>
        <time>2012-04-01T09:01:11Z</time>
      </trkpt>
      <trkpt lat="47.6734" lon="7.29541">
        <ele>348.6152344</ele>
        <time>2012-04-01T09:01:14Z</time>
      </trkpt>
      <trkpt lat="47.67335" lon="7.2955">
        <ele>348.1346436</ele>
        <time>2012-04-01T09:01:16Z</time>
      </trkpt>
      <trkpt lat="47.67316" lon="7.29562">
        <ele>350.5378418</ele>
        <time>2012-04-01T09:01:21Z</time>
      </trkpt>
      <trkpt lat="47.67304" lon="7.29562">
        <ele>351.4991455</ele>
        <time>2012-04-01T09:01:23Z</time>
      </trkpt>
      <trkpt lat="47.67282" lon="7.29557">
        <ele>354.8637695</ele>
        <time>2012-04-01T09:01:27Z</time>
      </trkpt>
      <trkpt lat="47.67266" lon="7.29549">
        <ele>356.3057861</ele>
        <time>2012-04-01T09:01:30Z</time>
      </trkpt>
      <trkpt lat="47.67237" lon="7.29543">
        <ele>358.2283936</ele>
        <time>2012-04-01T09:01:35Z</time>
      </trkpt>
      <trkpt lat="47.67202" lon="7.29549">
        <ele>353.9025879</ele>
        <time>2012-04-01T09:01:42Z</time>
      </trkpt>
      <trkpt lat="47.67193" lon="7.29553">
        <ele>352.9411621</ele>
        <time>2012-04-01T09:01:44Z</time>
      </trkpt>
      <trkpt lat="47.67164" lon="7.29569">
        <ele>350.057251</ele>
        <time>2012-04-01T09:01:49Z</time>
      </trkpt>
      <trkpt lat="47.67144" lon="7.29587">
        <ele>347.1732178</ele>
        <time>2012-04-01T09:01:53Z</time>
      </trkpt>
      <trkpt lat="47.67124" lon="7.29615">
        <ele>345.2506104</ele>
        <time>2012-04-01T09:01:58Z</time>
      </trkpt>
      <trkpt lat="47.67116" lon="7.29629">
        <ele>342.84729</ele>
        <time>2012-04-01T09:02:00Z</time>
      </trkpt>
      <trkpt lat="47.67107" lon="7.29654">
        <ele>342.84729</ele>
        <time>2012-04-01T09:02:03Z</time>
      </trkpt>
      <trkpt lat="47.671" lon="7.29678">
        <ele>342.84729</ele>
        <time>2012-04-01T09:02:06Z</time>
      </trkpt>
      <trkpt lat="47.67088" lon="7.29704">
        <ele>340.9246826</ele>
        <time>2012-04-01T09:02:10Z</time>
      </trkpt>
      <trkpt lat="47.6707" lon="7.29742">
        <ele>334.6761475</ele>
        <time>2012-04-01T09:02:16Z</time>
      </trkpt>
      <trkpt lat="47.67055" lon="7.29767">
        <ele>329.388916</ele>
        <time>2012-04-01T09:02:21Z</time>
      </trkpt>
      <trkpt lat="47.67043" lon="7.29787">
        <ele>326.9855957</ele>
        <time>2012-04-01T09:02:25Z</time>
      </trkpt>
      <trkpt lat="47.6703" lon="7.29806">
        <ele>325.0629883</ele>
        <time>2012-04-01T09:02:29Z</time>
      </trkpt>
      <trkpt lat="47.67024" lon="7.29821">
        <ele>325.0629883</ele>
        <time>2012-04-01T09:02:32Z</time>
      </trkpt>
      <trkpt lat="47.67013" lon="7.2984">
        <ele>323.6209717</ele>
        <time>2012-04-01T09:02:36Z</time>
      </trkpt>
      <trkpt lat="47.67008" lon="7.29849">
        <ele>324.1015625</ele>
        <time>2012-04-01T09:02:38Z</time>
      </trkpt>
      <trkpt lat="47.67004" lon="7.29867">
        <ele>325.0629883</ele>
        <time>2012-04-01T09:02:41Z</time>
      </trkpt>
      <trkpt lat="47.6699" lon="7.29895">
        <ele>324.1015625</ele>
        <time>2012-04-01T09:02:46Z</time>
      </trkpt>
      <trkpt lat="47.66964" lon="7.29944">
        <ele>336.1181641</ele>
        <time>2012-04-01T09:02:51Z</time>
      </trkpt>
      <trkpt lat="47.66958" lon="7.29972">
        <ele>346.692627</ele>
        <time>2012-04-01T09:02:55Z</time>
      </trkpt>
      <trkpt lat="47.66954" lon="7.29988">
        <ele>347.1732178</ele>
        <time>2012-04-01T09:02:57Z</time>
      </trkpt>
      <trkpt lat="47.66945" lon="7.3002">
        <ele>349.5765381</ele>
        <time>2012-04-01T09:03:01Z</time>
      </trkpt>
      <trkpt lat="47.66937" lon="7.3004">
        <ele>348.1346436</ele>
        <time>2012-04-01T09:03:04Z</time>
      </trkpt>
      <trkpt lat="47.66929" lon="7.30066">
        <ele>345.2506104</ele>
        <time>2012-04-01T09:03:08Z</time>
      </trkpt>
      <trkpt lat="47.66925" lon="7.30085">
        <ele>345.2506104</ele>
        <time>2012-04-01T09:03:11Z</time>
      </trkpt>
      <trkpt lat="47.66916" lon="7.30117">
        <ele>345.7313232</ele>
        <time>2012-04-01T09:03:16Z</time>
      </trkpt>
      <trkpt lat="47.66913" lon="7.30133">
        <ele>347.1732178</ele>
        <time>2012-04-01T09:03:19Z</time>
      </trkpt>
      <trkpt lat="47.66908" lon="7.30156">
        <ele>348.6152344</ele>
        <time>2012-04-01T09:03:23Z</time>
      </trkpt>
      <trkpt lat="47.66904" lon="7.30185">
        <ele>356.786377</ele>
        <time>2012-04-01T09:03:29Z</time>
      </trkpt>
      <trkpt lat="47.66901" lon="7.30204">
        <ele>356.786377</ele>
        <time>2012-04-01T09:03:32Z</time>
      </trkpt>
      <trkpt lat="47.66894" lon="7.30232">
        <ele>361.1124268</ele>
        <time>2012-04-01T09:03:37Z</time>
      </trkpt>
      <trkpt lat="47.6689" lon="7.3025">
        <ele>364.4769287</ele>
        <time>2012-04-01T09:03:40Z</time>
      </trkpt>
      <trkpt lat="47.66886" lon="7.30275">
        <ele>366.3995361</ele>
        <time>2012-04-01T09:03:44Z</time>
      </trkpt>
      <trkpt lat="47.66879" lon="7.30304">
        <ele>364.4769287</ele>
        <time>2012-04-01T09:03:50Z</time>
      </trkpt>
      <trkpt lat="47.66878" lon="7.30309">
        <ele>363.9963379</ele>
        <time>2012-04-01T09:03:51Z</time>
      </trkpt>
      <trkpt lat="47.66879" lon="7.30345">
        <ele>359.6704102</ele>
        <time>2012-04-01T09:03:57Z</time>
      </trkpt>
      <trkpt lat="47.66883" lon="7.30373">
        <ele>360.6317139</ele>
        <time>2012-04-01T09:04:02Z</time>
      </trkpt>
      <trkpt lat="47.66887" lon="7.3041">
        <ele>362.0737305</ele>
        <time>2012-04-01T09:04:08Z</time>
      </trkpt>
      <trkpt lat="47.66888" lon="7.30433">
        <ele>362.0737305</ele>
        <time>2012-04-01T09:04:12Z</time>
      </trkpt>
      <trkpt lat="47.6689" lon="7.30454">
        <ele>358.7089844</ele>
        <time>2012-04-01T09:04:16Z</time>
      </trkpt>
      <trkpt lat="47.66892" lon="7.30483">
        <ele>358.2283936</ele>
        <time>2012-04-01T09:04:21Z</time>
      </trkpt>
      <trkpt lat="47.66894" lon="7.30514">
        <ele>359.6704102</ele>
        <time>2012-04-01T09:04:27Z</time>
      </trkpt>
      <trkpt lat="47.669" lon="7.30541">
        <ele>364.4769287</ele>
        <time>2012-04-01T09:04:32Z</time>
      </trkpt>
      <trkpt lat="47.66906" lon="7.30573">
        <ele>360.151123</ele>
        <time>2012-04-01T09:04:37Z</time>
      </trkpt>
      <trkpt lat="47.66906" lon="7.3058">
        <ele>359.1896973</ele>
        <time>2012-04-01T09:04:38Z</time>
      </trkpt>
      <trkpt lat="47.66909" lon="7.30599">
        <ele>357.2670898</ele>
        <time>2012-04-01T09:04:41Z</time>
      </trkpt>
      <trkpt lat="47.66913" lon="7.30638">
        <ele>358.2283936</ele>
        <time>2012-04-01T09:04:47Z</time>
      </trkpt>
      <trkpt lat="47.66915" lon="7.30644">
        <ele>359.1896973</ele>
        <time>2012-04-01T09:04:48Z</time>
      </trkpt>
      <trkpt lat="47.66919" lon="7.3068">
        <ele>359.1896973</ele>
        <time>2012-04-01T09:04:54Z</time>
      </trkpt>
      <trkpt lat="47.66924" lon="7.30713">
        <ele>366.3995361</ele>
        <time>2012-04-01T09:05:00Z</time>
      </trkpt>
      <trkpt lat="47.66928" lon="7.30737">
        <ele>376.9742432</ele>
        <time>2012-04-01T09:05:05Z</time>
      </trkpt>
      <trkpt lat="47.66932" lon="7.30759">
        <ele>385.6259766</ele>
        <time>2012-04-01T09:05:10Z</time>
      </trkpt>
      <trkpt lat="47.66935" lon="7.30789">
        <ele>392.3553467</ele>
        <time>2012-04-01T09:05:17Z</time>
      </trkpt>
      <trkpt lat="47.66933" lon="7.30806">
        <ele>390.913208</ele>
        <time>2012-04-01T09:05:21Z</time>
      </trkpt>
      <trkpt lat="47.6693" lon="7.30829">
        <ele>387.0679932</ele>
        <time>2012-04-01T09:05:26Z</time>
      </trkpt>
      <trkpt lat="47.66929" lon="7.30832">
        <ele>387.0679932</ele>
        <time>2012-04-01T09:05:27Z</time>
      </trkpt>
      <trkpt lat="47.66919" lon="7.30856">
        <ele>382.2613525</ele>
        <time>2012-04-01T09:05:33Z</time>
      </trkpt>
      <trkpt lat="47.66905" lon="7.30881">
        <ele>381.3000488</ele>
        <time>2012-04-01T09:05:39Z</time>
      </trkpt>
      <trkpt lat="47.66885" lon="7.30904">
        <ele>378.4161377</ele>
        <time>2012-04-01T09:05:45Z</time>
      </trkpt>
      <trkpt lat="47.66871" lon="7.30915">
        <ele>377.9354248</ele>
        <time>2012-04-01T09:05:49Z</time>
      </trkpt>
      <trkpt lat="47.66848" lon="7.30936">
        <ele>372.1674805</ele>
        <time>2012-04-01T09:05:56Z</time>
      </trkpt>
      <trkpt lat="47.66833" lon="7.30948">
        <ele>371.2062988</ele>
        <time>2012-04-01T09:06:01Z</time>
      </trkpt>
      <trkpt lat="47.6682" lon="7.30958">
        <ele>373.1289062</ele>
        <time>2012-04-01T09:06:05Z</time>
      </trkpt>
      <trkpt lat="47.668" lon="7.30968">
        <ele>376.0128174</ele>
        <time>2012-04-01T09:06:11Z</time>
      </trkpt>
      <trkpt lat="47.66786" lon="7.30974">
        <ele>377.454834</ele>
        <time>2012-04-01T09:06:15Z</time>
      </trkpt>
      <trkpt lat="47.6677" lon="7.30983">
        <ele>379.3774414</ele>
        <time>2012-04-01T09:06:20Z</time>
      </trkpt>
      <trkpt lat="47.6676" lon="7.30993">
        <ele>379.3774414</ele>
        <time>2012-04-01T09:06:24Z</time>
      </trkpt>
      <trkpt lat="47.66742" lon="7.3101">
        <ele>380.819458</ele>
        <time>2012-04-01T09:06:29Z</time>
      </trkpt>
      <trkpt lat="47.66728" lon="7.31028">
        <ele>382.2613525</ele>
        <time>2012-04-01T09:06:34Z</time>
      </trkpt>
      <trkpt lat="47.6671" lon="7.31048">
        <ele>384.184082</ele>
        <time>2012-04-01T09:06:39Z</time>
      </trkpt>
      <trkpt lat="47.66692" lon="7.3107">
        <ele>381.3000488</ele>
        <time>2012-04-01T09:06:44Z</time>
      </trkpt>
      <trkpt lat="47.66686" lon="7.31078">
        <ele>380.3387451</ele>
        <time>2012-04-01T09:06:46Z</time>
      </trkpt>
      <trkpt lat="47.66675" lon="7.31098">
        <ele>383.2226562</ele>
        <time>2012-04-01T09:06:52Z</time>
      </trkpt>
      <trkpt lat="47.66658" lon="7.31135">
        <ele>382.7420654</ele>
        <time>2012-04-01T09:06:59Z</time>
      </trkpt>
      <trkpt lat="47.66653" lon="7.3115">
        <ele>381.3000488</ele>
        <time>2012-04-01T09:07:02Z</time>
      </trkpt>
      <trkpt lat="47.66649" lon="7.3118">
        <ele>373.1289062</ele>
        <time>2012-04-01T09:07:09Z</time>
      </trkpt>
      <trkpt lat="47.66646" lon="7.31191">
        <ele>371.6868896</ele>
        <time>2012-04-01T09:07:13Z</time>
      </trkpt>
      <trkpt lat="47.66644" lon="7.31201">
        <ele>375.5321045</ele>
        <time>2012-04-01T09:07:19Z</time>
      </trkpt>
      <trkpt lat="47.66641" lon="7.31208">
        <ele>382.7420654</ele>
        <time>2012-04-01T09:07:27Z</time>
      </trkpt>
      <trkpt lat="47.66641" lon="7.3121">
        <ele>385.6259766</ele>
        <time>2012-04-01T09:07:32Z</time>
      </trkpt>
      <trkpt lat="47.66641" lon="7.3121">
        <ele>387.0679932</ele>
        <time>2012-04-01T09:07:34Z</time>
      </trkpt>
      <trkpt lat="47.66639" lon="7.31211">
        <ele>388.0292969</ele>
        <time>2012-04-01T09:07:40Z</time>
      </trkpt>
      <trkpt lat="47.6664" lon="7.31207">
        <ele>397.6424561</ele>
        <time>2012-04-01T09:07:52Z</time>
      </trkpt>
      <trkpt lat="47.66641" lon="7.31208">
        <ele>397.6424561</ele>
        <time>2012-04-01T09:07:54Z</time>
      </trkpt>
      <trkpt lat="47.66639" lon="7.31205">
        <ele>399.5650635</ele>
        <time>2012-04-01T09:08:01Z</time>
      </trkpt>
      <trkpt lat="47.66638" lon="7.31205">
        <ele>393.3165283</ele>
        <time>2012-04-01T09:08:24Z</time>
      </trkpt>
      <trkpt lat="47.66637" lon="7.31203">
        <ele>396.6811523</ele>
        <time>2012-04-01T09:08:38Z</time>
      </trkpt>
      <trkpt lat="47.66635" lon="7.31204">
        <ele>396.2005615</ele>
        <time>2012-04-01T09:08:52Z</time>
      </trkpt>
      <trkpt lat="47.66636" lon="7.31209">
        <ele>398.1231689</ele>
        <time>2012-04-01T09:09:13Z</time>
      </trkpt>
      <trkpt lat="47.66638" lon="7.31206">
        <ele>401.9685059</ele>
        <time>2012-04-01T09:09:22Z</time>
      </trkpt>
      <trkpt lat="47.66636" lon="7.31202">
        <ele>397.6424561</ele>
        <time>2012-04-01T09:09:46Z</time>
      </trkpt>
      <trkpt lat="47.66638" lon="7.312">
        <ele>407.2556152</ele>
        <time>2012-04-01T09:10:05Z</time>
      </trkpt>
      <trkpt lat="47.66634" lon="7.31207">
        <ele>401.9685059</ele>
        <time>2012-04-01T09:10:14Z</time>
      </trkpt>
      <trkpt lat="47.66633" lon="7.31209">
        <ele>401.0070801</ele>
        <time>2012-04-01T09:10:15Z</time>
      </trkpt>
      <trkpt lat="47.66632" lon="7.3122">
        <ele>395.7198486</ele>
        <time>2012-04-01T09:10:19Z</time>
      </trkpt>
      <trkpt lat="47.66632" lon="7.31245">
        <ele>388.9906006</ele>
        <time>2012-04-01T09:10:25Z</time>
      </trkpt>
      <trkpt lat="47.66632" lon="7.31272">
        <ele>384.184082</ele>
        <time>2012-04-01T09:10:30Z</time>
      </trkpt>
      <trkpt lat="47.66634" lon="7.31309">
        <ele>376.9742432</ele>
        <time>2012-04-01T09:10:36Z</time>
      </trkpt>
      <trkpt lat="47.66635" lon="7.31342">
        <ele>373.6094971</ele>
        <time>2012-04-01T09:10:41Z</time>
      </trkpt>
      <trkpt lat="47.66635" lon="7.31354">
        <ele>371.6868896</ele>
        <time>2012-04-01T09:10:43Z</time>
      </trkpt>
      <trkpt lat="47.66638" lon="7.3138">
        <ele>370.7255859</ele>
        <time>2012-04-01T09:10:47Z</time>
      </trkpt>
      <trkpt lat="47.66642" lon="7.31412">
        <ele>370.7255859</ele>
        <time>2012-04-01T09:10:52Z</time>
      </trkpt>
      <trkpt lat="47.66647" lon="7.31439">
        <ele>377.454834</ele>
        <time>2012-04-01T09:10:56Z</time>
      </trkpt>
      <trkpt lat="47.66652" lon="7.3146">
        <ele>385.6259766</ele>
        <time>2012-04-01T09:10:59Z</time>
      </trkpt>
      <trkpt lat="47.66656" lon="7.31491">
        <ele>392.3553467</ele>
        <time>2012-04-01T09:11:04Z</time>
      </trkpt>
      <trkpt lat="47.66657" lon="7.31502">
        <ele>393.7972412</ele>
        <time>2012-04-01T09:11:06Z</time>
      </trkpt>
      <trkpt lat="47.66661" lon="7.31525">
        <ele>394.7585449</ele>
        <time>2012-04-01T09:11:10Z</time>
      </trkpt>
      <trkpt lat="47.66668" lon="7.31549">
        <ele>395.2391357</ele>
        <time>2012-04-01T09:11:14Z</time>
      </trkpt>
      <trkpt lat="47.66682" lon="7.31589">
        <ele>401.9685059</ele>
        <time>2012-04-01T09:11:20Z</time>
      </trkpt>
      <trkpt lat="47.66684" lon="7.31595">
        <ele>401.487793</ele>
        <time>2012-04-01T09:11:21Z</time>
      </trkpt>
      <trkpt lat="47.66688" lon="7.3161">
        <ele>405.3330078</ele>
        <time>2012-04-01T09:11:24Z</time>
      </trkpt>
      <trkpt lat="47.66694" lon="7.31625">
        <ele>409.1783447</ele>
        <time>2012-04-01T09:11:27Z</time>
      </trkpt>
      <trkpt lat="47.66702" lon="7.31646">
        <ele>423.1174316</ele>
        <time>2012-04-01T09:11:32Z</time>
      </trkpt>
      <trkpt lat="47.66704" lon="7.31649">
        <ele>425.520752</ele>
        <time>2012-04-01T09:11:33Z</time>
      </trkpt>
      <trkpt lat="47.66711" lon="7.31679">
        <ele>422.6367188</ele>
        <time>2012-04-01T09:11:38Z</time>
      </trkpt>
      <trkpt lat="47.66717" lon="7.31705">
        <ele>421.1948242</ele>
        <time>2012-04-01T09:11:43Z</time>
      </trkpt>
      <trkpt lat="47.66722" lon="7.31729">
        <ele>418.7915039</ele>
        <time>2012-04-01T09:11:48Z</time>
      </trkpt>
      <trkpt lat="47.66729" lon="7.31754">
        <ele>421.1948242</ele>
        <time>2012-04-01T09:11:52Z</time>
      </trkpt>
      <trkpt lat="47.66736" lon="7.31775">
        <ele>422.6367188</ele>
        <time>2012-04-01T09:11:55Z</time>
      </trkpt>
      <trkpt lat="47.66746" lon="7.31796">
        <ele>418.7915039</ele>
        <time>2012-04-01T09:11:59Z</time>
      </trkpt>
      <trkpt lat="47.66752" lon="7.31816">
        <ele>415.4268799</ele>
        <time>2012-04-01T09:12:03Z</time>
      </trkpt>
      <trkpt lat="47.66762" lon="7.31835">
        <ele>412.5428467</ele>
        <time>2012-04-01T09:12:07Z</time>
      </trkpt>
      <trkpt lat="47.66773" lon="7.31861">
        <ele>410.6202393</ele>
        <time>2012-04-01T09:12:13Z</time>
      </trkpt>
      <trkpt lat="47.6678" lon="7.31883">
        <ele>414.4654541</ele>
        <time>2012-04-01T09:12:18Z</time>
      </trkpt>
      <trkpt lat="47.66791" lon="7.31902">
        <ele>417.8302002</ele>
        <time>2012-04-01T09:12:22Z</time>
      </trkpt>
      <trkpt lat="47.66802" lon="7.31919">
        <ele>420.7141113</ele>
        <time>2012-04-01T09:12:26Z</time>
      </trkpt>
      <trkpt lat="47.66811" lon="7.31936">
        <ele>423.5980225</ele>
        <time>2012-04-01T09:12:30Z</time>
      </trkpt>
      <trkpt lat="47.66815" lon="7.3194">
        <ele>425.0401611</ele>
        <time>2012-04-01T09:12:31Z</time>
      </trkpt>
      <trkpt lat="47.66831" lon="7.31963">
        <ele>426.4820557</ele>
        <time>2012-04-01T09:12:35Z</time>
      </trkpt>
      <trkpt lat="47.66851" lon="7.31986">
        <ele>429.8465576</ele>
        <time>2012-04-01T09:12:39Z</time>
      </trkpt>
      <trkpt lat="47.66863" lon="7.32007">
        <ele>420.7141113</ele>
        <time>2012-04-01T09:12:42Z</time>
      </trkpt>
      <trkpt lat="47.66868" lon="7.3202">
        <ele>415.9074707</ele>
        <time>2012-04-01T09:12:44Z</time>
      </trkpt>
      <trkpt lat="47.66881" lon="7.3206">
        <ele>410.1396484</ele>
        <time>2012-04-01T09:12:51Z</time>
      </trkpt>
      <trkpt lat="47.66897" lon="7.32103">
        <ele>403.8911133</ele>
        <time>2012-04-01T09:12:58Z</time>
      </trkpt>
      <trkpt lat="47.66899" lon="7.3211">
        <ele>402.9296875</ele>
        <time>2012-04-01T09:12:59Z</time>
      </trkpt>
      <trkpt lat="47.66913" lon="7.32153">
        <ele>397.6424561</ele>
        <time>2012-04-01T09:13:06Z</time>
      </trkpt>
      <trkpt lat="47.66917" lon="7.32165">
        <ele>398.1231689</ele>
        <time>2012-04-01T09:13:08Z</time>
      </trkpt>
      <trkpt lat="47.66934" lon="7.32209">
        <ele>397.1617432</ele>
        <time>2012-04-01T09:13:15Z</time>
      </trkpt>
      <trkpt lat="47.66947" lon="7.32239">
        <ele>396.2005615</ele>
        <time>2012-04-01T09:13:20Z</time>
      </trkpt>
      <trkpt lat="47.66953" lon="7.32257">
        <ele>394.2779541</ele>
        <time>2012-04-01T09:13:23Z</time>
      </trkpt>
      <trkpt lat="47.66967" lon="7.32289">
        <ele>393.7972412</ele>
        <time>2012-04-01T09:13:28Z</time>
      </trkpt>
      <trkpt lat="47.6699" lon="7.32341">
        <ele>389.9519043</ele>
        <time>2012-04-01T09:13:35Z</time>
      </trkpt>
      <trkpt lat="47.67005" lon="7.32376">
        <ele>387.0679932</ele>
        <time>2012-04-01T09:13:40Z</time>
      </trkpt>
      <trkpt lat="47.67041" lon="7.3244">
        <ele>385.1453857</ele>
        <time>2012-04-01T09:13:49Z</time>
      </trkpt>
      <trkpt lat="47.67069" lon="7.32491">
        <ele>385.1453857</ele>
        <time>2012-04-01T09:13:56Z</time>
      </trkpt>
      <trkpt lat="47.67101" lon="7.32554">
        <ele>385.1453857</ele>
        <time>2012-04-01T09:14:05Z</time>
      </trkpt>
      <trkpt lat="47.6713" lon="7.32626">
        <ele>385.1453857</ele>
        <time>2012-04-01T09:14:15Z</time>
      </trkpt>
      <trkpt lat="47.67146" lon="7.32669">
        <ele>386.1066895</ele>
        <time>2012-04-01T09:14:21Z</time>
      </trkpt>
      <trkpt lat="47.67149" lon="7.32676">
        <ele>386.5874023</ele>
        <time>2012-04-01T09:14:22Z</time>
      </trkpt>
      <trkpt lat="47.67159" lon="7.32719">
        <ele>386.1066895</ele>
        <time>2012-04-01T09:14:28Z</time>
      </trkpt>
      <trkpt lat="47.67165" lon="7.32746">
        <ele>387.0679932</ele>
        <time>2012-04-01T09:14:32Z</time>
      </trkpt>
      <trkpt lat="47.67169" lon="7.32776">
        <ele>386.5874023</ele>
        <time>2012-04-01T09:14:36Z</time>
      </trkpt>
      <trkpt lat="47.67173" lon="7.3279">
        <ele>386.5874023</ele>
        <time>2012-04-01T09:14:38Z</time>
      </trkpt>
      <trkpt lat="47.67175" lon="7.32834">
        <ele>384.6647949</ele>
        <time>2012-04-01T09:14:43Z</time>
      </trkpt>
      <trkpt lat="47.67177" lon="7.32878">
        <ele>379.8580322</ele>
        <time>2012-04-01T09:14:47Z</time>
      </trkpt>
      <trkpt lat="47.67177" lon="7.32904">
        <ele>378.4161377</ele>
        <time>2012-04-01T09:14:49Z</time>
      </trkpt>
      <trkpt lat="47.67169" lon="7.32999">
        <ele>377.9354248</ele>
        <time>2012-04-01T09:14:56Z</time>
      </trkpt>
      <trkpt lat="47.67169" lon="7.33037">
        <ele>375.5321045</ele>
        <time>2012-04-01T09:14:59Z</time>
      </trkpt>
      <trkpt lat="47.67171" lon="7.33107">
        <ele>369.7642822</ele>
        <time>2012-04-01T09:15:04Z</time>
      </trkpt>
      <trkpt lat="47.67171" lon="7.3315">
        <ele>365.9189453</ele>
        <time>2012-04-01T09:15:07Z</time>
      </trkpt>
      <trkpt lat="47.67172" lon="7.33191">
        <ele>362.0737305</ele>
        <time>2012-04-01T09:15:10Z</time>
      </trkpt>
      <trkpt lat="47.67174" lon="7.33218">
        <ele>360.6317139</ele>
        <time>2012-04-01T09:15:12Z</time>
      </trkpt>
      <trkpt lat="47.67175" lon="7.33232">
        <ele>360.6317139</ele>
        <time>2012-04-01T09:15:13Z</time>
      </trkpt>
      <trkpt lat="47.67184" lon="7.33304">
        <ele>359.1896973</ele>
        <time>2012-04-01T09:15:19Z</time>
      </trkpt>
      <trkpt lat="47.67185" lon="7.33339">
        <ele>359.6704102</ele>
        <time>2012-04-01T09:15:22Z</time>
      </trkpt>
      <trkpt lat="47.67185" lon="7.33405">
        <ele>360.151123</ele>
        <time>2012-04-01T09:15:28Z</time>
      </trkpt>
      <trkpt lat="47.67185" lon="7.33416">
        <ele>359.6704102</ele>
        <time>2012-04-01T09:15:29Z</time>
      </trkpt>
      <trkpt lat="47.67191" lon="7.33474">
        <ele>356.786377</ele>
        <time>2012-04-01T09:15:34Z</time>
      </trkpt>
      <trkpt lat="47.67196" lon="7.33552">
        <ele>355.3444824</ele>
        <time>2012-04-01T09:15:41Z</time>
      </trkpt>
      <trkpt lat="47.67197" lon="7.33572">
        <ele>356.786377</ele>
        <time>2012-04-01T09:15:43Z</time>
      </trkpt>
      <trkpt lat="47.67204" lon="7.33629">
        <ele>357.7478027</ele>
        <time>2012-04-01T09:15:49Z</time>
      </trkpt>
      <trkpt lat="47.67206" lon="7.33684">
        <ele>353.421875</ele>
        <time>2012-04-01T09:15:56Z</time>
      </trkpt>
      <trkpt lat="47.67204" lon="7.33737">
        <ele>351.4991455</ele>
        <time>2012-04-01T09:16:03Z</time>
      </trkpt>
      <trkpt lat="47.672" lon="7.33796">
        <ele>349.5765381</ele>
        <time>2012-04-01T09:16:10Z</time>
      </trkpt>
      <trkpt lat="47.67194" lon="7.33862">
        <ele>347.1732178</ele>
        <time>2012-04-01T09:16:17Z</time>
      </trkpt>
      <trkpt lat="47.67174" lon="7.33926">
        <ele>344.7700195</ele>
        <time>2012-04-01T09:16:24Z</time>
      </trkpt>
      <trkpt lat="47.67154" lon="7.33991">
        <ele>345.2506104</ele>
        <time>2012-04-01T09:16:31Z</time>
      </trkpt>
      <trkpt lat="47.67144" lon="7.34057">
        <ele>345.2506104</ele>
        <time>2012-04-01T09:16:38Z</time>
      </trkpt>
      <trkpt lat="47.6714" lon="7.34137">
        <ele>345.2506104</ele>
        <time>2012-04-01T09:16:46Z</time>
      </trkpt>
      <trkpt lat="47.67135" lon="7.34222">
        <ele>342.3666992</ele>
        <time>2012-04-01T09:16:55Z</time>
      </trkpt>
      <trkpt lat="47.67132" lon="7.34308">
        <ele>341.4052734</ele>
        <time>2012-04-01T09:17:04Z</time>
      </trkpt>
      <trkpt lat="47.67133" lon="7.34384">
        <ele>341.8859863</ele>
        <time>2012-04-01T09:17:12Z</time>
      </trkpt>
      <trkpt lat="47.67138" lon="7.3444">
        <ele>339.9633789</ele>
        <time>2012-04-01T09:17:18Z</time>
      </trkpt>
      <trkpt lat="47.67146" lon="7.34514">
        <ele>337.0794678</ele>
        <time>2012-04-01T09:17:26Z</time>
      </trkpt>
      <trkpt lat="47.67149" lon="7.34564">
        <ele>336.598877</ele>
        <time>2012-04-01T09:17:31Z</time>
      </trkpt>
      <trkpt lat="47.67151" lon="7.34626">
        <ele>334.6761475</ele>
        <time>2012-04-01T09:17:37Z</time>
      </trkpt>
      <trkpt lat="47.67152" lon="7.34637">
        <ele>333.7147217</ele>
        <time>2012-04-01T09:17:38Z</time>
      </trkpt>
      <trkpt lat="47.67152" lon="7.34702">
        <ele>329.8695068</ele>
        <time>2012-04-01T09:17:44Z</time>
      </trkpt>
      <trkpt lat="47.6715" lon="7.34715">
        <ele>328.9083252</ele>
        <time>2012-04-01T09:17:46Z</time>
      </trkpt>
      <trkpt lat="47.67153" lon="7.34723">
        <ele>330.8309326</ele>
        <time>2012-04-01T09:17:51Z</time>
      </trkpt>
      <trkpt lat="47.67158" lon="7.34724">
        <ele>331.7921143</ele>
        <time>2012-04-01T09:17:54Z</time>
      </trkpt>
      <trkpt lat="47.6717" lon="7.34723">
        <ele>333.2341309</ele>
        <time>2012-04-01T09:18:01Z</time>
      </trkpt>
      <trkpt lat="47.67184" lon="7.3472">
        <ele>333.7147217</ele>
        <time>2012-04-01T09:18:05Z</time>
      </trkpt>
      <trkpt lat="47.67209" lon="7.34716">
        <ele>329.388916</ele>
        <time>2012-04-01T09:18:09Z</time>
      </trkpt>
      <trkpt lat="47.67215" lon="7.34715">
        <ele>327.4661865</ele>
        <time>2012-04-01T09:18:10Z</time>
      </trkpt>
      <trkpt lat="47.67223" lon="7.34715">
        <ele>326.0241699</ele>
        <time>2012-04-01T09:18:12Z</time>
      </trkpt>
      <trkpt lat="47.67248" lon="7.34711">
        <ele>326.0241699</ele>
        <time>2012-04-01T09:18:20Z</time>
      </trkpt>
      <trkpt lat="47.67258" lon="7.34712">
        <ele>327.9467773</ele>
        <time>2012-04-01T09:18:22Z</time>
      </trkpt>
      <trkpt lat="47.67268" lon="7.34726">
        <ele>326.5048828</ele>
        <time>2012-04-01T09:18:25Z</time>
      </trkpt>
      <trkpt lat="47.67269" lon="7.34733">
        <ele>326.0241699</ele>
        <time>2012-04-01T09:18:26Z</time>
      </trkpt>
      <trkpt lat="47.6727" lon="7.34765">
        <ele>323.1403809</ele>
        <time>2012-04-01T09:18:30Z</time>
      </trkpt>
      <trkpt lat="47.67274" lon="7.34853">
        <ele>321.2177734</ele>
        <time>2012-04-01T09:18:39Z</time>
      </trkpt>
      <trkpt lat="47.67281" lon="7.34928">
        <ele>319.2950439</ele>
        <time>2012-04-01T09:18:46Z</time>
      </trkpt>
      <trkpt lat="47.67291" lon="7.35005">
        <ele>314.4884033</ele>
        <time>2012-04-01T09:18:53Z</time>
      </trkpt>
      <trkpt lat="47.67301" lon="7.35075">
        <ele>310.1624756</ele>
        <time>2012-04-01T09:18:59Z</time>
      </trkpt>
      <trkpt lat="47.67301" lon="7.35111">
        <ele>307.2785645</ele>
        <time>2012-04-01T09:19:02Z</time>
      </trkpt>
      <trkpt lat="47.67301" lon="7.35216">
        <ele>299.1072998</ele>
        <time>2012-04-01T09:19:11Z</time>
      </trkpt>
      <trkpt lat="47.67291" lon="7.35258">
        <ele>297.6654053</ele>
        <time>2012-04-01T09:19:15Z</time>
      </trkpt>
      <trkpt lat="47.67278" lon="7.35285">
        <ele>297.1846924</ele>
        <time>2012-04-01T09:19:18Z</time>
      </trkpt>
      <trkpt lat="47.67278" lon="7.35298">
        <ele>296.7041016</ele>
        <time>2012-04-01T09:19:19Z</time>
      </trkpt>
      <trkpt lat="47.67284" lon="7.3537">
        <ele>295.7426758</ele>
        <time>2012-04-01T09:19:26Z</time>
      </trkpt>
      <trkpt lat="47.67289" lon="7.35427">
        <ele>297.6654053</ele>
        <time>2012-04-01T09:19:32Z</time>
      </trkpt>
      <trkpt lat="47.6729" lon="7.35435">
        <ele>297.1846924</ele>
        <time>2012-04-01T09:19:33Z</time>
      </trkpt>
      <trkpt lat="47.673" lon="7.35488">
        <ele>295.7426758</ele>
        <time>2012-04-01T09:19:39Z</time>
      </trkpt>
      <trkpt lat="47.67321" lon="7.35545">
        <ele>295.2619629</ele>
        <time>2012-04-01T09:19:46Z</time>
      </trkpt>
      <trkpt lat="47.67347" lon="7.35602">
        <ele>293.3393555</ele>
        <time>2012-04-01T09:19:53Z</time>
      </trkpt>
      <trkpt lat="47.67367" lon="7.35648">
        <ele>290.9361572</ele>
        <time>2012-04-01T09:19:58Z</time>
      </trkpt>
      <trkpt lat="47.67384" lon="7.35702">
        <ele>286.1295166</ele>
        <time>2012-04-01T09:20:03Z</time>
      </trkpt>
      <trkpt lat="47.67406" lon="7.35768">
        <ele>282.2843018</ele>
        <time>2012-04-01T09:20:09Z</time>
      </trkpt>
      <trkpt lat="47.67424" lon="7.35808">
        <ele>280.3616943</ele>
        <time>2012-04-01T09:20:13Z</time>
      </trkpt>
      <trkpt lat="47.67445" lon="7.35838">
        <ele>281.8035889</ele>
        <time>2012-04-01T09:20:17Z</time>
      </trkpt>
      <trkpt lat="47.67449" lon="7.35847">
        <ele>281.322998</ele>
        <time>2012-04-01T09:20:18Z</time>
      </trkpt>
      <trkpt lat="47.67477" lon="7.35931">
        <ele>279.8808594</ele>
        <time>2012-04-01T09:20:26Z</time>
      </trkpt>
      <trkpt lat="47.67495" lon="7.35992">
        <ele>274.59375</ele>
        <time>2012-04-01T09:20:32Z</time>
      </trkpt>
      <trkpt lat="47.67497" lon="7.35998">
        <ele>273.6324463</ele>
        <time>2012-04-01T09:20:33Z</time>
      </trkpt>
      <trkpt lat="47.67504" lon="7.36025">
        <ele>272.1904297</ele>
        <time>2012-04-01T09:20:38Z</time>
      </trkpt>
      <trkpt lat="47.67508" lon="7.36041">
        <ele>270.7484131</ele>
        <time>2012-04-01T09:20:41Z</time>
      </trkpt>
      <trkpt lat="47.6751" lon="7.36054">
        <ele>269.3065186</ele>
        <time>2012-04-01T09:20:43Z</time>
      </trkpt>
      <trkpt lat="47.67517" lon="7.36082">
        <ele>269.3065186</ele>
        <time>2012-04-01T09:20:47Z</time>
      </trkpt>
      <trkpt lat="47.67532" lon="7.36138">
        <ele>265.4613037</ele>
        <time>2012-04-01T09:20:54Z</time>
      </trkpt>
      <trkpt lat="47.67535" lon="7.36153">
        <ele>264.4998779</ele>
        <time>2012-04-01T09:20:56Z</time>
      </trkpt>
      <trkpt lat="47.67542" lon="7.36209">
        <ele>263.0578613</ele>
        <time>2012-04-01T09:21:02Z</time>
      </trkpt>
      <trkpt lat="47.67545" lon="7.36278">
        <ele>261.1352539</ele>
        <time>2012-04-01T09:21:09Z</time>
      </trkpt>
      <trkpt lat="47.67549" lon="7.36349">
        <ele>259.6933594</ele>
        <time>2012-04-01T09:21:16Z</time>
      </trkpt>
      <trkpt lat="47.6755" lon="7.36407">
        <ele>258.7319336</ele>
        <time>2012-04-01T09:21:22Z</time>
      </trkpt>
      <trkpt lat="47.67549" lon="7.36457">
        <ele>258.2513428</ele>
        <time>2012-04-01T09:21:28Z</time>
      </trkpt>
      <trkpt lat="47.67549" lon="7.36486">
        <ele>257.770752</ele>
        <time>2012-04-01T09:21:32Z</time>
      </trkpt>
      <trkpt lat="47.67558" lon="7.36509">
        <ele>259.2126465</ele>
        <time>2012-04-01T09:21:36Z</time>
      </trkpt>
      <trkpt lat="47.67569" lon="7.36521">
        <ele>261.6159668</ele>
        <time>2012-04-01T09:21:39Z</time>
      </trkpt>
      <trkpt lat="47.67577" lon="7.3653">
        <ele>262.0965576</ele>
        <time>2012-04-01T09:21:41Z</time>
      </trkpt>
      <trkpt lat="47.6759" lon="7.36552">
        <ele>263.0578613</ele>
        <time>2012-04-01T09:21:45Z</time>
      </trkpt>
      <trkpt lat="47.67598" lon="7.3658">
        <ele>263.0578613</ele>
        <time>2012-04-01T09:21:50Z</time>
      </trkpt>
      <trkpt lat="47.67604" lon="7.36626">
        <ele>261.6159668</ele>
        <time>2012-04-01T09:21:58Z</time>
      </trkpt>
      <trkpt lat="47.67608" lon="7.36653">
        <ele>260.654541</ele>
        <time>2012-04-01T09:22:02Z</time>
      </trkpt>
      <trkpt lat="47.67615" lon="7.36705">
        <ele>257.770752</ele>
        <time>2012-04-01T09:22:11Z</time>
      </trkpt>
      <trkpt lat="47.67623" lon="7.36736">
        <ele>258.7319336</ele>
        <time>2012-04-01T09:22:16Z</time>
      </trkpt>
      <trkpt lat="47.67637" lon="7.36779">
        <ele>261.6159668</ele>
        <time>2012-04-01T09:22:23Z</time>
      </trkpt>
      <trkpt lat="47.67639" lon="7.36785">
        <ele>261.6159668</ele>
        <time>2012-04-01T09:22:24Z</time>
      </trkpt>
      <trkpt lat="47.67643" lon="7.36797">
        <ele>262.0965576</ele>
        <time>2012-04-01T09:22:26Z</time>
      </trkpt>
      <trkpt lat="47.67661" lon="7.36815">
        <ele>264.9805908</ele>
        <time>2012-04-01T09:22:31Z</time>
      </trkpt>
      <trkpt lat="47.67669" lon="7.36816">
        <ele>266.9031982</ele>
        <time>2012-04-01T09:22:33Z</time>
      </trkpt>
      <trkpt lat="47.67683" lon="7.36827">
        <ele>268.8258057</ele>
        <time>2012-04-01T09:22:38Z</time>
      </trkpt>
      <trkpt lat="47.67683" lon="7.36836">
        <ele>269.7871094</ele>
        <time>2012-04-01T09:22:40Z</time>
      </trkpt>
      <trkpt lat="47.67685" lon="7.36867">
        <ele>270.7484131</ele>
        <time>2012-04-01T09:22:47Z</time>
      </trkpt>
      <trkpt lat="47.67685" lon="7.36894">
        <ele>271.229126</ele>
        <time>2012-04-01T09:22:53Z</time>
      </trkpt>
      <trkpt lat="47.67683" lon="7.36933">
        <ele>270.2677002</ele>
        <time>2012-04-01T09:23:01Z</time>
      </trkpt>
      <trkpt lat="47.67685" lon="7.36966">
        <ele>269.7871094</ele>
        <time>2012-04-01T09:23:07Z</time>
      </trkpt>
      <trkpt lat="47.67692" lon="7.36999">
        <ele>269.7871094</ele>
        <time>2012-04-01T09:23:14Z</time>
      </trkpt>
      <trkpt lat="47.67704" lon="7.37029">
        <ele>271.229126</ele>
        <time>2012-04-01T09:23:20Z</time>
      </trkpt>
      <trkpt lat="47.67718" lon="7.37063">
        <ele>271.7097168</ele>
        <time>2012-04-01T09:23:27Z</time>
      </trkpt>
      <trkpt lat="47.67729" lon="7.37085">
        <ele>271.7097168</ele>
        <time>2012-04-01T09:23:32Z</time>
      </trkpt>
      <trkpt lat="47.67747" lon="7.37089">
        <ele>275.0744629</ele>
        <time>2012-04-01T09:23:37Z</time>
      </trkpt>
      <trkpt lat="47.67783" lon="7.37092">
        <ele>277.4776611</ele>
        <time>2012-04-01T09:23:45Z</time>
      </trkpt>
      <trkpt lat="47.67832" lon="7.37094">
        <ele>276.9970703</ele>
        <time>2012-04-01T09:23:54Z</time>
      </trkpt>
      <trkpt lat="47.67871" lon="7.37095">
        <ele>277.4776611</ele>
        <time>2012-04-01T09:24:01Z</time>
      </trkpt>
      <trkpt lat="47.67876" lon="7.37096">
        <ele>276.9970703</ele>
        <time>2012-04-01T09:24:02Z</time>
      </trkpt>
      <trkpt lat="47.67888" lon="7.37114">
        <ele>274.1130371</ele>
        <time>2012-04-01T09:24:06Z</time>
      </trkpt>
      <trkpt lat="47.67899" lon="7.37165">
        <ele>272.1904297</ele>
        <time>2012-04-01T09:24:11Z</time>
      </trkpt>
      <trkpt lat="47.67909" lon="7.37215">
        <ele>269.3065186</ele>
        <time>2012-04-01T09:24:16Z</time>
      </trkpt>
      <trkpt lat="47.67912" lon="7.37264">
        <ele>266.9031982</ele>
        <time>2012-04-01T09:24:22Z</time>
      </trkpt>
      <trkpt lat="47.67915" lon="7.3734">
        <ele>264.9805908</ele>
        <time>2012-04-01T09:24:31Z</time>
      </trkpt>
      <trkpt lat="47.67916" lon="7.37395">
        <ele>263.0578613</ele>
        <time>2012-04-01T09:24:38Z</time>
      </trkpt>
      <trkpt lat="47.67916" lon="7.37411">
        <ele>262.5771484</ele>
        <time>2012-04-01T09:24:40Z</time>
      </trkpt>
      <trkpt lat="47.67916" lon="7.37469">
        <ele>263.5385742</ele>
        <time>2012-04-01T09:24:47Z</time>
      </trkpt>
      <trkpt lat="47.67918" lon="7.37514">
        <ele>263.0578613</ele>
        <time>2012-04-01T09:24:53Z</time>
      </trkpt>
      <trkpt lat="47.6792" lon="7.37564">
        <ele>261.1352539</ele>
        <time>2012-04-01T09:25:00Z</time>
      </trkpt>
      <trkpt lat="47.6791" lon="7.37616">
        <ele>258.7319336</ele>
        <time>2012-04-01T09:25:07Z</time>
      </trkpt>
      <trkpt lat="47.67902" lon="7.37644">
        <ele>258.2513428</ele>
        <time>2012-04-01T09:25:11Z</time>
      </trkpt>
      <trkpt lat="47.67885" lon="7.3771">
        <ele>258.7319336</ele>
        <time>2012-04-01T09:25:20Z</time>
      </trkpt>
      <trkpt lat="47.67883" lon="7.37717">
        <ele>258.7319336</ele>
        <time>2012-04-01T09:25:21Z</time>
      </trkpt>
      <trkpt lat="47.67886" lon="7.37746">
        <ele>258.2513428</ele>
        <time>2012-04-01T09:25:25Z</time>
      </trkpt>
      <trkpt lat="47.67885" lon="7.37753">
        <ele>258.2513428</ele>
        <time>2012-04-01T09:25:26Z</time>
      </trkpt>
      <trkpt lat="47.67871" lon="7.37818">
        <ele>256.3287354</ele>
        <time>2012-04-01T09:25:34Z</time>
      </trkpt>
      <trkpt lat="47.67863" lon="7.37878">
        <ele>254.8865967</ele>
        <time>2012-04-01T09:25:41Z</time>
      </trkpt>
      <trkpt lat="47.67862" lon="7.37936">
        <ele>253.925415</ele>
        <time>2012-04-01T09:25:48Z</time>
      </trkpt>
      <trkpt lat="47.67861" lon="7.38002">
        <ele>252.4833984</ele>
        <time>2012-04-01T09:25:56Z</time>
      </trkpt>
      <trkpt lat="47.67858" lon="7.38094">
        <ele>250.560791</ele>
        <time>2012-04-01T09:26:07Z</time>
      </trkpt>
      <trkpt lat="47.67858" lon="7.38103">
        <ele>250.560791</ele>
        <time>2012-04-01T09:26:08Z</time>
      </trkpt>
      <trkpt lat="47.67865" lon="7.38133">
        <ele>250.0802002</ele>
        <time>2012-04-01T09:26:12Z</time>
      </trkpt>
      <trkpt lat="47.67881" lon="7.3818">
        <ele>249.1187744</ele>
        <time>2012-04-01T09:26:20Z</time>
      </trkpt>
      <trkpt lat="47.67898" lon="7.38218">
        <ele>248.1575928</ele>
        <time>2012-04-01T09:26:27Z</time>
      </trkpt>
      <trkpt lat="47.67921" lon="7.3826">
        <ele>247.6767578</ele>
        <time>2012-04-01T09:26:35Z</time>
      </trkpt>
      <trkpt lat="47.67951" lon="7.38311">
        <ele>246.7154541</ele>
        <time>2012-04-01T09:26:45Z</time>
      </trkpt>
      <trkpt lat="47.67973" lon="7.3835">
        <ele>247.6767578</ele>
        <time>2012-04-01T09:26:52Z</time>
      </trkpt>
      <trkpt lat="47.67996" lon="7.38391">
        <ele>247.1960449</ele>
        <time>2012-04-01T09:27:00Z</time>
      </trkpt>
      <trkpt lat="47.68018" lon="7.38429">
        <ele>248.1575928</ele>
        <time>2012-04-01T09:27:07Z</time>
      </trkpt>
      <trkpt lat="47.68044" lon="7.38476">
        <ele>249.1187744</ele>
        <time>2012-04-01T09:27:15Z</time>
      </trkpt>
      <trkpt lat="47.68053" lon="7.38494">
        <ele>249.5994873</ele>
        <time>2012-04-01T09:27:18Z</time>
      </trkpt>
      <trkpt lat="47.68067" lon="7.38517">
        <ele>250.560791</ele>
        <time>2012-04-01T09:27:22Z</time>
      </trkpt>
      <trkpt lat="47.68093" lon="7.38547">
        <ele>250.560791</ele>
        <time>2012-04-01T09:27:28Z</time>
      </trkpt>
      <trkpt lat="47.68122" lon="7.38593">
        <ele>249.5994873</ele>
        <time>2012-04-01T09:27:36Z</time>
      </trkpt>
      <trkpt lat="47.68146" lon="7.38638">
        <ele>248.1575928</ele>
        <time>2012-04-01T09:27:43Z</time>
      </trkpt>
      <trkpt lat="47.68178" lon="7.38691">
        <ele>247.1960449</ele>
        <time>2012-04-01T09:27:52Z</time>
      </trkpt>
      <trkpt lat="47.68201" lon="7.38745">
        <ele>246.7154541</ele>
        <time>2012-04-01T09:28:00Z</time>
      </trkpt>
      <trkpt lat="47.68217" lon="7.38795">
        <ele>246.7154541</ele>
        <time>2012-04-01T09:28:07Z</time>
      </trkpt>
      <trkpt lat="47.68228" lon="7.38831">
        <ele>246.2348633</ele>
        <time>2012-04-01T09:28:12Z</time>
      </trkpt>
      <trkpt lat="47.68244" lon="7.38861">
        <ele>245.2734375</ele>
        <time>2012-04-01T09:28:18Z</time>
      </trkpt>
      <trkpt lat="47.68251" lon="7.38869">
        <ele>248.6381836</ele>
        <time>2012-04-01T09:28:24Z</time>
      </trkpt>
      <trkpt lat="47.68257" lon="7.38865">
        <ele>249.5994873</ele>
        <time>2012-04-01T09:28:27Z</time>
      </trkpt>
      <trkpt lat="47.68261" lon="7.38863">
        <ele>250.0802002</ele>
        <time>2012-04-01T09:28:31Z</time>
      </trkpt>
      <trkpt lat="47.68261" lon="7.38862">
        <ele>252.0028076</ele>
        <time>2012-04-01T09:28:40Z</time>
      </trkpt>
      <trkpt lat="47.68261" lon="7.38862">
        <ele>252.0028076</ele>
        <time>2012-04-01T09:28:43Z</time>
      </trkpt>
      <trkpt lat="47.68261" lon="7.38862">
        <ele>252.0028076</ele>
        <time>2012-04-01T09:28:44Z</time>
      </trkpt>
      <trkpt lat="47.68264" lon="7.38856">
        <ele>252.9639893</ele>
        <time>2012-04-01T09:28:53Z</time>
      </trkpt>
      <trkpt lat="47.68273" lon="7.38845">
        <ele>253.4447021</ele>
        <time>2012-04-01T09:28:58Z</time>
      </trkpt>
      <trkpt lat="47.68292" lon="7.38825">
        <ele>253.925415</ele>
        <time>2012-04-01T09:29:05Z</time>
      </trkpt>
      <trkpt lat="47.68319" lon="7.38798">
        <ele>256.8093262</ele>
        <time>2012-04-01T09:29:14Z</time>
      </trkpt>
      <trkpt lat="47.68339" lon="7.38787">
        <ele>257.770752</ele>
        <time>2012-04-01T09:29:20Z</time>
      </trkpt>
      <trkpt lat="47.68366" lon="7.38788">
        <ele>258.2513428</ele>
        <time>2012-04-01T09:29:27Z</time>
      </trkpt>
      <trkpt lat="47.68389" lon="7.38786">
        <ele>255.8480225</ele>
        <time>2012-04-01T09:29:33Z</time>
      </trkpt>
      <trkpt lat="47.68415" lon="7.3879">
        <ele>257.2900391</ele>
        <time>2012-04-01T09:29:38Z</time>
      </trkpt>
      <trkpt lat="47.68424" lon="7.38792">
        <ele>257.770752</ele>
        <time>2012-04-01T09:29:40Z</time>
      </trkpt>
      <trkpt lat="47.68455" lon="7.38813">
        <ele>253.925415</ele>
        <time>2012-04-01T09:29:47Z</time>
      </trkpt>
      <trkpt lat="47.68463" lon="7.3882">
        <ele>254.4060059</ele>
        <time>2012-04-01T09:29:49Z</time>
      </trkpt>
      <trkpt lat="47.68482" lon="7.38833">
        <ele>255.8480225</ele>
        <time>2012-04-01T09:29:54Z</time>
      </trkpt>
      <trkpt lat="47.68499" lon="7.38849">
        <ele>253.925415</ele>
        <time>2012-04-01T09:29:59Z</time>
      </trkpt>
      <trkpt lat="47.68501" lon="7.38854">
        <ele>253.925415</ele>
        <time>2012-04-01T09:30:00Z</time>
      </trkpt>
      <trkpt lat="47.68513" lon="7.38894">
        <ele>252.9639893</ele>
        <time>2012-04-01T09:30:07Z</time>
      </trkpt>
      <trkpt lat="47.68516" lon="7.38906">
        <ele>252.4833984</ele>
        <time>2012-04-01T09:30:09Z</time>
      </trkpt>
      <trkpt lat="47.68531" lon="7.38954">
        <ele>251.0413818</ele>
        <time>2012-04-01T09:30:17Z</time>
      </trkpt>
      <trkpt lat="47.68535" lon="7.38965">
        <ele>250.560791</ele>
        <time>2012-04-01T09:30:19Z</time>
      </trkpt>
      <trkpt lat="47.68552" lon="7.39012">
        <ele>250.0802002</ele>
        <time>2012-04-01T09:30:27Z</time>
      </trkpt>
      <trkpt lat="47.68571" lon="7.39065">
        <ele>249.5994873</ele>
        <time>2012-04-01T09:30:35Z</time>
      </trkpt>
      <trkpt lat="47.68589" lon="7.39113">
        <ele>249.1187744</ele>
        <time>2012-04-01T09:30:42Z</time>
      </trkpt>
      <trkpt lat="47.68603" lon="7.39147">
        <ele>249.1187744</ele>
        <time>2012-04-01T09:30:47Z</time>
      </trkpt>
      <trkpt lat="47.68627" lon="7.39196">
        <ele>248.6381836</ele>
        <time>2012-04-01T09:30:54Z</time>
      </trkpt>
      <trkpt lat="47.68651" lon="7.39241">
        <ele>246.2348633</ele>
        <time>2012-04-01T09:31:01Z</time>
      </trkpt>
      <trkpt lat="47.68675" lon="7.39283">
        <ele>243.831543</ele>
        <time>2012-04-01T09:31:08Z</time>
      </trkpt>
      <trkpt lat="47.68694" lon="7.39312">
        <ele>242.3896484</ele>
        <time>2012-04-01T09:31:14Z</time>
      </trkpt>
      <trkpt lat="47.68715" lon="7.39337">
        <ele>242.8702393</ele>
        <time>2012-04-01T09:31:21Z</time>
      </trkpt>
      <trkpt lat="47.68723" lon="7.39349">
        <ele>243.831543</ele>
        <time>2012-04-01T09:31:25Z</time>
      </trkpt>
      <trkpt lat="47.68736" lon="7.39368">
        <ele>245.2734375</ele>
        <time>2012-04-01T09:31:31Z</time>
      </trkpt>
      <trkpt lat="47.6875" lon="7.39387">
        <ele>246.2348633</ele>
        <time>2012-04-01T09:31:36Z</time>
      </trkpt>
      <trkpt lat="47.68768" lon="7.39413">
        <ele>244.7928467</ele>
        <time>2012-04-01T09:31:42Z</time>
      </trkpt>
      <trkpt lat="47.68796" lon="7.39449">
        <ele>242.3896484</ele>
        <time>2012-04-01T09:31:50Z</time>
      </trkpt>
      <trkpt lat="47.68818" lon="7.39477">
        <ele>241.9089355</ele>
        <time>2012-04-01T09:31:56Z</time>
      </trkpt>
      <trkpt lat="47.68836" lon="7.39515">
        <ele>242.3896484</ele>
        <time>2012-04-01T09:32:03Z</time>
      </trkpt>
      <trkpt lat="47.68852" lon="7.39559">
        <ele>243.3508301</ele>
        <time>2012-04-01T09:32:10Z</time>
      </trkpt>
      <trkpt lat="47.68859" lon="7.39578">
        <ele>243.3508301</ele>
        <time>2012-04-01T09:32:13Z</time>
      </trkpt>
      <trkpt lat="47.68883" lon="7.39621">
        <ele>244.3122559</ele>
        <time>2012-04-01T09:32:21Z</time>
      </trkpt>
      <trkpt lat="47.6891" lon="7.39668">
        <ele>244.7928467</ele>
        <time>2012-04-01T09:32:30Z</time>
      </trkpt>
      <trkpt lat="47.68936" lon="7.39717">
        <ele>244.7928467</ele>
        <time>2012-04-01T09:32:39Z</time>
      </trkpt>
      <trkpt lat="47.68957" lon="7.39746">
        <ele>245.7541504</ele>
        <time>2012-04-01T09:32:45Z</time>
      </trkpt>
      <trkpt lat="47.68975" lon="7.39769">
        <ele>246.2348633</ele>
        <time>2012-04-01T09:32:50Z</time>
      </trkpt>
      <trkpt lat="47.69004" lon="7.39802">
        <ele>247.6767578</ele>
        <time>2012-04-01T09:32:58Z</time>
      </trkpt>
      <trkpt lat="47.69017" lon="7.39804">
        <ele>248.6381836</ele>
        <time>2012-04-01T09:33:02Z</time>
      </trkpt>
      <trkpt lat="47.6902" lon="7.398">
        <ele>249.1187744</ele>
        <time>2012-04-01T09:33:03Z</time>
      </trkpt>
      <trkpt lat="47.69041" lon="7.39763">
        <ele>249.5994873</ele>
        <time>2012-04-01T09:33:11Z</time>
      </trkpt>
      <trkpt lat="47.69063" lon="7.39728">
        <ele>250.560791</ele>
        <time>2012-04-01T09:33:19Z</time>
      </trkpt>
      <trkpt lat="47.6908" lon="7.39708">
        <ele>251.0413818</ele>
        <time>2012-04-01T09:33:25Z</time>
      </trkpt>
      <trkpt lat="47.69105" lon="7.39695">
        <ele>251.5220947</ele>
        <time>2012-04-01T09:33:32Z</time>
      </trkpt>
      <trkpt lat="47.69136" lon="7.39683">
        <ele>253.4447021</ele>
        <time>2012-04-01T09:33:41Z</time>
      </trkpt>
      <trkpt lat="47.69154" lon="7.39674">
        <ele>254.8865967</ele>
        <time>2012-04-01T09:33:47Z</time>
      </trkpt>
      <trkpt lat="47.69171" lon="7.39668">
        <ele>256.8093262</ele>
        <time>2012-04-01T09:33:52Z</time>
      </trkpt>
      <trkpt lat="47.69186" lon="7.39661">
        <ele>258.7319336</ele>
        <time>2012-04-01T09:33:56Z</time>
      </trkpt>
      <trkpt lat="47.692" lon="7.39654">
        <ele>260.1739502</ele>
        <time>2012-04-01T09:34:00Z</time>
      </trkpt>
      <trkpt lat="47.69219" lon="7.39646">
        <ele>262.0965576</ele>
        <time>2012-04-01T09:34:05Z</time>
      </trkpt>
      <trkpt lat="47.69236" lon="7.3964">
        <ele>263.0578613</ele>
        <time>2012-04-01T09:34:10Z</time>
      </trkpt>
      <trkpt lat="47.69256" lon="7.39631">
        <ele>265.4613037</ele>
        <time>2012-04-01T09:34:17Z</time>
      </trkpt>
      <trkpt lat="47.69277" lon="7.39623">
        <ele>265.4613037</ele>
        <time>2012-04-01T09:34:25Z</time>
      </trkpt>
      <trkpt lat="47.69298" lon="7.39614">
        <ele>264.0192871</ele>
        <time>2012-04-01T09:34:30Z</time>
      </trkpt>
      <trkpt lat="47.69323" lon="7.39602">
        <ele>261.6159668</ele>
        <time>2012-04-01T09:34:34Z</time>
      </trkpt>
      <trkpt lat="47.69365" lon="7.39583">
        <ele>258.2513428</ele>
        <time>2012-04-01T09:34:40Z</time>
      </trkpt>
      <trkpt lat="47.69403" lon="7.39567">
        <ele>255.8480225</ele>
        <time>2012-04-01T09:34:45Z</time>
      </trkpt>
      <trkpt lat="47.69449" lon="7.39546">
        <ele>255.8480225</ele>
        <time>2012-04-01T09:34:52Z</time>
      </trkpt>
      <trkpt lat="47.69483" lon="7.39533">
        <ele>255.8480225</ele>
        <time>2012-04-01T09:34:58Z</time>
      </trkpt>
      <trkpt lat="47.69488" lon="7.39532">
        <ele>255.3673096</ele>
        <time>2012-04-01T09:34:59Z</time>
      </trkpt>
      <trkpt lat="47.69515" lon="7.39522">
        <ele>255.3673096</ele>
        <time>2012-04-01T09:35:05Z</time>
      </trkpt>
      <trkpt lat="47.69524" lon="7.39532">
        <ele>254.8865967</ele>
        <time>2012-04-01T09:35:09Z</time>
      </trkpt>
      <trkpt lat="47.69523" lon="7.39542">
        <ele>254.8865967</ele>
        <time>2012-04-01T09:35:11Z</time>
      </trkpt>
      <trkpt lat="47.69514" lon="7.39584">
        <ele>253.925415</ele>
        <time>2012-04-01T09:35:17Z</time>
      </trkpt>
      <trkpt lat="47.69512" lon="7.39601">
        <ele>253.925415</ele>
        <time>2012-04-01T09:35:19Z</time>
      </trkpt>
      <trkpt lat="47.69515" lon="7.3966">
        <ele>252.9639893</ele>
        <time>2012-04-01T09:35:25Z</time>
      </trkpt>
      <trkpt lat="47.69525" lon="7.39707">
        <ele>251.5220947</ele>
        <time>2012-04-01T09:35:30Z</time>
      </trkpt>
      <trkpt lat="47.69531" lon="7.39725">
        <ele>251.5220947</ele>
        <time>2012-04-01T09:35:32Z</time>
      </trkpt>
      <trkpt lat="47.69537" lon="7.39753">
        <ele>251.5220947</ele>
        <time>2012-04-01T09:35:35Z</time>
      </trkpt>
      <trkpt lat="47.69543" lon="7.39828">
        <ele>252.0028076</ele>
        <time>2012-04-01T09:35:43Z</time>
      </trkpt>
      <trkpt lat="47.69553" lon="7.39914">
        <ele>251.5220947</ele>
        <time>2012-04-01T09:35:53Z</time>
      </trkpt>
      <trkpt lat="47.6956" lon="7.39981">
        <ele>250.0802002</ele>
        <time>2012-04-01T09:36:01Z</time>
      </trkpt>
      <trkpt lat="47.6956" lon="7.39998">
        <ele>249.5994873</ele>
        <time>2012-04-01T09:36:03Z</time>
      </trkpt>
      <trkpt lat="47.69567" lon="7.40071">
        <ele>249.1187744</ele>
        <time>2012-04-01T09:36:12Z</time>
      </trkpt>
      <trkpt lat="47.69572" lon="7.40144">
        <ele>248.1575928</ele>
        <time>2012-04-01T09:36:21Z</time>
      </trkpt>
      <trkpt lat="47.69575" lon="7.4022">
        <ele>246.7154541</ele>
        <time>2012-04-01T09:36:30Z</time>
      </trkpt>
      <trkpt lat="47.69578" lon="7.4028">
        <ele>246.2348633</ele>
        <time>2012-04-01T09:36:37Z</time>
      </trkpt>
      <trkpt lat="47.69579" lon="7.40303">
        <ele>246.2348633</ele>
        <time>2012-04-01T09:36:40Z</time>
      </trkpt>
      <trkpt lat="47.69581" lon="7.40346">
        <ele>246.7154541</ele>
        <time>2012-04-01T09:36:46Z</time>
      </trkpt>
      <trkpt lat="47.69588" lon="7.40367">
        <ele>246.7154541</ele>
        <time>2012-04-01T09:36:50Z</time>
      </trkpt>
      <trkpt lat="47.69592" lon="7.40369">
        <ele>247.6767578</ele>
        <time>2012-04-01T09:36:51Z</time>
      </trkpt>
      <trkpt lat="47.69628" lon="7.40379">
        <ele>248.6381836</ele>
        <time>2012-04-01T09:36:59Z</time>
      </trkpt>
      <trkpt lat="47.69651" lon="7.40385">
        <ele>248.6381836</ele>
        <time>2012-04-01T09:37:04Z</time>
      </trkpt>
      <trkpt lat="47.69664" lon="7.40387">
        <ele>248.6381836</ele>
        <time>2012-04-01T09:37:07Z</time>
      </trkpt>
      <trkpt lat="47.69692" lon="7.4039">
        <ele>249.1187744</ele>
        <time>2012-04-01T09:37:13Z</time>
      </trkpt>
      <trkpt lat="47.69725" lon="7.4039">
        <ele>248.6381836</ele>
        <time>2012-04-01T09:37:20Z</time>
      </trkpt>
      <trkpt lat="47.69763" lon="7.40389">
        <ele>249.1187744</ele>
        <time>2012-04-01T09:37:28Z</time>
      </trkpt>
      <trkpt lat="47.69805" lon="7.40387">
        <ele>250.0802002</ele>
        <time>2012-04-01T09:37:37Z</time>
      </trkpt>
      <trkpt lat="47.69838" lon="7.40386">
        <ele>251.5220947</ele>
        <time>2012-04-01T09:37:45Z</time>
      </trkpt>
      <trkpt lat="47.69842" lon="7.40386">
        <ele>252.0028076</ele>
        <time>2012-04-01T09:37:46Z</time>
      </trkpt>
      <trkpt lat="47.69862" lon="7.40388">
        <ele>252.4833984</ele>
        <time>2012-04-01T09:37:51Z</time>
      </trkpt>
      <trkpt lat="47.69875" lon="7.40395">
        <ele>251.5220947</ele>
        <time>2012-04-01T09:37:54Z</time>
      </trkpt>
      <trkpt lat="47.69894" lon="7.4042">
        <ele>249.1187744</ele>
        <time>2012-04-01T09:37:58Z</time>
      </trkpt>
      <trkpt lat="47.69924" lon="7.40475">
        <ele>245.7541504</ele>
        <time>2012-04-01T09:38:06Z</time>
      </trkpt>
      <trkpt lat="47.69944" lon="7.4051">
        <ele>245.7541504</ele>
        <time>2012-04-01T09:38:12Z</time>
      </trkpt>
      <trkpt lat="47.69954" lon="7.40523">
        <ele>245.7541504</ele>
        <time>2012-04-01T09:38:15Z</time>
      </trkpt>
      <trkpt lat="47.69979" lon="7.40551">
        <ele>246.2348633</ele>
        <time>2012-04-01T09:38:23Z</time>
      </trkpt>
      <trkpt lat="47.70008" lon="7.4057">
        <ele>246.7154541</ele>
        <time>2012-04-01T09:38:30Z</time>
      </trkpt>
      <trkpt lat="47.70028" lon="7.40579">
        <ele>246.7154541</ele>
        <time>2012-04-01T09:38:35Z</time>
      </trkpt>
      <trkpt lat="47.70052" lon="7.40584">
        <ele>246.7154541</ele>
        <time>2012-04-01T09:38:42Z</time>
      </trkpt>
      <trkpt lat="47.70078" lon="7.40583">
        <ele>246.7154541</ele>
        <time>2012-04-01T09:38:48Z</time>
      </trkpt>
      <trkpt lat="47.70105" lon="7.40576">
        <ele>247.1960449</ele>
        <time>2012-04-01T09:38:55Z</time>
      </trkpt>
      <trkpt lat="47.7014" lon="7.40565">
        <ele>247.1960449</ele>
        <time>2012-04-01T09:39:03Z</time>
      </trkpt>
      <trkpt lat="47.70176" lon="7.40558">
        <ele>246.7154541</ele>
        <time>2012-04-01T09:39:10Z</time>
      </trkpt>
      <trkpt lat="47.7022" lon="7.40551">
        <ele>245.2734375</ele>
        <time>2012-04-01T09:39:18Z</time>
      </trkpt>
      <trkpt lat="47.70253" lon="7.40545">
        <ele>244.7928467</ele>
        <time>2012-04-01T09:39:25Z</time>
      </trkpt>
      <trkpt lat="47.70295" lon="7.40543">
        <ele>244.7928467</ele>
        <time>2012-04-01T09:39:34Z</time>
      </trkpt>
      <trkpt lat="47.70333" lon="7.40549">
        <ele>244.7928467</ele>
        <time>2012-04-01T09:39:42Z</time>
      </trkpt>
      <trkpt lat="47.70364" lon="7.40562">
        <ele>244.3122559</ele>
        <time>2012-04-01T09:39:49Z</time>
      </trkpt>
      <trkpt lat="47.70401" lon="7.40582">
        <ele>244.3122559</ele>
        <time>2012-04-01T09:39:57Z</time>
      </trkpt>
      <trkpt lat="47.70422" lon="7.40595">
        <ele>244.3122559</ele>
        <time>2012-04-01T09:40:02Z</time>
      </trkpt>
      <trkpt lat="47.70451" lon="7.40612">
        <ele>244.3122559</ele>
        <time>2012-04-01T09:40:09Z</time>
      </trkpt>
      <trkpt lat="47.70494" lon="7.40638">
        <ele>244.7928467</ele>
        <time>2012-04-01T09:40:19Z</time>
      </trkpt>
      <trkpt lat="47.70532" lon="7.40655">
        <ele>244.7928467</ele>
        <time>2012-04-01T09:40:28Z</time>
      </trkpt>
      <trkpt lat="47.70572" lon="7.40672">
        <ele>244.7928467</ele>
        <time>2012-04-01T09:40:38Z</time>
      </trkpt>
      <trkpt lat="47.70608" lon="7.40684">
        <ele>244.7928467</ele>
        <time>2012-04-01T09:40:46Z</time>
      </trkpt>
      <trkpt lat="47.70642" lon="7.40698">
        <ele>245.2734375</ele>
        <time>2012-04-01T09:40:52Z</time>
      </trkpt>
      <trkpt lat="47.70664" lon="7.40707">
        <ele>245.7541504</ele>
        <time>2012-04-01T09:40:57Z</time>
      </trkpt>
      <trkpt lat="47.7068" lon="7.40714">
        <ele>245.2734375</ele>
        <time>2012-04-01T09:41:01Z</time>
      </trkpt>
      <trkpt lat="47.70709" lon="7.40725">
        <ele>245.7541504</ele>
        <time>2012-04-01T09:41:08Z</time>
      </trkpt>
      <trkpt lat="47.70735" lon="7.40722">
        <ele>246.7154541</ele>
        <time>2012-04-01T09:41:15Z</time>
      </trkpt>
      <trkpt lat="47.70756" lon="7.40709">
        <ele>249.1187744</ele>
        <time>2012-04-01T09:41:21Z</time>
      </trkpt>
      <trkpt lat="47.70763" lon="7.40701">
        <ele>250.560791</ele>
        <time>2012-04-01T09:41:23Z</time>
      </trkpt>
      <trkpt lat="47.70783" lon="7.40693">
        <ele>252.4833984</ele>
        <time>2012-04-01T09:41:28Z</time>
      </trkpt>
      <trkpt lat="47.70798" lon="7.40694">
        <ele>255.3673096</ele>
        <time>2012-04-01T09:41:32Z</time>
      </trkpt>
      <trkpt lat="47.70806" lon="7.40694">
        <ele>254.8865967</ele>
        <time>2012-04-01T09:41:34Z</time>
      </trkpt>
      <trkpt lat="47.70836" lon="7.40697">
        <ele>251.5220947</ele>
        <time>2012-04-01T09:41:41Z</time>
      </trkpt>
      <trkpt lat="47.7084" lon="7.40697">
        <ele>252.0028076</ele>
        <time>2012-04-01T09:41:42Z</time>
      </trkpt>
      <trkpt lat="47.7087" lon="7.40697">
        <ele>251.0413818</ele>
        <time>2012-04-01T09:41:49Z</time>
      </trkpt>
      <trkpt lat="47.70892" lon="7.40694">
        <ele>250.560791</ele>
        <time>2012-04-01T09:41:54Z</time>
      </trkpt>
      <trkpt lat="47.70944" lon="7.40676">
        <ele>250.560791</ele>
        <time>2012-04-01T09:42:05Z</time>
      </trkpt>
      <trkpt lat="47.70991" lon="7.40658">
        <ele>249.1187744</ele>
        <time>2012-04-01T09:42:14Z</time>
      </trkpt>
      <trkpt lat="47.71026" lon="7.40631">
        <ele>247.1960449</ele>
        <time>2012-04-01T09:42:21Z</time>
      </trkpt>
      <trkpt lat="47.71053" lon="7.40608">
        <ele>245.7541504</ele>
        <time>2012-04-01T09:42:26Z</time>
      </trkpt>
      <trkpt lat="47.71095" lon="7.40592">
        <ele>245.2734375</ele>
        <time>2012-04-01T09:42:33Z</time>
      </trkpt>
      <trkpt lat="47.71148" lon="7.40586">
        <ele>244.3122559</ele>
        <time>2012-04-01T09:42:42Z</time>
      </trkpt>
      <trkpt lat="47.71201" lon="7.40579">
        <ele>244.7928467</ele>
        <time>2012-04-01T09:42:51Z</time>
      </trkpt>
      <trkpt lat="47.71242" lon="7.40566">
        <ele>245.2734375</ele>
        <time>2012-04-01T09:42:58Z</time>
      </trkpt>
      <trkpt lat="47.71277" lon="7.40552">
        <ele>245.2734375</ele>
        <time>2012-04-01T09:43:04Z</time>
      </trkpt>
      <trkpt lat="47.71315" lon="7.40539">
        <ele>246.2348633</ele>
        <time>2012-04-01T09:43:11Z</time>
      </trkpt>
      <trkpt lat="47.71329" lon="7.40533">
        <ele>246.7154541</ele>
        <time>2012-04-01T09:43:15Z</time>
      </trkpt>
      <trkpt lat="47.7134" lon="7.40529">
        <ele>246.7154541</ele>
        <time>2012-04-01T09:43:20Z</time>
      </trkpt>
      <trkpt lat="47.71344" lon="7.40535">
        <ele>245.7541504</ele>
        <time>2012-04-01T09:43:23Z</time>
      </trkpt>
      <trkpt lat="47.71342" lon="7.40546">
        <ele>245.2734375</ele>
        <time>2012-04-01T09:43:27Z</time>
      </trkpt>
      <trkpt lat="47.71334" lon="7.4057">
        <ele>244.3122559</ele>
        <time>2012-04-01T09:43:34Z</time>
      </trkpt>
      <trkpt lat="47.71329" lon="7.40604">
        <ele>242.8702393</ele>
        <time>2012-04-01T09:43:41Z</time>
      </trkpt>
      <trkpt lat="47.71328" lon="7.40631">
        <ele>240.9476318</ele>
        <time>2012-04-01T09:43:46Z</time>
      </trkpt>
      <trkpt lat="47.71328" lon="7.40646">
        <ele>240.467041</ele>
        <time>2012-04-01T09:43:49Z</time>
      </trkpt>
      <trkpt lat="47.71326" lon="7.4068">
        <ele>240.467041</ele>
        <time>2012-04-01T09:43:56Z</time>
      </trkpt>
      <trkpt lat="47.71324" lon="7.40728">
        <ele>240.9476318</ele>
        <time>2012-04-01T09:44:05Z</time>
      </trkpt>
      <trkpt lat="47.71324" lon="7.40773">
        <ele>239.5054932</ele>
        <time>2012-04-01T09:44:12Z</time>
      </trkpt>
      <trkpt lat="47.71324" lon="7.40845">
        <ele>239.5054932</ele>
        <time>2012-04-01T09:44:22Z</time>
      </trkpt>
      <trkpt lat="47.71327" lon="7.40909">
        <ele>238.5443115</ele>
        <time>2012-04-01T09:44:30Z</time>
      </trkpt>
      <trkpt lat="47.71329" lon="7.40983">
        <ele>239.5054932</ele>
        <time>2012-04-01T09:44:39Z</time>
      </trkpt>
      <trkpt lat="47.71336" lon="7.41062">
        <ele>239.0249023</ele>
        <time>2012-04-01T09:44:49Z</time>
      </trkpt>
      <trkpt lat="47.71343" lon="7.41139">
        <ele>239.9862061</ele>
        <time>2012-04-01T09:44:59Z</time>
      </trkpt>
      <trkpt lat="47.71348" lon="7.41211">
        <ele>239.5054932</ele>
        <time>2012-04-01T09:45:08Z</time>
      </trkpt>
      <trkpt lat="47.71354" lon="7.41301">
        <ele>238.5443115</ele>
        <time>2012-04-01T09:45:19Z</time>
      </trkpt>
      <trkpt lat="47.71359" lon="7.4136">
        <ele>238.0635986</ele>
        <time>2012-04-01T09:45:26Z</time>
      </trkpt>
      <trkpt lat="47.71363" lon="7.41405">
        <ele>238.5443115</ele>
        <time>2012-04-01T09:45:30Z</time>
      </trkpt>
      <trkpt lat="47.71367" lon="7.41461">
        <ele>238.5443115</ele>
        <time>2012-04-01T09:45:34Z</time>
      </trkpt>
      <trkpt lat="47.71372" lon="7.41503">
        <ele>239.0249023</ele>
        <time>2012-04-01T09:45:37Z</time>
      </trkpt>
      <trkpt lat="47.71382" lon="7.41554">
        <ele>239.0249023</ele>
        <time>2012-04-01T09:45:41Z</time>
      </trkpt>
      <trkpt lat="47.71393" lon="7.41585">
        <ele>239.5054932</ele>
        <time>2012-04-01T09:45:44Z</time>
      </trkpt>
      <trkpt lat="47.714" lon="7.41601">
        <ele>239.5054932</ele>
        <time>2012-04-01T09:45:46Z</time>
      </trkpt>
      <trkpt lat="47.71422" lon="7.41653">
        <ele>239.5054932</ele>
        <time>2012-04-01T09:45:53Z</time>
      </trkpt>
      <trkpt lat="47.71448" lon="7.41719">
        <ele>239.5054932</ele>
        <time>2012-04-01T09:46:02Z</time>
      </trkpt>
      <trkpt lat="47.71465" lon="7.41775">
        <ele>238.5443115</ele>
        <time>2012-04-01T09:46:09Z</time>
      </trkpt>
      <trkpt lat="47.71478" lon="7.41854">
        <ele>239.5054932</ele>
        <time>2012-04-01T09:46:18Z</time>
      </trkpt>
      <trkpt lat="47.7149" lon="7.41928">
        <ele>239.5054932</ele>
        <time>2012-04-01T09:46:27Z</time>
      </trkpt>
      <trkpt lat="47.71491" lon="7.41936">
        <ele>239.5054932</ele>
        <time>2012-04-01T09:46:28Z</time>
      </trkpt>
      <trkpt lat="47.71489" lon="7.41957">
        <ele>239.5054932</ele>
        <time>2012-04-01T09:46:31Z</time>
      </trkpt>
      <trkpt lat="47.71493" lon="7.41981">
        <ele>239.5054932</ele>
        <time>2012-04-01T09:46:35Z</time>
      </trkpt>
      <trkpt lat="47.71498" lon="7.42001">
        <ele>239.5054932</ele>
        <time>2012-04-01T09:46:38Z</time>
      </trkpt>
      <trkpt lat="47.71504" lon="7.42061">
        <ele>241.4282227</ele>
        <time>2012-04-01T09:46:46Z</time>
      </trkpt>
      <trkpt lat="47.71508" lon="7.42097">
        <ele>242.3896484</ele>
        <time>2012-04-01T09:46:51Z</time>
      </trkpt>
      <trkpt lat="47.71514" lon="7.4213">
        <ele>241.4282227</ele>
        <time>2012-04-01T09:46:56Z</time>
      </trkpt>
      <trkpt lat="47.71522" lon="7.42157">
        <ele>240.467041</ele>
        <time>2012-04-01T09:47:00Z</time>
      </trkpt>
      <trkpt lat="47.71536" lon="7.42179">
        <ele>241.9089355</ele>
        <time>2012-04-01T09:47:04Z</time>
      </trkpt>
      <trkpt lat="47.7158" lon="7.42172">
        <ele>242.8702393</ele>
        <time>2012-04-01T09:47:11Z</time>
      </trkpt>
      <trkpt lat="47.71624" lon="7.42162">
        <ele>242.3896484</ele>
        <time>2012-04-01T09:47:19Z</time>
      </trkpt>
      <trkpt lat="47.71673" lon="7.42152">
        <ele>241.9089355</ele>
        <time>2012-04-01T09:47:28Z</time>
      </trkpt>
      <trkpt lat="47.71734" lon="7.42141">
        <ele>240.9476318</ele>
        <time>2012-04-01T09:47:38Z</time>
      </trkpt>
      <trkpt lat="47.718" lon="7.42128">
        <ele>240.467041</ele>
        <time>2012-04-01T09:47:49Z</time>
      </trkpt>
      <trkpt lat="47.71847" lon="7.42119">
        <ele>240.467041</ele>
        <time>2012-04-01T09:47:57Z</time>
      </trkpt>
      <trkpt lat="47.71905" lon="7.42108">
        <ele>239.5054932</ele>
        <time>2012-04-01T09:48:07Z</time>
      </trkpt>
      <trkpt lat="47.71957" lon="7.42097">
        <ele>239.9862061</ele>
        <time>2012-04-01T09:48:16Z</time>
      </trkpt>
      <trkpt lat="47.71988" lon="7.4209">
        <ele>240.467041</ele>
        <time>2012-04-01T09:48:22Z</time>
      </trkpt>
      <trkpt lat="47.72042" lon="7.42079">
        <ele>240.467041</ele>
        <time>2012-04-01T09:48:33Z</time>
      </trkpt>
      <trkpt lat="47.7208" lon="7.42074">
        <ele>240.467041</ele>
        <time>2012-04-01T09:48:40Z</time>
      </trkpt>
      <trkpt lat="47.72133" lon="7.42061">
        <ele>239.9862061</ele>
        <time>2012-04-01T09:48:50Z</time>
      </trkpt>
      <trkpt lat="47.72176" lon="7.42056">
        <ele>242.8702393</ele>
        <time>2012-04-01T09:48:58Z</time>
      </trkpt>
      <trkpt lat="47.72201" lon="7.42049">
        <ele>243.3508301</ele>
        <time>2012-04-01T09:49:03Z</time>
      </trkpt>
      <trkpt lat="47.72235" lon="7.4204">
        <ele>243.3508301</ele>
        <time>2012-04-01T09:49:10Z</time>
      </trkpt>
      <trkpt lat="47.72269" lon="7.42035">
        <ele>242.8702393</ele>
        <time>2012-04-01T09:49:17Z</time>
      </trkpt>
      <trkpt lat="47.72309" lon="7.42027">
        <ele>243.831543</ele>
        <time>2012-04-01T09:49:24Z</time>
      </trkpt>
      <trkpt lat="47.72339" lon="7.42023">
        <ele>245.2734375</ele>
        <time>2012-04-01T09:49:30Z</time>
      </trkpt>
      <trkpt lat="47.72353" lon="7.4202">
        <ele>244.7928467</ele>
        <time>2012-04-01T09:49:33Z</time>
      </trkpt>
      <trkpt lat="47.72361" lon="7.42026">
        <ele>244.7928467</ele>
        <time>2012-04-01T09:49:36Z</time>
      </trkpt>
      <trkpt lat="47.72362" lon="7.42035">
        <ele>243.831543</ele>
        <time>2012-04-01T09:49:39Z</time>
      </trkpt>
      <trkpt lat="47.72364" lon="7.42041">
        <ele>243.3508301</ele>
        <time>2012-04-01T09:49:41Z</time>
      </trkpt>
      <trkpt lat="47.72377" lon="7.42048">
        <ele>245.2734375</ele>
        <time>2012-04-01T09:49:45Z</time>
      </trkpt>
      <trkpt lat="47.72416" lon="7.42051">
        <ele>246.2348633</ele>
        <time>2012-04-01T09:49:52Z</time>
      </trkpt>
      <trkpt lat="47.72421" lon="7.42052">
        <ele>245.7541504</ele>
        <time>2012-04-01T09:49:53Z</time>
      </trkpt>
      <trkpt lat="47.72431" lon="7.42054">
        <ele>245.7541504</ele>
        <time>2012-04-01T09:49:55Z</time>
      </trkpt>
      <trkpt lat="47.72479" lon="7.42061">
        <ele>244.3122559</ele>
        <time>2012-04-01T09:50:04Z</time>
      </trkpt>
      <trkpt lat="47.72517" lon="7.42065">
        <ele>242.8702393</ele>
        <time>2012-04-01T09:50:11Z</time>
      </trkpt>
      <trkpt lat="47.72538" lon="7.42067">
        <ele>242.3896484</ele>
        <time>2012-04-01T09:50:16Z</time>
      </trkpt>
      <trkpt lat="47.72575" lon="7.42071">
        <ele>241.9089355</ele>
        <time>2012-04-01T09:50:23Z</time>
      </trkpt>
      <trkpt lat="47.72608" lon="7.42074">
        <ele>240.9476318</ele>
        <time>2012-04-01T09:50:29Z</time>
      </trkpt>
      <trkpt lat="47.7264" lon="7.42075">
        <ele>239.9862061</ele>
        <time>2012-04-01T09:50:35Z</time>
      </trkpt>
      <trkpt lat="47.72672" lon="7.42079">
        <ele>239.5054932</ele>
        <time>2012-04-01T09:50:41Z</time>
      </trkpt>
      <trkpt lat="47.7271" lon="7.42082">
        <ele>241.4282227</ele>
        <time>2012-04-01T09:50:48Z</time>
      </trkpt>
      <trkpt lat="47.72714" lon="7.42082">
        <ele>240.9476318</ele>
        <time>2012-04-01T09:50:49Z</time>
      </trkpt>
      <trkpt lat="47.72729" lon="7.42097">
        <ele>239.9862061</ele>
        <time>2012-04-01T09:50:53Z</time>
      </trkpt>
      <trkpt lat="47.72728" lon="7.42103">
        <ele>239.9862061</ele>
        <time>2012-04-01T09:50:54Z</time>
      </trkpt>
      <trkpt lat="47.72725" lon="7.42129">
        <ele>239.0249023</ele>
        <time>2012-04-01T09:50:58Z</time>
      </trkpt>
      <trkpt lat="47.72721" lon="7.42179">
        <ele>239.5054932</ele>
        <time>2012-04-01T09:51:05Z</time>
      </trkpt>
      <trkpt lat="47.72721" lon="7.42185">
        <ele>239.9862061</ele>
        <time>2012-04-01T09:51:06Z</time>
      </trkpt>
      <trkpt lat="47.72722" lon="7.42206">
        <ele>239.5054932</ele>
        <time>2012-04-01T09:51:11Z</time>
      </trkpt>
      <trkpt lat="47.7273" lon="7.42215">
        <ele>238.5443115</ele>
        <time>2012-04-01T09:51:15Z</time>
      </trkpt>
      <trkpt lat="47.72745" lon="7.42222">
        <ele>239.0249023</ele>
        <time>2012-04-01T09:51:19Z</time>
      </trkpt>
      <trkpt lat="47.72766" lon="7.4223">
        <ele>240.467041</ele>
        <time>2012-04-01T09:51:24Z</time>
      </trkpt>
      <trkpt lat="47.7278" lon="7.42236">
        <ele>239.9862061</ele>
        <time>2012-04-01T09:51:27Z</time>
      </trkpt>
      <trkpt lat="47.72811" lon="7.42246">
        <ele>240.467041</ele>
        <time>2012-04-01T09:51:34Z</time>
      </trkpt>
      <trkpt lat="47.72817" lon="7.42246">
        <ele>239.9862061</ele>
        <time>2012-04-01T09:51:36Z</time>
      </trkpt>
      <trkpt lat="47.72826" lon="7.42254">
        <ele>238.5443115</ele>
        <time>2012-04-01T09:51:40Z</time>
      </trkpt>
      <trkpt lat="47.72826" lon="7.42258">
        <ele>238.5443115</ele>
        <time>2012-04-01T09:51:41Z</time>
      </trkpt>
      <trkpt lat="47.72825" lon="7.42295">
        <ele>239.5054932</ele>
        <time>2012-04-01T09:51:49Z</time>
      </trkpt>
      <trkpt lat="47.72823" lon="7.4234">
        <ele>239.5054932</ele>
        <time>2012-04-01T09:51:57Z</time>
      </trkpt>
      <trkpt lat="47.72822" lon="7.42361">
        <ele>239.0249023</ele>
        <time>2012-04-01T09:52:03Z</time>
      </trkpt>
      <trkpt lat="47.72821" lon="7.42363">
        <ele>238.5443115</ele>
        <time>2012-04-01T09:52:04Z</time>
      </trkpt>
      <trkpt lat="47.72814" lon="7.42363">
        <ele>237.5828857</ele>
        <time>2012-04-01T09:52:08Z</time>
      </trkpt>
      <trkpt lat="47.72787" lon="7.42356">
        <ele>235.6602783</ele>
        <time>2012-04-01T09:52:17Z</time>
      </trkpt>
      <trkpt lat="47.7278" lon="7.4235">
        <ele>236.6217041</ele>
        <time>2012-04-01T09:52:21Z</time>
      </trkpt>
      <trkpt lat="47.72778" lon="7.42351">
        <ele>238.5443115</ele>
        <time>2012-04-01T09:52:24Z</time>
      </trkpt>
      <trkpt lat="47.72775" lon="7.42349">
        <ele>240.467041</ele>
        <time>2012-04-01T09:52:31Z</time>
      </trkpt>
      <trkpt lat="47.72776" lon="7.4235">
        <ele>242.8702393</ele>
        <time>2012-04-01T09:52:40Z</time>
      </trkpt>
      <trkpt lat="47.72776" lon="7.42352">
        <ele>243.3508301</ele>
        <time>2012-04-01T09:52:51Z</time>
      </trkpt>
      <trkpt lat="47.72773" lon="7.42353">
        <ele>245.7541504</ele>
        <time>2012-04-01T09:52:57Z</time>
      </trkpt>
      <trkpt lat="47.72771" lon="7.4235">
        <ele>243.3508301</ele>
        <time>2012-04-01T09:53:02Z</time>
      </trkpt>
      <trkpt lat="47.72771" lon="7.42353">
        <ele>243.3508301</ele>
        <time>2012-04-01T09:53:10Z</time>
      </trkpt>
      <trkpt lat="47.72776" lon="7.42354">
        <ele>243.831543</ele>
        <time>2012-04-01T09:53:23Z</time>
      </trkpt>
      <trkpt lat="47.72786" lon="7.4236">
        <ele>251.5220947</ele>
        <time>2012-04-01T09:54:38Z</time>
      </trkpt>
      <trkpt lat="47.72786" lon="7.4236">
        <ele>251.5220947</ele>
        <time>2012-04-01T09:54:39Z</time>
      </trkpt>
      <trkpt lat="47.72788" lon="7.42363">
        <ele>254.8865967</ele>
        <time>2012-04-01T09:55:44Z</time>
      </trkpt>
      <trkpt lat="47.72793" lon="7.4236">
        <ele>245.7541504</ele>
        <time>2012-04-01T09:56:24Z</time>
      </trkpt>
      <trkpt lat="47.7279" lon="7.42359">
        <ele>245.2734375</ele>
        <time>2012-04-01T09:57:14Z</time>
      </trkpt>
      <trkpt lat="47.7279" lon="7.42359">
        <ele>245.2734375</ele>
        <time>2012-04-01T09:57:15Z</time>
      </trkpt>
      <trkpt lat="47.72789" lon="7.42358">
        <ele>245.2734375</ele>
        <time>2012-04-01T09:57:37Z</time>
      </trkpt>
      <trkpt lat="47.72788" lon="7.42358">
        <ele>245.7541504</ele>
        <time>2012-04-01T09:58:06Z</time>
      </trkpt>
      <trkpt lat="47.7279" lon="7.42359">
        <ele>245.7541504</ele>
        <time>2012-04-01T09:58:21Z</time>
      </trkpt>
      <trkpt lat="47.7279" lon="7.42359">
        <ele>246.2348633</ele>
        <time>2012-04-01T09:58:50Z</time>
      </trkpt>
      <trkpt lat="47.72791" lon="7.42359">
        <ele>246.2348633</ele>
        <time>2012-04-01T09:59:04Z</time>
      </trkpt>
      <trkpt lat="47.7279" lon="7.42358">
        <ele>247.1960449</ele>
        <time>2012-04-01T09:59:14Z</time>
      </trkpt>
      <trkpt lat="47.7279" lon="7.42359">
        <ele>248.1575928</ele>
        <time>2012-04-01T09:59:27Z</time>
      </trkpt>
      <trkpt lat="47.72788" lon="7.42357">
        <ele>248.6381836</ele>
        <time>2012-04-01T09:59:54Z</time>
      </trkpt>
      <trkpt lat="47.72788" lon="7.42357">
        <ele>249.1187744</ele>
        <time>2012-04-01T10:00:06Z</time>
      </trkpt>
      <trkpt lat="47.72786" lon="7.42356">
        <ele>249.1187744</ele>
        <time>2012-04-01T10:00:21Z</time>
      </trkpt>
      <trkpt lat="47.72786" lon="7.42358">
        <ele>249.5994873</ele>
        <time>2012-04-01T10:00:59Z</time>
      </trkpt>
      <trkpt lat="47.72791" lon="7.42366">
        <ele>252.0028076</ele>
        <time>2012-04-01T10:01:43Z</time>
      </trkpt>
      <trkpt lat="47.72794" lon="7.42364">
        <ele>247.6767578</ele>
        <time>2012-04-01T10:02:21Z</time>
      </trkpt>
      <trkpt lat="47.72794" lon="7.42365">
        <ele>248.6381836</ele>
        <time>2012-04-01T10:02:29Z</time>
      </trkpt>
      <trkpt lat="47.72793" lon="7.42365">
        <ele>249.5994873</ele>
        <time>2012-04-01T10:02:31Z</time>
      </trkpt>
      <trkpt lat="47.72792" lon="7.42362">
        <ele>252.0028076</ele>
        <time>2012-04-01T10:02:36Z</time>
      </trkpt>
      <trkpt lat="47.72783" lon="7.42361">
        <ele>256.3287354</ele>
        <time>2012-04-01T10:02:52Z</time>
      </trkpt>
      <trkpt lat="47.72778" lon="7.42366">
        <ele>257.770752</ele>
        <time>2012-04-01T10:03:11Z</time>
      </trkpt>
      <trkpt lat="47.72775" lon="7.42365">
        <ele>256.3287354</ele>
        <time>2012-04-01T10:03:17Z</time>
      </trkpt>
      <trkpt lat="47.72778" lon="7.42367">
        <ele>260.654541</ele>
        <time>2012-04-01T10:03:28Z</time>
      </trkpt>
      <trkpt lat="47.72782" lon="7.4237">
        <ele>265.9418945</ele>
        <time>2012-04-01T10:03:39Z</time>
      </trkpt>
      <trkpt lat="47.7278" lon="7.42369">
        <ele>266.4224854</ele>
        <time>2012-04-01T10:03:48Z</time>
      </trkpt>
      <trkpt lat="47.72779" lon="7.42369">
        <ele>267.3839111</ele>
        <time>2012-04-01T10:04:01Z</time>
      </trkpt>
      <trkpt lat="47.72778" lon="7.42366">
        <ele>261.6159668</ele>
        <time>2012-04-01T10:04:18Z</time>
      </trkpt>
      <trkpt lat="47.72781" lon="7.42365">
        <ele>261.1352539</ele>
        <time>2012-04-01T10:04:46Z</time>
      </trkpt>
      <trkpt lat="47.72782" lon="7.42368">
        <ele>261.6159668</ele>
        <time>2012-04-01T10:05:32Z</time>
      </trkpt>
      <trkpt lat="47.72779" lon="7.42366">
        <ele>259.6933594</ele>
        <time>2012-04-01T10:05:40Z</time>
      </trkpt>
      <trkpt lat="47.72779" lon="7.42357">
        <ele>248.1575928</ele>
        <time>2012-04-01T10:06:04Z</time>
      </trkpt>
      <trkpt lat="47.72783" lon="7.42352">
        <ele>235.1796875</ele>
        <time>2012-04-01T10:06:39Z</time>
      </trkpt>
      <trkpt lat="47.72792" lon="7.42355">
        <ele>236.6217041</ele>
        <time>2012-04-01T10:07:42Z</time>
      </trkpt>
      <trkpt lat="47.72791" lon="7.42355">
        <ele>238.0635986</ele>
        <time>2012-04-01T10:08:15Z</time>
      </trkpt>
      <trkpt lat="47.72789" lon="7.42352">
        <ele>233.7376709</ele>
        <time>2012-04-01T10:08:27Z</time>
      </trkpt>
      <trkpt lat="47.72786" lon="7.42351">
        <ele>233.7376709</ele>
        <time>2012-04-01T10:08:43Z</time>
      </trkpt>
      <trkpt lat="47.72786" lon="7.4235">
        <ele>230.3730469</ele>
        <time>2012-04-01T10:09:03Z</time>
      </trkpt>
      <trkpt lat="47.72782" lon="7.42356">
        <ele>240.9476318</ele>
        <time>2012-04-01T10:09:32Z</time>
      </trkpt>
      <trkpt lat="47.72782" lon="7.42356">
        <ele>241.4282227</ele>
        <time>2012-04-01T10:09:33Z</time>
      </trkpt>
      <trkpt lat="47.72784" lon="7.42363">
        <ele>253.925415</ele>
        <time>2012-04-01T10:09:49Z</time>
      </trkpt>
      <trkpt lat="47.72783" lon="7.42362">
        <ele>258.2513428</ele>
        <time>2012-04-01T10:09:54Z</time>
      </trkpt>
      <trkpt lat="47.72782" lon="7.4235">
        <ele>240.467041</ele>
        <time>2012-04-01T10:10:31Z</time>
      </trkpt>
      <trkpt lat="47.72782" lon="7.42349">
        <ele>238.0635986</ele>
        <time>2012-04-01T10:11:04Z</time>
      </trkpt>
      <trkpt lat="47.72782" lon="7.42348">
        <ele>238.5443115</ele>
        <time>2012-04-01T10:11:20Z</time>
      </trkpt>
      <trkpt lat="47.72779" lon="7.42347">
        <ele>239.9862061</ele>
        <time>2012-04-01T10:11:33Z</time>
      </trkpt>
      <trkpt lat="47.72778" lon="7.42347">
        <ele>241.4282227</ele>
        <time>2012-04-01T10:11:45Z</time>
      </trkpt>
      <trkpt lat="47.72788" lon="7.42352">
        <ele>236.1409912</ele>
        <time>2012-04-01T10:27:30Z</time>
      </trkpt>
      <trkpt lat="47.72787" lon="7.4235">
        <ele>238.5443115</ele>
        <time>2012-04-01T10:27:42Z</time>
      </trkpt>
      <trkpt lat="47.7278" lon="7.42346">
        <ele>235.1796875</ele>
        <time>2012-04-01T10:28:52Z</time>
      </trkpt>
      <trkpt lat="47.7278" lon="7.42346">
        <ele>235.6602783</ele>
        <time>2012-04-01T10:28:53Z</time>
      </trkpt>
      <trkpt lat="47.72781" lon="7.42351">
        <ele>247.1960449</ele>
        <time>2012-04-01T10:30:08Z</time>
      </trkpt>
      <trkpt lat="47.72779" lon="7.42347">
        <ele>242.8702393</ele>
        <time>2012-04-01T10:30:28Z</time>
      </trkpt>
      <trkpt lat="47.7278" lon="7.42339">
        <ele>232.2957764</ele>
        <time>2012-04-01T10:31:20Z</time>
      </trkpt>
      <trkpt lat="47.7278" lon="7.42339">
        <ele>231.8149414</ele>
        <time>2012-04-01T10:31:21Z</time>
      </trkpt>
      <trkpt lat="47.7278" lon="7.42339">
        <ele>230.8537598</ele>
        <time>2012-04-01T10:31:34Z</time>
      </trkpt>
      <trkpt lat="47.72779" lon="7.42341">
        <ele>232.7764893</ele>
        <time>2012-04-01T10:31:36Z</time>
      </trkpt>
      <trkpt lat="47.72785" lon="7.42353">
        <ele>239.5054932</ele>
        <time>2012-04-01T10:31:42Z</time>
      </trkpt>
      <trkpt lat="47.72792" lon="7.42354">
        <ele>240.467041</ele>
        <time>2012-04-01T10:31:45Z</time>
      </trkpt>
      <trkpt lat="47.72809" lon="7.42362">
        <ele>244.7928467</ele>
        <time>2012-04-01T10:31:51Z</time>
      </trkpt>
      <trkpt lat="47.72823" lon="7.42365">
        <ele>246.7154541</ele>
        <time>2012-04-01T10:31:55Z</time>
      </trkpt>
      <trkpt lat="47.72832" lon="7.4235">
        <ele>249.5994873</ele>
        <time>2012-04-01T10:32:00Z</time>
      </trkpt>
      <trkpt lat="47.72833" lon="7.42334">
        <ele>250.0802002</ele>
        <time>2012-04-01T10:32:03Z</time>
      </trkpt>
      <trkpt lat="47.72833" lon="7.42328">
        <ele>250.0802002</ele>
        <time>2012-04-01T10:32:04Z</time>
      </trkpt>
      <trkpt lat="47.72833" lon="7.42272">
        <ele>244.3122559</ele>
        <time>2012-04-01T10:32:12Z</time>
      </trkpt>
      <trkpt lat="47.72834" lon="7.42217">
        <ele>237.5828857</ele>
        <time>2012-04-01T10:32:19Z</time>
      </trkpt>
      <trkpt lat="47.72836" lon="7.42155">
        <ele>237.5828857</ele>
        <time>2012-04-01T10:32:26Z</time>
      </trkpt>
      <trkpt lat="47.72844" lon="7.4208">
        <ele>233.7376709</ele>
        <time>2012-04-01T10:32:34Z</time>
      </trkpt>
      <trkpt lat="47.72856" lon="7.42013">
        <ele>233.7376709</ele>
        <time>2012-04-01T10:32:42Z</time>
      </trkpt>
      <trkpt lat="47.72864" lon="7.41947">
        <ele>231.8149414</ele>
        <time>2012-04-01T10:32:50Z</time>
      </trkpt>
      <trkpt lat="47.72866" lon="7.41897">
        <ele>230.3730469</ele>
        <time>2012-04-01T10:32:56Z</time>
      </trkpt>
      <trkpt lat="47.72874" lon="7.4184">
        <ele>231.8149414</ele>
        <time>2012-04-01T10:33:03Z</time>
      </trkpt>
      <trkpt lat="47.72881" lon="7.4176">
        <ele>234.2183838</ele>
        <time>2012-04-01T10:33:13Z</time>
      </trkpt>
      <trkpt lat="47.72882" lon="7.41718">
        <ele>234.2183838</ele>
        <time>2012-04-01T10:33:19Z</time>
      </trkpt>
      <trkpt lat="47.72881" lon="7.41699">
        <ele>237.5828857</ele>
        <time>2012-04-01T10:33:22Z</time>
      </trkpt>
      <trkpt lat="47.72883" lon="7.41676">
        <ele>232.2957764</ele>
        <time>2012-04-01T10:33:28Z</time>
      </trkpt>
      <trkpt lat="47.72883" lon="7.41673">
        <ele>231.8149414</ele>
        <time>2012-04-01T10:33:29Z</time>
      </trkpt>
      <trkpt lat="47.72879" lon="7.41667">
        <ele>234.2183838</ele>
        <time>2012-04-01T10:33:31Z</time>
      </trkpt>
      <trkpt lat="47.72857" lon="7.41661">
        <ele>238.0635986</ele>
        <time>2012-04-01T10:33:35Z</time>
      </trkpt>
      <trkpt lat="47.72829" lon="7.41669">
        <ele>242.3896484</ele>
        <time>2012-04-01T10:33:40Z</time>
      </trkpt>
      <trkpt lat="47.72783" lon="7.41689">
        <ele>241.9089355</ele>
        <time>2012-04-01T10:33:48Z</time>
      </trkpt>
      <trkpt lat="47.72721" lon="7.41713">
        <ele>245.2734375</ele>
        <time>2012-04-01T10:33:58Z</time>
      </trkpt>
      <trkpt lat="47.72684" lon="7.41729">
        <ele>245.7541504</ele>
        <time>2012-04-01T10:34:04Z</time>
      </trkpt>
      <trkpt lat="47.72648" lon="7.41736">
        <ele>244.7928467</ele>
        <time>2012-04-01T10:34:10Z</time>
      </trkpt>
      <trkpt lat="47.72593" lon="7.41738">
        <ele>244.7928467</ele>
        <time>2012-04-01T10:34:19Z</time>
      </trkpt>
      <trkpt lat="47.72544" lon="7.41748">
        <ele>243.831543</ele>
        <time>2012-04-01T10:34:27Z</time>
      </trkpt>
      <trkpt lat="47.72483" lon="7.41763">
        <ele>245.2734375</ele>
        <time>2012-04-01T10:34:36Z</time>
      </trkpt>
      <trkpt lat="47.72423" lon="7.41774">
        <ele>245.2734375</ele>
        <time>2012-04-01T10:34:45Z</time>
      </trkpt>
      <trkpt lat="47.72378" lon="7.41784">
        <ele>245.7541504</ele>
        <time>2012-04-01T10:34:52Z</time>
      </trkpt>
      <trkpt lat="47.72334" lon="7.41789">
        <ele>245.2734375</ele>
        <time>2012-04-01T10:34:59Z</time>
      </trkpt>
      <trkpt lat="47.72308" lon="7.41792">
        <ele>245.7541504</ele>
        <time>2012-04-01T10:35:03Z</time>
      </trkpt>
      <trkpt lat="47.72286" lon="7.41795">
        <ele>244.3122559</ele>
        <time>2012-04-01T10:35:07Z</time>
      </trkpt>
      <trkpt lat="47.72276" lon="7.41776">
        <ele>243.831543</ele>
        <time>2012-04-01T10:35:10Z</time>
      </trkpt>
      <trkpt lat="47.72276" lon="7.41766">
        <ele>244.3122559</ele>
        <time>2012-04-01T10:35:11Z</time>
      </trkpt>
      <trkpt lat="47.72273" lon="7.41689">
        <ele>246.7154541</ele>
        <time>2012-04-01T10:35:18Z</time>
      </trkpt>
      <trkpt lat="47.72267" lon="7.41642">
        <ele>247.6767578</ele>
        <time>2012-04-01T10:35:22Z</time>
      </trkpt>
      <trkpt lat="47.7226" lon="7.41595">
        <ele>248.6381836</ele>
        <time>2012-04-01T10:35:26Z</time>
      </trkpt>
      <trkpt lat="47.72236" lon="7.41529">
        <ele>250.0802002</ele>
        <time>2012-04-01T10:35:32Z</time>
      </trkpt>
      <trkpt lat="47.7223" lon="7.41519">
        <ele>250.0802002</ele>
        <time>2012-04-01T10:35:33Z</time>
      </trkpt>
      <trkpt lat="47.72194" lon="7.41481">
        <ele>250.0802002</ele>
        <time>2012-04-01T10:35:38Z</time>
      </trkpt>
      <trkpt lat="47.72146" lon="7.41448">
        <ele>249.5994873</ele>
        <time>2012-04-01T10:35:44Z</time>
      </trkpt>
      <trkpt lat="47.72138" lon="7.41441">
        <ele>250.0802002</ele>
        <time>2012-04-01T10:35:45Z</time>
      </trkpt>
      <trkpt lat="47.72101" lon="7.41385">
        <ele>249.5994873</ele>
        <time>2012-04-01T10:35:51Z</time>
      </trkpt>
      <trkpt lat="47.72051" lon="7.41303">
        <ele>248.1575928</ele>
        <time>2012-04-01T10:36:00Z</time>
      </trkpt>
      <trkpt lat="47.72006" lon="7.41232">
        <ele>248.1575928</ele>
        <time>2012-04-01T10:36:08Z</time>
      </trkpt>
      <trkpt lat="47.71961" lon="7.41166">
        <ele>250.560791</ele>
        <time>2012-04-01T10:36:16Z</time>
      </trkpt>
      <trkpt lat="47.71917" lon="7.41121">
        <ele>251.0413818</ele>
        <time>2012-04-01T10:36:23Z</time>
      </trkpt>
      <trkpt lat="47.71857" lon="7.41083">
        <ele>250.0802002</ele>
        <time>2012-04-01T10:36:31Z</time>
      </trkpt>
      <trkpt lat="47.71795" lon="7.41047">
        <ele>250.0802002</ele>
        <time>2012-04-01T10:36:39Z</time>
      </trkpt>
      <trkpt lat="47.71788" lon="7.41041">
        <ele>250.0802002</ele>
        <time>2012-04-01T10:36:40Z</time>
      </trkpt>
      <trkpt lat="47.71741" lon="7.40992">
        <ele>249.5994873</ele>
        <time>2012-04-01T10:36:47Z</time>
      </trkpt>
      <trkpt lat="47.71683" lon="7.40904">
        <ele>249.5994873</ele>
        <time>2012-04-01T10:36:57Z</time>
      </trkpt>
      <trkpt lat="47.71643" lon="7.40828">
        <ele>249.1187744</ele>
        <time>2012-04-01T10:37:05Z</time>
      </trkpt>
      <trkpt lat="47.71616" lon="7.40756">
        <ele>248.1575928</ele>
        <time>2012-04-01T10:37:12Z</time>
      </trkpt>
      <trkpt lat="47.71592" lon="7.40691">
        <ele>247.6767578</ele>
        <time>2012-04-01T10:37:19Z</time>
      </trkpt>
      <trkpt lat="47.7155" lon="7.40636">
        <ele>248.6381836</ele>
        <time>2012-04-01T10:37:27Z</time>
      </trkpt>
      <trkpt lat="47.71506" lon="7.40587">
        <ele>248.6381836</ele>
        <time>2012-04-01T10:37:35Z</time>
      </trkpt>
      <trkpt lat="47.71464" lon="7.40538">
        <ele>251.0413818</ele>
        <time>2012-04-01T10:37:43Z</time>
      </trkpt>
      <trkpt lat="47.71459" lon="7.40532">
        <ele>251.0413818</ele>
        <time>2012-04-01T10:37:44Z</time>
      </trkpt>
      <trkpt lat="47.71441" lon="7.40495">
        <ele>250.0802002</ele>
        <time>2012-04-01T10:37:49Z</time>
      </trkpt>
      <trkpt lat="47.71441" lon="7.4047">
        <ele>251.0413818</ele>
        <time>2012-04-01T10:37:52Z</time>
      </trkpt>
      <trkpt lat="47.71455" lon="7.40434">
        <ele>248.6381836</ele>
        <time>2012-04-01T10:37:57Z</time>
      </trkpt>
      <trkpt lat="47.71494" lon="7.40396">
        <ele>247.1960449</ele>
        <time>2012-04-01T10:38:05Z</time>
      </trkpt>
      <trkpt lat="47.71528" lon="7.40358">
        <ele>247.1960449</ele>
        <time>2012-04-01T10:38:12Z</time>
      </trkpt>
      <trkpt lat="47.71559" lon="7.40302">
        <ele>245.7541504</ele>
        <time>2012-04-01T10:38:20Z</time>
      </trkpt>
      <trkpt lat="47.71579" lon="7.40247">
        <ele>246.7154541</ele>
        <time>2012-04-01T10:38:27Z</time>
      </trkpt>
      <trkpt lat="47.71588" lon="7.40185">
        <ele>247.6767578</ele>
        <time>2012-04-01T10:38:34Z</time>
      </trkpt>
      <trkpt lat="47.71594" lon="7.40112">
        <ele>249.1187744</ele>
        <time>2012-04-01T10:38:42Z</time>
      </trkpt>
      <trkpt lat="47.71601" lon="7.40021">
        <ele>251.0413818</ele>
        <time>2012-04-01T10:38:52Z</time>
      </trkpt>
      <trkpt lat="47.71603" lon="7.39945">
        <ele>253.4447021</ele>
        <time>2012-04-01T10:39:01Z</time>
      </trkpt>
      <trkpt lat="47.71614" lon="7.39915">
        <ele>251.5220947</ele>
        <time>2012-04-01T10:39:05Z</time>
      </trkpt>
      <trkpt lat="47.71614" lon="7.39889">
        <ele>252.4833984</ele>
        <time>2012-04-01T10:39:08Z</time>
      </trkpt>
      <trkpt lat="47.71607" lon="7.39845">
        <ele>253.925415</ele>
        <time>2012-04-01T10:39:13Z</time>
      </trkpt>
      <trkpt lat="47.71592" lon="7.39792">
        <ele>256.8093262</ele>
        <time>2012-04-01T10:39:19Z</time>
      </trkpt>
      <trkpt lat="47.7159" lon="7.39782">
        <ele>256.3287354</ele>
        <time>2012-04-01T10:39:20Z</time>
      </trkpt>
      <trkpt lat="47.71595" lon="7.39748">
        <ele>256.8093262</ele>
        <time>2012-04-01T10:39:24Z</time>
      </trkpt>
      <trkpt lat="47.7161" lon="7.39733">
        <ele>255.8480225</ele>
        <time>2012-04-01T10:39:27Z</time>
      </trkpt>
      <trkpt lat="47.71616" lon="7.39732">
        <ele>255.3673096</ele>
        <time>2012-04-01T10:39:28Z</time>
      </trkpt>
      <trkpt lat="47.71649" lon="7.39721">
        <ele>252.4833984</ele>
        <time>2012-04-01T10:39:34Z</time>
      </trkpt>
      <trkpt lat="47.71674" lon="7.39694">
        <ele>252.0028076</ele>
        <time>2012-04-01T10:39:40Z</time>
      </trkpt>
      <trkpt lat="47.717" lon="7.39673">
        <ele>253.925415</ele>
        <time>2012-04-01T10:39:46Z</time>
      </trkpt>
      <trkpt lat="47.7171" lon="7.39653">
        <ele>254.4060059</ele>
        <time>2012-04-01T10:39:50Z</time>
      </trkpt>
      <trkpt lat="47.7171" lon="7.39647">
        <ele>253.925415</ele>
        <time>2012-04-01T10:39:51Z</time>
      </trkpt>
      <trkpt lat="47.71714" lon="7.39614">
        <ele>251.0413818</ele>
        <time>2012-04-01T10:39:56Z</time>
      </trkpt>
      <trkpt lat="47.71718" lon="7.3961">
        <ele>250.560791</ele>
        <time>2012-04-01T10:39:57Z</time>
      </trkpt>
      <trkpt lat="47.71734" lon="7.39581">
        <ele>253.4447021</ele>
        <time>2012-04-01T10:40:03Z</time>
      </trkpt>
      <trkpt lat="47.71734" lon="7.39562">
        <ele>254.4060059</ele>
        <time>2012-04-01T10:40:06Z</time>
      </trkpt>
      <trkpt lat="47.71732" lon="7.39545">
        <ele>255.3673096</ele>
        <time>2012-04-01T10:40:09Z</time>
      </trkpt>
      <trkpt lat="47.71721" lon="7.39494">
        <ele>259.6933594</ele>
        <time>2012-04-01T10:40:20Z</time>
      </trkpt>
      <trkpt lat="47.7172" lon="7.39469">
        <ele>262.5771484</ele>
        <time>2012-04-01T10:40:26Z</time>
      </trkpt>
      <trkpt lat="47.71723" lon="7.39464">
        <ele>261.6159668</ele>
        <time>2012-04-01T10:40:28Z</time>
      </trkpt>
    </trkseg>
  </trk>
</gpx>